ftp/pub/palmer/observations_modified/2019/June/AR190425_BASE.txt

Download

Sample DateTime	Unit Id	WS Avg 2min	WD Avg 2min	WGS 10min	WGD 10min	Air Temp	Rel Humidity	Dew Point	Pyranometer	Quantum	Air Pressure	Snow Level	Rainfall	PW Current	Visibility	CBase 1	CBase 2	CBase 3	Vert Vis
2019/04/25 00:00:00	BASE	14.74	323	18.11	326	0.9	100	0.9	0	0	984.5	NA	0.0000	BR	8000	1080	1740	0	0
2019/04/25 00:01:00	BASE	15.60	323	18.11	326	0.9	100	0.9	0	0	984.5	NA	0.0000	BR	8000	1020	0	0	0
2019/04/25 00:02:00	BASE	16.23	323	18.83	320	0.9	100	0.9	0	0	984.5	NA	0.0000	BR	8000	1020	0	0	0
2019/04/25 00:03:00	BASE	16.10	323	18.83	320	0.9	100	0.9	0	0	984.5	NA	0.0000	BR	8000	980	0	0	0
2019/04/25 00:04:00	BASE	15.98	324	18.83	320	0.9	100	0.9	0	0	984.4	NA	0.0000	BR	8000	980	0	0	0
2019/04/25 00:05:00	BASE	15.94	326	18.83	320	0.9	100	0.9	0	0	984.5	NA	0.0000	BR	8000	1050	0	0	0
2019/04/25 00:06:00	BASE	15.56	326	18.83	320	0.9	100	0.9	0	0	984.5	NA	0.0000	BR	8000	950	0	0	0
2019/04/25 00:07:00	BASE	15.75	324	18.83	320	0.9	100	0.9	0	0	984.5	NA	0.0000	BR	8000	1120	0	0	0
2019/04/25 00:08:00	BASE	15.91	321	18.83	320	0.9	100	0.9	0	0	984.5	NA	0.0000	BR	8000	1020	1710	0	0
2019/04/25 00:09:00	BASE	16.91	319	19.09	324	0.9	100	0.9	0	0	984.5	NA	0.0000	BR	8000	1020	0	0	0
2019/04/25 00:10:00	BASE	17.44	319	19.09	324	0.9	100	0.9	0	0	984.6	NA	0.0000	BR	8000	1020	0	0	0
2019/04/25 00:11:00	BASE	18.09	320	20.99	327	0.9	100	0.9	0	0	984.6	NA	0.0000	BR	8000	1050	0	0	0
2019/04/25 00:12:00	BASE	18.05	319	20.99	327	0.9	100	0.9	0	0	984.7	NA	0.0000	BR	8000	980	0	0	0
2019/04/25 00:13:00	BASE	16.89	318	20.99	327	0.9	100	0.9	0	0	984.7	NA	0.0000	BR	8000	1210	0	0	0
2019/04/25 00:14:00	BASE	16.88	317	20.99	327	0.9	100	0.9	0	0	984.7	NA	0.0000	BR	8000	920	0	0	0
2019/04/25 00:15:00	BASE	17.04	317	20.99	327	0.9	100	0.9	0	0	984.7	NA	0.0000	BR	8000	850	0	0	0
2019/04/25 00:16:00	BASE	17.01	318	20.99	327	0.9	100	0.9	0	0	984.7	NA	0.0000	BR	8000	890	0	0	0
2019/04/25 00:17:00	BASE	16.93	318	20.99	327	0.9	100	0.9	0	0	984.7	NA	0.0000	UP BR	8000	890	0	0	0
2019/04/25 00:18:00	BASE	16.70	319	20.99	327	0.9	100	0.9	0	0	984.7	NA	0.0000	UP BR	8000	820	0	0	0
2019/04/25 00:19:00	BASE	16.76	321	20.99	327	0.9	100	0.9	0	0	984.7	NA	0.0000	UP BR	8000	750	0	0	0
2019/04/25 00:20:00	BASE	16.85	323	20.99	327	0.9	100	0.9	0	0	984.7	NA	0.0000	UP BR	8000	750	0	0	0
2019/04/25 00:21:00	BASE	16.34	323	19.81	316	0.9	100	0.9	0	0	984.9	NA	0.0000	UP BR	8000	750	0	0	0
2019/04/25 00:22:00	BASE	15.42	322	19.81	316	0.9	100	0.9	0	0	984.9	NA	0.0000	UP BR	7000	750	0	0	0
2019/04/25 00:23:00	BASE	15.42	322	19.81	316	0.9	100	0.9	0	0	984.9	NA	0.0000	UP BR	7000	820	0	0	0
2019/04/25 00:24:00	BASE	15.82	322	18.98	316	0.9	100	0.9	0	0	984.9	NA	0.0000	UP BR	8000	820	0	0	0
2019/04/25 00:25:00	BASE	15.27	322	18.57	311	0.9	100	0.9	0	0	985.0	NA	0.0000	UP BR	7000	820	0	0	0
2019/04/25 00:26:00	BASE	14.79	321	18.57	311	0.9	100	0.9	0	0	985.0	NA	0.0000	BR	7000	820	0	0	0
2019/04/25 00:27:00	BASE	14.65	321	18.57	311	0.9	100	0.9	0	0	985.0	NA	0.0000	BR	7000	750	0	0	0
2019/04/25 00:28:00	BASE	14.06	321	18.57	311	0.9	100	0.9	0	0	985.1	NA	0.0000	BR	7000	790	0	0	0
2019/04/25 00:29:00	BASE	14.06	321	18.47	317	0.9	100	0.9	0	0	985.1	NA	0.0000	BR	7000	750	0	0	0
2019/04/25 00:30:00	BASE	14.00	320	18.47	317	0.9	100	0.9	0	0	985.1	NA	0.0000	BR	7000	820	0	0	0
2019/04/25 00:31:00	BASE	13.83	321	17.59	317	0.9	100	0.9	0	0	985.1	NA	0.0000	BR	7000	790	0	0	0
2019/04/25 00:32:00	BASE	13.77	323	17.59	317	0.9	100	0.9	0	0	985.1	NA	0.0000	BR	7000	750	0	0	0
2019/04/25 00:33:00	BASE	13.35	327	17.23	326	0.9	100	0.9	0	0	985.1	NA	0.0000	BR	7000	790	0	0	0
2019/04/25 00:34:00	BASE	13.31	327	16.26	314	0.9	100	0.9	0	0	985.1	NA	0.0000	BR	7000	750	0	0	0
2019/04/25 00:35:00	BASE	13.81	327	16.26	314	0.9	100	0.9	0	0	985.1	NA	0.0000	BR	7000	720	0	0	0
2019/04/25 00:36:00	BASE	14.23	328	16.26	314	0.9	100	0.9	0	0	985.1	NA	0.0000	BR	7000	690	0	0	0
2019/04/25 00:37:00	BASE	13.79	328	15.90	318	0.9	100	0.9	0	0	985.1	NA	0.0000	BR	7000	720	0	0	0
2019/04/25 00:38:00	BASE	13.56	327	15.90	318	0.9	100	0.9	0	0	985.1	NA	0.0000	BR	7000	750	0	0	0
2019/04/25 00:39:00	BASE	13.56	328	15.90	318	0.9	100	0.9	0	0	985.2	NA	0.0000	BR	7000	790	0	0	0
2019/04/25 00:40:00	BASE	14.04	330	15.90	318	0.9	100	0.9	0	0	985.2	NA	0.0000	BR	2500	750	0	0	0
2019/04/25 00:41:00	BASE	14.45	330	16.67	325	0.9	100	0.9	0	0	985.2	NA	0.0000	BR	2700	720	0	0	0
2019/04/25 00:42:00	BASE	13.82	326	16.67	325	0.9	100	0.9	0	0	985.3	NA	0.0000	BR	9999	750	1410	0	0
2019/04/25 00:43:00	BASE	15.06	323	19.14	324	0.9	100	0.9	0	0	985.2	NA	0.0000	BR	9999	690	0	0	0
2019/04/25 00:44:00	BASE	15.68	325	19.14	324	0.9	100	0.9	0	0	985.2	NA	0.0000	BR	9999	690	0	0	0
2019/04/25 00:45:00	BASE	14.12	330	19.14	324	0.9	100	0.9	0	0	985.3	NA	0.0000	BR	9999	660	0	0	0
2019/04/25 00:46:00	BASE	14.21	330	19.14	324	0.9	100	0.9	0	0	985.3	NA	0.0000	BR	9999	660	0	0	0
2019/04/25 00:47:00	BASE	14.67	328	19.14	324	0.9	100	0.9	0	0	985.3	NA	0.0000	BR	9999	660	0	0	0
2019/04/25 00:48:00	BASE	14.63	327	19.14	324	0.9	100	0.9	0	0	985.3	NA	0.0000	BR	9999	690	0	0	0
2019/04/25 00:49:00	BASE	14.33	328	19.14	324	0.9	100	0.9	0	0	985.3	NA	0.0000	BR	9999	690	0	0	0
2019/04/25 00:50:00	BASE	14.21	329	19.14	324	0.9	100	0.9	0	0	985.3	NA	0.0000		9999	690	0	0	0
2019/04/25 00:51:00	BASE	14.40	328	19.14	324	0.9	100	0.9	0	0	985.3	NA	0.0000		9999	690	0	0	0
2019/04/25 00:52:00	BASE	14.27	329	19.14	324	0.9	100	0.9	0	0	985.4	NA	0.0000		9999	690	0	0	0
2019/04/25 00:53:00	BASE	14.03	329	16.10	326	0.9	100	0.9	0	0	985.4	NA	0.0000		9999	660	0	0	0
2019/04/25 00:54:00	BASE	13.80	329	16.10	326	0.9	100	0.9	0	0	985.3	NA	0.0000		9999	660	0	0	0
2019/04/25 00:55:00	BASE	13.83	328	16.10	326	0.9	100	0.9	0	0	985.3	NA	0.0000		9999	620	0	0	0
2019/04/25 00:56:00	BASE	14.00	329	15.84	325	0.9	100	0.9	0	0	985.3	NA	0.0000		9999	660	0	0	0
2019/04/25 00:57:00	BASE	14.03	331	15.84	325	0.9	100	0.9	0	0	985.3	NA	0.0000		9999	660	0	0	0
2019/04/25 00:58:00	BASE	14.15	332	15.69	331	0.9	100	0.9	0	0	985.3	NA	0.0000		9999	660	0	0	0
2019/04/25 00:59:00	BASE	14.74	333	16.20	331	0.9	100	0.9	0	0	985.2	NA	0.0000		9999	660	0	0	0
2019/04/25 01:00:00	BASE	14.87	332	16.20	331	0.9	100	0.9	0	0	985.2	NA	0.0000		9999	620	0	0	0
2019/04/25 01:01:00	BASE	14.24	331	16.20	331	0.9	100	0.9	0	0	985.3	NA	0.0000		9999	620	0	0	0
2019/04/25 01:02:00	BASE	14.38	329	16.31	323	0.9	100	0.9	0	0	985.2	NA	0.0000		9999	620	0	0	0
2019/04/25 01:03:00	BASE	14.69	328	16.31	323	0.9	100	0.9	0	0	985.3	NA	0.0000		9999	590	0	0	0
2019/04/25 01:04:00	BASE	14.79	328	16.62	321	0.9	100	0.9	0	0	985.3	NA	0.0000		9999	590	0	0	0
2019/04/25 01:05:00	BASE	14.71	327	16.62	321	0.9	100	0.9	0	0	985.3	NA	0.0000		9999	590	0	0	0
2019/04/25 01:06:00	BASE	14.91	327	18.06	327	0.9	100	0.9	0	0	985.3	NA	0.0000		9999	660	0	0	0
2019/04/25 01:07:00	BASE	15.69	327	18.06	327	0.9	100	0.9	0	0	985.3	NA	0.0000		9999	620	0	0	0
2019/04/25 01:08:00	BASE	15.53	327	18.06	327	0.9	100	0.9	0	0	985.3	NA	0.0000		9999	620	0	0	0
2019/04/25 01:09:00	BASE	14.77	327	18.06	327	0.9	100	0.9	0	0	985.3	NA	0.0000		9999	620	0	0	0
2019/04/25 01:10:00	BASE	14.27	328	18.06	327	0.9	100	0.9	0	0	985.3	NA	0.0000		9999	590	0	0	0
2019/04/25 01:11:00	BASE	14.74	329	18.06	327	0.9	100	0.9	0	0	985.3	NA	0.0000		9999	590	0	0	0
2019/04/25 01:12:00	BASE	15.17	328	18.06	327	0.9	100	0.9	0	0	985.3	NA	0.0000		9999	660	0	0	0
2019/04/25 01:13:00	BASE	14.52	329	18.06	327	0.9	100	0.9	0	0	985.3	NA	0.0000		9999	590	0	0	0
2019/04/25 01:14:00	BASE	14.38	330	18.06	327	0.9	100	0.9	0	0	985.3	NA	0.0000		9999	620	0	0	0
2019/04/25 01:15:00	BASE	14.28	327	18.06	327	0.9	100	0.9	0	0	985.3	NA	0.0000		9999	620	0	0	0
2019/04/25 01:16:00	BASE	14.34	327	16.72	333	0.9	100	0.9	0	0	985.3	NA	0.0000		9999	690	0	0	0
2019/04/25 01:17:00	BASE	14.85	328	16.62	324	0.9	100	0.9	0	0	985.3	NA	0.0000		9999	690	0	0	0
2019/04/25 01:18:00	BASE	15.06	328	16.62	324	0.9	100	0.9	0	0	985.3	NA	0.0000		9999	690	0	0	0
2019/04/25 01:19:00	BASE	15.15	329	16.62	335	0.9	100	0.9	0	0	985.3	NA	0.0000		9999	920	0	0	0
2019/04/25 01:20:00	BASE	15.17	330	16.62	335	0.9	100	0.9	0	0	985.3	NA	0.0000		9999	660	0	0	0
2019/04/25 01:21:00	BASE	15.47	330	16.67	332	0.9	100	0.9	0	0	985.3	NA	0.0000		9999	750	0	0	0
2019/04/25 01:22:00	BASE	15.55	330	16.77	331	0.9	100	0.9	0	0	985.3	NA	0.0000		9999	690	0	0	0
2019/04/25 01:23:00	BASE	15.51	328	16.77	331	0.9	100	0.9	0	0	985.3	NA	0.0000		9999	720	0	0	0
2019/04/25 01:24:00	BASE	15.52	330	16.77	331	0.9	100	0.9	0	0	985.3	NA	0.0000		9999	660	0	0	0
2019/04/25 01:25:00	BASE	15.36	330	16.77	326	0.9	100	0.9	0	0	985.3	NA	0.0000		9999	660	0	0	0
2019/04/25 01:26:00	BASE	15.30	328	16.87	329	0.9	100	0.9	0	0	985.3	NA	0.0000		9999	620	0	0	0
2019/04/25 01:27:00	BASE	15.49	328	16.87	329	0.9	100	0.9	0	0	985.3	NA	0.0000		9999	620	0	0	0
2019/04/25 01:28:00	BASE	14.94	328	16.87	329	0.9	100	0.9	0	0	985.3	NA	0.0000		9999	660	0	0	0
2019/04/25 01:29:01	BASE	14.43	329	16.87	329	0.9	100	0.9	0	0	985.3	NA	0.0000		9999	660	0	0	0
2019/04/25 01:30:00	BASE	14.93	328	16.87	329	1.0	100	1.0	0	0	985.4	NA	0.0000		9999	620	0	0	0
2019/04/25 01:31:00	BASE	15.42	328	17.08	328	1.0	100	1.0	0	0	985.4	NA	0.0000		9999	590	0	0	0
2019/04/25 01:32:00	BASE	15.34	330	17.08	328	1.0	100	1.0	0	0	985.3	NA	0.0000		9999	590	0	0	0
2019/04/25 01:33:00	BASE	14.99	329	17.08	328	1.0	100	1.0	0	0	985.4	NA	0.0000		9999	620	0	0	0
2019/04/25 01:34:01	BASE	15.40	327	17.08	328	1.0	100	1.0	0	0	985.4	NA	0.0000		9999	620	0	0	0
2019/04/25 01:35:00	BASE	15.73	328	17.08	328	0.9	100	0.9	0	0	985.4	NA	0.0000		9999	660	0	0	0
2019/04/25 01:36:00	BASE	16.01	328	17.80	324	0.9	100	0.9	0	0	985.3	NA	0.0000		9999	620	0	0	0
2019/04/25 01:37:00	BASE	15.86	329	17.80	324	1.0	100	1.0	0	0	985.3	NA	0.0000		9999	590	0	0	0
2019/04/25 01:38:00	BASE	15.98	329	18.26	330	1.0	100	1.0	0	0	985.3	NA	0.0000		9999	620	0	0	0
2019/04/25 01:39:00	BASE	16.34	328	18.26	330	1.0	100	1.0	0	0	985.4	NA	0.0000		9999	660	0	0	0
2019/04/25 01:40:00	BASE	15.80	327	18.26	330	1.0	100	1.0	0	0	985.4	NA	0.0000		9999	750	0	0	0
2019/04/25 01:41:00	BASE	15.87	329	18.26	330	1.0	100	1.0	0	0	985.4	NA	0.0000		9999	660	0	0	0
2019/04/25 01:42:00	BASE	16.16	329	18.26	330	1.0	100	1.0	0	0	985.3	NA	0.0000		9999	620	0	0	0
2019/04/25 01:43:00	BASE	17.18	329	18.57	330	1.0	100	1.0	0	0	985.3	NA	0.0000		9999	660	0	0	0
2019/04/25 01:44:00	BASE	16.92	329	18.57	330	1.0	100	1.0	0	0	985.4	NA	0.0000		9999	660	0	0	0
2019/04/25 01:45:00	BASE	15.81	330	18.57	330	1.0	100	1.0	0	0	985.4	NA	0.0000		9000	620	0	0	0
2019/04/25 01:46:00	BASE	16.25	331	18.57	330	1.0	100	1.0	0	0	985.4	NA	0.0000		9000	690	0	0	0
2019/04/25 01:47:01	BASE	16.59	329	18.57	330	1.0	100	1.0	0	0	985.4	NA	0.0000	BR	9000	660	0	0	0
2019/04/25 01:48:00	BASE	15.94	330	18.57	330	1.0	100	1.0	0	0	985.4	NA	0.0000	BR	9000	620	0	0	0
2019/04/25 01:49:00	BASE	15.26	331	18.57	330	1.0	100	1.0	0	0	985.4	NA	0.0000	BR	9000	620	0	0	0
2019/04/25 01:50:00	BASE	15.70	330	18.57	330	1.0	100	1.0	0	0	985.4	NA	0.0000	BR	9000	590	0	0	0
2019/04/25 01:51:00	BASE	16.66	330	18.57	330	1.0	100	1.0	0	0	985.4	NA	0.0000	BR	9000	590	0	0	0
2019/04/25 01:52:00	BASE	17.31	329	19.70	329	1.0	100	1.0	0	0	985.3	NA	0.0000	BR	9000	620	0	0	0
2019/04/25 01:53:00	BASE	17.35	329	19.70	329	1.0	100	1.0	0	0	985.3	NA	0.0000	BR	9000	620	0	0	0
2019/04/25 01:54:00	BASE	17.70	330	19.70	329	1.0	100	1.0	0	0	985.3	NA	0.0000	BR	9000	620	0	0	0
2019/04/25 01:55:00	BASE	17.24	329	19.70	329	1.0	100	1.0	0	0	985.4	NA	0.0000	BR	9000	620	0	0	0
2019/04/25 01:56:00	BASE	16.63	329	19.70	329	1.0	100	1.0	0	0	985.4	NA	0.0000	BR	8000	430	0	0	0
2019/04/25 01:57:00	BASE	16.65	330	19.70	329	1.0	100	1.0	0	0	985.4	NA	0.0000	BR	8000	360	0	0	0
2019/04/25 01:58:00	BASE	16.52	328	19.70	329	1.0	100	1.0	0	0	985.4	NA	0.0000	UP BR	9000	590	0	0	0
2019/04/25 01:59:00	BASE	16.26	328	19.70	329	1.1	100	1.1	0	0	985.4	NA	0.0000	UP BR	9000	590	0	0	0
2019/04/25 02:00:00	BASE	16.26	329	19.70	329	1.0	100	1.0	0	0	985.4	NA	0.0000	UP BR	8000	690	0	0	0
2019/04/25 02:01:00	BASE	16.98	329	19.70	329	1.0	100	1.0	0	0	985.4	NA	0.0000	UP BR	8000	590	0	0	0
2019/04/25 02:02:00	BASE	17.59	328	19.70	328	1.0	100	1.0	0	0	985.3	NA	0.0000	UP BR	9000	590	0	0	0
2019/04/25 02:03:01	BASE	18.16	330	19.70	328	1.0	100	1.0	0	0	985.3	NA	0.0000	UP BR	9000	620	0	0	0
2019/04/25 02:04:00	BASE	18.33	330	21.20	327	1.0	100	1.0	0	0	985.3	NA	0.0000	UP BR	8000	560	0	0	0
2019/04/25 02:05:00	BASE	16.91	330	21.20	327	1.0	100	1.0	0	0	985.4	NA	0.0000	UP BR	8000	590	0	0	0
2019/04/25 02:06:00	BASE	15.86	329	21.20	327	1.0	100	1.0	0	0	985.4	NA	0.0000	UP BR	8000	590	0	0	0
2019/04/25 02:07:00	BASE	15.98	328	21.20	327	1.0	100	1.0	0	0	985.4	NA	0.0000	BR	8000	520	0	0	0
2019/04/25 02:08:00	BASE	15.78	328	21.20	327	1.0	100	1.0	0	0	985.4	NA	0.0000	BR	8000	560	0	0	0
2019/04/25 02:09:00	BASE	15.19	327	21.20	327	1.0	100	1.0	0	0	985.4	NA	0.0000	BR	8000	560	0	0	0
2019/04/25 02:10:00	BASE	15.39	326	21.20	327	1.0	100	1.0	0	0	985.4	NA	0.0000	BR	8000	590	0	0	0
2019/04/25 02:11:00	BASE	15.97	327	21.20	327	1.0	100	1.0	0	0	985.4	NA	0.0000	BR	8000	520	0	0	0
2019/04/25 02:12:00	BASE	15.76	326	21.20	327	1.0	100	1.0	0	0	985.4	NA	0.0000	BR	8000	430	0	0	0
2019/04/25 02:13:00	BASE	15.59	325	21.20	327	1.0	100	1.0	0	0	985.4	NA	0.0000	BR	8000	620	0	0	0
2019/04/25 02:14:00	BASE	15.62	326	17.34	332	1.0	100	1.0	0	0	985.4	NA	0.0000	BR	7000	620	0	0	0
2019/04/25 02:15:00	BASE	15.82	326	17.34	332	1.0	100	1.0	0	0	985.4	NA	0.0000	BR	7000	660	0	0	0
2019/04/25 02:16:00	BASE	15.66	326	17.23	319	1.0	100	1.0	0	0	985.4	NA	0.0000	BR	7000	620	0	0	0
2019/04/25 02:17:00	BASE	16.10	326	17.54	323	1.0	100	1.0	0	0	985.4	NA	0.0000	BR	7000	690	0	0	0
2019/04/25 02:18:00	BASE	17.06	327	18.21	327	1.0	100	1.0	0	0	985.4	NA	0.0000	BR	8000	620	0	0	0
2019/04/25 02:19:00	BASE	17.53	326	18.62	327	1.0	100	1.0	0	0	985.4	NA	0.0000	BR	8000	660	0	0	0
2019/04/25 02:20:00	BASE	17.16	325	18.78	321	1.1	100	1.1	0	0	985.3	NA	0.0000	BR	8000	720	0	0	0
2019/04/25 02:21:00	BASE	16.87	326	18.78	321	1.1	100	1.1	0	0	985.3	NA	0.0000	BR	8000	690	0	0	0
2019/04/25 02:22:00	BASE	16.89	328	18.78	321	1.1	100	1.1	0	0	985.3	NA	0.0000	BR	8000	690	0	0	0
2019/04/25 02:23:00	BASE	16.54	328	18.78	321	1.1	100	1.1	0	0	985.3	NA	0.0000	BR	8000	750	0	0	0
2019/04/25 02:24:00	BASE	16.42	326	18.78	321	1.1	100	1.1	0	0	985.3	NA	0.0000	BR	8000	720	0	0	0
2019/04/25 02:25:00	BASE	16.09	326	18.78	321	1.1	100	1.1	0	0	985.3	NA	0.0000	BR	8000	690	0	0	0
2019/04/25 02:26:00	BASE	16.42	327	18.78	321	1.1	100	1.1	0	0	985.3	NA	0.0000	BR	8000	690	0	0	0
2019/04/25 02:27:00	BASE	16.45	329	18.78	321	1.1	100	1.1	0	0	985.3	NA	0.0000	BR	8000	750	0	0	0
2019/04/25 02:28:00	BASE	15.45	329	18.78	321	1.1	100	1.1	0	0	985.3	NA	0.0000	BR	8000	690	0	0	0
2019/04/25 02:29:00	BASE	15.42	328	18.78	321	1.1	100	1.1	0	0	985.3	NA	0.0000	BR	7000	720	0	0	0
2019/04/25 02:30:00	BASE	15.90	327	18.57	325	1.1	100	1.1	0	0	985.3	NA	0.0000	BR	7000	690	0	0	0
2019/04/25 02:31:00	BASE	15.39	326	18.57	325	1.1	100	1.1	0	0	985.3	NA	0.0000	BR	7000	660	0	0	0
2019/04/25 02:32:00	BASE	15.33	328	18.57	325	1.0	100	1.0	0	0	985.3	NA	0.0000	BR	7000	720	0	0	0
2019/04/25 02:33:00	BASE	15.79	329	18.57	325	1.0	100	1.0	0	0	985.2	NA	0.0000	BR	7000	660	0	0	0
2019/04/25 02:34:00	BASE	15.09	329	18.57	325	1.1	100	1.1	0	0	985.2	NA	0.0000	BR	7000	660	0	0	0
2019/04/25 02:35:00	BASE	14.33	331	18.57	325	1.1	100	1.1	0	0	985.2	NA	0.0000	BR	7000	660	0	0	0
2019/04/25 02:36:00	BASE	14.77	331	17.85	326	1.0	100	1.0	0	0	985.2	NA	0.0000	BR	7000	690	0	0	0
2019/04/25 02:37:00	BASE	15.34	328	17.85	326	1.1	100	1.1	0	0	985.2	NA	0.0000	BR	7000	620	0	0	0
2019/04/25 02:38:00	BASE	15.18	328	17.85	326	1.0	100	1.0	0	0	985.2	NA	0.0000	BR	7000	620	0	0	0
2019/04/25 02:39:00	BASE	15.36	329	17.85	326	1.0	100	1.0	0	0	985.1	NA	0.0000	BR	7000	690	1310	0	0
2019/04/25 02:40:00	BASE	15.77	329	17.18	331	1.0	100	1.0	0	0	985.1	NA	0.0000	BR	7000	660	0	0	0
2019/04/25 02:41:00	BASE	15.81	330	17.18	331	1.0	100	1.0	0	0	985.1	NA	0.0000	BR	7000	790	0	0	0
2019/04/25 02:42:00	BASE	15.72	329	17.18	326	1.0	100	1.0	0	0	985.1	NA	0.0000	BR	7000	620	0	0	0
2019/04/25 02:43:00	BASE	15.74	329	17.18	333	1.1	100	1.1	0	0	985.0	NA	0.0000	BR	7000	660	0	0	0
2019/04/25 02:44:00	BASE	15.86	329	17.18	333	1.1	100	1.1	0	0	985.0	NA	0.0000	BR	7000	720	0	0	0
2019/04/25 02:45:00	BASE	15.88	330	17.54	332	1.1	100	1.1	0	0	985.0	NA	0.0000	BR	7000	660	0	0	0
2019/04/25 02:46:00	BASE	15.47	330	17.54	332	1.1	100	1.1	0	0	985.1	NA	0.0000	BR	7000	690	0	0	0
2019/04/25 02:47:00	BASE	15.43	330	17.54	332	1.0	100	1.0	0	0	985.1	NA	0.0000	BR	7000	790	0	0	0
2019/04/25 02:48:01	BASE	15.46	330	17.54	332	1.0	100	1.0	0	0	985.1	NA	0.0000	BR	7000	790	0	0	0
2019/04/25 02:49:00	BASE	15.47	329	17.54	332	1.0	100	1.0	0	0	985.1	NA	0.0000	BR	6000	750	0	0	0
2019/04/25 02:50:00	BASE	16.01	327	18.47	318	1.0	100	1.0	0	0	985.1	NA	0.0000	BR	6000	330	0	0	0
2019/04/25 02:51:00	BASE	17.58	324	22.07	316	1.0	100	1.0	0	0	985.1	NA	0.0000	BR	6000	0	0	0	2000
2019/04/25 02:52:00	BASE	18.59	323	22.07	316	1.0	100	1.0	0	0	985.1	NA	0.0000	UP BR	6000	0	0	0	1180
2019/04/25 02:53:00	BASE	17.97	322	22.07	316	1.0	100	1.0	0	0	985.2	NA	0.0000	UP BR	6000	0	0	0	1080
2019/04/25 02:54:00	BASE	17.34	323	22.07	316	1.0	100	1.0	0	0	985.2	NA	0.0000	UP BR	6000	0	0	0	920
2019/04/25 02:55:00	BASE	17.87	324	22.07	316	1.0	100	1.0	0	0	985.2	NA	0.0000	UP BR	7000	0	0	0	1020
2019/04/25 02:56:00	BASE	18.63	325	22.07	319	0.9	100	0.9	0	0	985.1	NA	0.0000	UP BR	7000	260	0	0	0
2019/04/25 02:57:00	BASE	19.60	325	22.07	319	0.9	100	0.9	0	0	985.1	NA	0.0000	UP BR	7000	300	0	0	0
2019/04/25 02:58:00	BASE	20.52	325	22.38	326	0.9	100	0.9	0	0	985.1	NA	0.0000	UP BR	7000	230	0	0	0
2019/04/25 02:59:00	BASE	20.62	325	22.84	320	0.9	100	0.9	0	0	985.1	NA	0.0000	UP BR	7000	300	0	0	0
2019/04/25 03:00:00	BASE	20.79	323	23.20	324	0.9	100	0.9	0	0	985.1	NA	0.0000	UP BR	7000	0	0	0	1020
2019/04/25 03:01:00	BASE	20.54	323	23.20	324	0.9	100	0.9	0	0	985.2	NA	0.0000	UP BR	7000	0	0	0	1120
2019/04/25 03:02:00	BASE	19.23	324	23.20	324	0.9	100	0.9	0	0	985.3	NA	0.0000	UP BR	7000	260	0	0	0
2019/04/25 03:03:00	BASE	18.69	327	23.20	324	0.8	100	0.8	0	0	985.3	NA	0.0000	UP BR	7000	330	0	0	0
2019/04/25 03:04:00	BASE	19.20	327	23.20	324	0.8	100	0.8	0	0	985.3	NA	0.0000	UP BR	8000	330	0	0	0
2019/04/25 03:05:00	BASE	19.11	327	23.20	324	0.8	100	0.8	0	0	985.3	NA	0.0000	UP BR	7000	330	0	0	0
2019/04/25 03:06:00	BASE	18.82	326	23.20	324	0.8	100	0.8	0	0	985.4	NA	0.0000	UP BR	7000	390	0	0	0
2019/04/25 03:07:00	BASE	18.24	325	23.20	324	0.8	100	0.8	0	0	985.4	NA	0.0000	UP BR	8000	660	0	0	0
2019/04/25 03:08:00	BASE	18.91	327	23.20	324	0.8	100	0.8	0	0	985.3	NA	0.0000	UP BR	8000	620	0	0	0
2019/04/25 03:09:00	BASE	18.98	327	23.20	324	0.8	100	0.8	0	0	985.4	NA	0.0000	UP BR	8000	430	0	0	0
2019/04/25 03:10:00	BASE	18.23	327	21.61	316	0.8	100	0.8	0	0	985.4	NA	0.0000	UP BR	8000	430	0	0	0
2019/04/25 03:11:00	BASE	18.42	325	21.61	316	0.9	100	0.9	0	0	985.4	NA	0.0000	UP BR	8000	430	0	0	0
2019/04/25 03:12:00	BASE	19.07	324	22.12	322	0.9	100	0.9	0	0	985.4	NA	0.0000	UP BR	7000	430	0	0	0
2019/04/25 03:13:00	BASE	19.60	324	22.12	322	0.9	100	0.9	0	0	985.4	NA	0.0000	UP BR	7000	430	0	0	0
2019/04/25 03:14:00	BASE	19.67	323	22.12	322	0.9	100	0.9	0	0	985.3	NA	0.0000	UP BR	8000	750	0	0	0
2019/04/25 03:15:00	BASE	19.17	324	22.12	322	0.9	100	0.9	0	0	985.4	NA	0.0000	UP BR	8000	890	0	0	0
2019/04/25 03:16:00	BASE	17.91	325	22.12	322	0.9	100	0.9	0	0	985.4	NA	0.0000	UP BR	8000	590	0	0	0
2019/04/25 03:17:00	BASE	17.95	326	22.12	322	0.9	100	0.9	0	0	985.3	NA	0.0000	BR	8000	660	0	0	0
2019/04/25 03:18:00	BASE	19.23	326	22.12	322	0.9	100	0.9	0	0	985.3	NA	0.0000	BR	8000	3900	0	0	0
2019/04/25 03:19:00	BASE	19.00	325	22.12	322	0.9	100	0.9	0	0	985.2	NA	0.0000	BR	8000	6040	0	0	0
2019/04/25 03:20:00	BASE	19.22	324	22.12	322	0.9	100	0.9	0	0	985.2	NA	0.0000	BR	8000	5840	0	0	0
2019/04/25 03:21:00	BASE	19.86	324	22.12	322	0.9	100	0.9	0	0	985.2	NA	0.0000	BR	8000	820	0	0	0
2019/04/25 03:22:00	BASE	19.63	325	22.07	321	0.9	100	0.9	0	0	985.3	NA	0.0000	BR	8000	0	0	0	2530
2019/04/25 03:23:00	BASE	20.06	325	22.02	322	0.9	100	0.9	0	0	985.3	NA	0.0000	BR	8000	980	0	0	0
2019/04/25 03:24:00	BASE	19.59	325	22.02	322	0.9	100	0.9	0	0	985.3	NA	0.0000	BR	8000	790	0	0	0
2019/04/25 03:25:00	BASE	19.36	325	22.02	322	0.9	100	0.9	0	0	985.2	NA	0.0000	BR	8000	820	0	0	0
2019/04/25 03:26:00	BASE	19.38	326	22.02	322	0.9	100	0.9	0	0	985.2	NA	0.0000	BR	8000	790	0	0	0
2019/04/25 03:27:00	BASE	19.27	327	22.02	322	0.9	100	0.9	0	0	985.2	NA	0.0000	BR	8000	950	0	0	0
2019/04/25 03:28:00	BASE	19.14	327	21.81	320	0.9	100	0.9	0	0	985.2	NA	0.0000	BR	8000	790	1610	0	0
2019/04/25 03:29:00	BASE	19.47	328	21.81	320	0.9	100	0.9	0	0	985.1	NA	0.0000	BR	8000	690	0	0	0
2019/04/25 03:30:00	BASE	20.28	328	22.48	327	0.9	100	0.9	0	0	985.1	NA	0.0000	BR	8000	520	0	0	0
2019/04/25 03:31:00	BASE	19.89	329	22.48	327	0.9	100	0.9	0	0	985.1	NA	0.0000	BR	8000	660	0	0	0
2019/04/25 03:32:00	BASE	19.18	329	22.48	327	0.9	100	0.9	0	0	985.2	NA	0.0000	BR	8000	660	0	0	0
2019/04/25 03:33:00	BASE	18.70	329	22.48	327	0.9	100	0.9	0	0	985.2	NA	0.0000	BR	8000	620	0	0	0
2019/04/25 03:34:00	BASE	19.07	329	22.48	327	1.0	100	1.0	0	0	985.2	NA	0.0000	BR	7000	590	0	0	0
2019/04/25 03:35:00	BASE	20.28	328	22.48	327	1.0	100	1.0	0	0	985.1	NA	0.0000	BR	7000	620	0	0	0
2019/04/25 03:36:00	BASE	20.58	327	23.05	319	1.0	100	1.0	0	0	985.2	NA	0.0000	BR	7000	660	0	0	0
2019/04/25 03:37:00	BASE	20.90	326	24.23	330	1.0	100	1.0	0	0	985.1	NA	0.0000	BR	7000	660	0	0	0
2019/04/25 03:38:00	BASE	21.13	325	24.23	330	1.0	100	1.0	0	0	985.2	NA	0.0000	BR	7000	690	0	0	0
2019/04/25 03:39:00	BASE	21.06	325	24.23	330	1.0	100	1.0	0	0	985.2	NA	0.0000	BR	7000	660	0	0	0
2019/04/25 03:40:00	BASE	21.96	326	24.23	330	1.0	100	1.0	0	0	985.1	NA	0.0000	BR	7000	660	0	0	0
2019/04/25 03:41:00	BASE	22.84	327	27.21	319	1.0	100	1.0	0	0	985.1	NA	0.0000	BR	8000	620	0	0	0
2019/04/25 03:42:00	BASE	23.94	326	27.21	319	1.0	100	1.0	0	0	985.1	NA	0.0000	BR	8000	1120	0	0	0
2019/04/25 03:43:00	BASE	22.93	324	27.21	319	1.0	100	1.0	0	0	985.2	NA	0.0000	BR	8000	750	1380	0	0
2019/04/25 03:44:00	BASE	21.16	326	27.21	319	1.0	100	1.0	0	0	985.2	NA	0.0000	BR	7000	690	0	0	0
2019/04/25 03:45:00	BASE	21.25	327	27.21	319	1.0	100	1.0	0	0	985.2	NA	0.0000	BR	8000	690	0	0	0
2019/04/25 03:46:00	BASE	21.58	327	27.21	319	1.0	100	1.0	0	0	985.2	NA	0.0000	BR	8000	620	0	0	0
2019/04/25 03:47:00	BASE	21.97	327	27.21	319	1.0	100	1.0	0	0	985.2	NA	0.0000	BR	8000	660	0	0	0
2019/04/25 03:48:00	BASE	21.64	325	27.21	319	1.0	100	1.0	0	0	985.2	NA	0.0000	BR	9000	620	0	0	0
2019/04/25 03:49:00	BASE	21.24	325	27.21	319	1.0	100	1.0	0	0	985.2	NA	0.0000	BR	8000	620	0	0	0
2019/04/25 03:50:00	BASE	21.90	324	27.21	319	1.0	100	1.0	0	0	985.2	NA	0.0000	BR	8000	590	0	0	0
2019/04/25 03:51:00	BASE	21.30	323	26.85	320	1.0	100	1.0	0	0	985.3	NA	0.0000	BR	8000	620	0	0	0
2019/04/25 03:52:00	BASE	20.14	324	24.44	327	0.9	100	0.9	0	0	985.3	NA	0.0000	BR	8000	590	0	0	0
2019/04/25 03:53:00	BASE	19.74	324	24.44	327	0.9	100	0.9	0	0	985.3	NA	0.0000	BR	8000	660	0	0	0
2019/04/25 03:54:00	BASE	19.34	324	24.44	327	0.9	100	0.9	0	0	985.3	NA	0.0000	BR	8000	790	0	0	0
2019/04/25 03:55:00	BASE	19.56	323	24.02	320	0.9	100	0.9	0	0	985.4	NA	0.0000	BR	8000	690	1770	0	0
2019/04/25 03:56:00	BASE	20.04	323	23.82	322	0.9	100	0.9	0	0	985.4	NA	0.0000	BR	8000	620	1310	0	0
2019/04/25 03:57:00	BASE	19.51	323	23.36	320	0.9	100	0.9	0	0	985.4	NA	0.0000	BR	8000	590	0	0	0
2019/04/25 03:58:00	BASE	18.75	324	23.36	320	0.9	100	0.9	0	0	985.4	NA	0.0000	BR	8000	720	0	0	0
2019/04/25 03:59:00	BASE	19.75	324	23.36	320	0.9	100	0.9	0	0	985.4	NA	0.0000	BR	8000	750	0	0	0
2019/04/25 04:00:00	BASE	21.12	323	23.05	327	0.9	100	0.9	0	0	985.4	NA	0.0000	BR	8000	660	0	0	0
2019/04/25 04:01:00	BASE	20.87	325	23.05	327	0.9	100	0.9	0	0	985.4	NA	0.0000	BR	8000	620	0	0	0
2019/04/25 04:02:00	BASE	20.22	326	23.05	327	0.9	100	0.9	0	0	985.4	NA	0.0000	BR	8000	620	0	0	0
2019/04/25 04:03:00	BASE	19.57	324	23.05	327	0.9	100	0.9	0	0	985.5	NA	0.0000	BR	8000	620	0	0	0
2019/04/25 04:04:00	BASE	18.78	324	23.05	327	0.9	100	0.9	0	0	985.5	NA	0.0000	BR	8000	620	0	0	0
2019/04/25 04:05:00	BASE	19.11	326	23.05	327	0.9	100	0.9	0	0	985.5	NA	0.0000	BR	8000	620	0	0	0
2019/04/25 04:06:00	BASE	18.91	327	23.05	327	0.9	100	0.9	0	0	985.5	NA	0.0000	BR	8000	660	0	0	0
2019/04/25 04:07:00	BASE	19.20	327	23.05	327	0.9	100	0.9	0	0	985.5	NA	0.0000	BR	9999	620	0	0	0
2019/04/25 04:08:00	BASE	19.82	327	23.05	327	0.9	100	0.9	0	0	985.5	NA	0.0000	BR	9999	620	0	0	0
2019/04/25 04:09:00	BASE	19.98	326	23.05	327	0.9	100	0.9	0	0	985.5	NA	0.0000	BR	9999	790	0	0	0
2019/04/25 04:10:00	BASE	20.23	324	22.94	327	0.9	100	0.9	0	0	985.5	NA	0.0000	BR	9999	690	0	0	0
2019/04/25 04:11:00	BASE	19.69	324	22.94	327	0.9	100	0.9	0	0	985.5	NA	0.0000	BR	9999	660	0	0	0
2019/04/25 04:12:00	BASE	19.27	326	22.64	328	0.9	100	0.9	0	0	985.6	NA	0.0000	BR	9999	690	4040	0	0
2019/04/25 04:13:00	BASE	18.85	326	22.64	328	0.9	100	0.9	0	0	985.6	NA	0.0000	BR	9999	3770	0	0	0
2019/04/25 04:14:00	BASE	19.07	323	22.74	318	0.9	100	0.9	0	0	985.6	NA	0.0000		9999	3770	0	0	0
2019/04/25 04:15:00	BASE	20.81	323	24.49	328	0.9	100	0.9	0	0	985.5	NA	0.0000		9999	3840	0	0	0
2019/04/25 04:16:00	BASE	20.55	326	24.49	328	0.9	100	0.9	0	0	985.6	NA	0.0000		9999	3870	0	0	0
2019/04/25 04:17:00	BASE	19.80	326	24.49	328	0.9	100	0.9	0	0	985.6	NA	0.0000		9999	820	3970	0	0
2019/04/25 04:18:00	BASE	20.10	328	24.49	328	0.9	100	0.9	0	0	985.6	NA	0.0000		9999	790	3900	0	0
2019/04/25 04:19:00	BASE	19.91	328	24.49	328	0.9	100	0.9	0	0	985.6	NA	0.0000		9999	3870	0	0	0
2019/04/25 04:20:00	BASE	19.53	327	24.49	328	0.9	100	0.9	0	0	985.6	NA	0.0000		9999	3810	0	0	0
2019/04/25 04:21:00	BASE	19.15	328	24.49	328	0.9	100	0.9	0	0	985.6	NA	0.0000		9999	820	3810	0	0
2019/04/25 04:22:00	BASE	19.24	327	24.49	328	0.9	100	0.9	0	0	985.7	NA	0.0000		9999	3840	0	0	0
2019/04/25 04:23:00	BASE	19.31	328	24.49	328	0.9	100	0.9	0	0	985.6	NA	0.0000		9999	3810	0	0	0
2019/04/25 04:24:00	BASE	19.30	328	24.49	328	0.9	100	0.9	0	0	985.7	NA	0.0000		9999	3900	0	0	0
2019/04/25 04:25:00	BASE	19.34	329	23.25	330	0.9	100	0.9	0	0	985.6	NA	0.0000		9999	3900	0	0	0
2019/04/25 04:26:00	BASE	19.63	330	23.25	330	0.9	100	0.9	0	0	985.6	NA	0.0000		9999	3940	0	0	0
2019/04/25 04:27:00	BASE	19.70	330	22.69	322	0.9	100	0.9	0	0	985.7	NA	0.0000		9999	4040	0	0	0
2019/04/25 04:28:00	BASE	19.85	330	22.69	322	0.9	100	0.9	0	0	985.6	NA	0.0000		9999	0	0	0	1670
2019/04/25 04:29:00	BASE	20.15	331	22.69	322	0.9	100	0.9	0	0	985.6	NA	0.0000		9999	0	0	0	1640
2019/04/25 04:30:00	BASE	20.13	331	22.69	322	0.9	100	0.9	0	0	985.6	NA	0.0000		9999	0	0	0	1640
2019/04/25 04:31:00	BASE	20.24	333	22.84	328	0.9	100	0.9	0	0	985.6	NA	0.0000		9999	1020	1510	0	0
2019/04/25 04:32:00	BASE	20.03	332	22.84	328	0.9	100	0.9	0	0	985.6	NA	0.0000		9999	1180	0	0	0
2019/04/25 04:33:00	BASE	20.35	332	22.84	328	0.9	100	0.9	0	0	985.6	NA	0.0000		9999	690	0	0	0
2019/04/25 04:34:00	BASE	21.04	332	22.84	328	0.9	100	0.9	0	0	985.6	NA	0.0000		9999	660	0	0	0
2019/04/25 04:35:00	BASE	20.82	332	22.84	328	0.9	100	0.9	0	0	985.6	NA	0.0000		9999	790	1480	0	0
2019/04/25 04:36:00	BASE	20.93	332	22.94	336	0.9	100	0.9	0	0	985.6	NA	0.0000		9999	720	1570	0	0
2019/04/25 04:37:00	BASE	21.52	332	23.15	328	0.9	100	0.9	0	0	985.6	NA	0.0000		9999	980	1480	0	0
2019/04/25 04:38:00	BASE	21.20	330	23.15	328	0.9	100	0.9	0	0	985.6	NA	0.0000		9999	1250	0	0	0
2019/04/25 04:39:00	BASE	20.89	330	23.56	329	0.9	100	0.9	0	0	985.6	NA	0.0000		9999	1280	0	0	0
2019/04/25 04:40:00	BASE	21.07	329	23.56	329	0.9	100	0.9	0	0	985.6	NA	0.0000		9999	1380	0	0	0
2019/04/25 04:41:01	BASE	20.77	329	23.56	329	0.9	100	0.9	0	0	985.6	NA	0.0000		9999	1180	0	0	0
2019/04/25 04:42:00	BASE	21.53	331	23.87	332	0.9	100	0.9	0	0	985.5	NA	0.0000		9999	890	0	0	0
2019/04/25 04:43:00	BASE	23.07	332	24.69	328	0.9	100	0.9	0	0	985.5	NA	0.0000		9999	850	0	0	0
2019/04/25 04:44:01	BASE	22.93	331	24.69	328	0.9	100	0.9	0	0	985.6	NA	0.0000		9999	850	0	0	0
2019/04/25 04:45:00	BASE	22.72	331	24.69	328	1.0	100	1.0	0	0	985.5	NA	0.0000		9999	690	0	0	0
2019/04/25 04:46:00	BASE	23.09	331	24.69	328	1.0	100	1.0	0	0	985.5	NA	0.0000		9999	850	0	0	0
2019/04/25 04:47:00	BASE	23.69	331	27.01	330	1.0	100	1.0	0	0	985.5	NA	0.0000		9999	690	0	0	0
2019/04/25 04:48:00	BASE	23.43	331	27.01	330	1.0	100	1.0	0	0	985.6	NA	0.0000		9999	720	0	0	0
2019/04/25 04:49:00	BASE	22.89	332	27.01	330	1.0	100	1.0	0	0	985.5	NA	0.0000		9999	690	0	0	0
2019/04/25 04:50:00	BASE	23.27	332	27.01	330	1.0	100	1.0	0	0	985.5	NA	0.0000		9999	690	0	0	0
2019/04/25 04:51:00	BASE	23.16	332	27.01	330	1.0	100	1.0	0	0	985.5	NA	0.0000		9999	660	0	0	0
2019/04/25 04:52:00	BASE	23.18	333	27.01	330	1.0	100	1.0	0	0	985.5	NA	0.0000		9999	660	0	0	0
2019/04/25 04:53:00	BASE	24.10	332	28.14	329	1.0	100	1.0	0	0	985.4	NA	0.0000		9999	690	0	0	0
2019/04/25 04:54:01	BASE	23.96	331	28.14	329	1.0	100	1.0	0	0	985.5	NA	0.0000		9999	660	0	0	0
2019/04/25 04:55:01	BASE	23.69	332	28.14	329	1.0	100	1.0	0	0	985.4	NA	0.0000		9999	820	0	0	0
2019/04/25 04:56:01	BASE	23.80	332	28.14	329	1.0	100	1.0	0	0	985.5	NA	0.0000		9999	750	0	0	0
2019/04/25 04:57:01	BASE	22.75	331	28.14	329	1.0	100	1.0	0	0	985.5	NA	0.0000		9999	690	0	0	0
2019/04/25 04:58:01	BASE	22.07	332	28.14	329	1.0	100	1.0	0	0	985.5	NA	0.0000		9999	690	0	0	0
2019/04/25 04:59:01	BASE	22.70	333	28.14	329	1.0	100	1.0	0	0	985.5	NA	0.0000		9999	690	0	0	0
2019/04/25 05:00:00	BASE	23.76	332	28.14	329	1.0	100	1.0	0	0	985.5	NA	0.0000		9999	690	0	0	0
2019/04/25 05:01:00	BASE	23.90	331	28.14	329	1.0	100	1.0	0	0	985.5	NA	0.0000		9999	690	0	0	0
2019/04/25 05:02:00	BASE	23.47	330	28.14	329	1.0	100	1.0	0	0	985.6	NA	0.0000		9999	720	0	0	0
2019/04/25 05:03:00	BASE	22.02	330	26.91	332	1.0	100	1.0	0	0	985.6	NA	0.0000		9999	720	0	0	0
2019/04/25 05:04:00	BASE	21.38	332	26.91	332	1.0	100	1.0	0	0	985.6	NA	0.0000		9999	720	0	0	0
2019/04/25 05:05:00	BASE	21.67	332	26.91	332	1.0	100	1.0	0	0	985.6	NA	0.0000		9999	790	0	0	0
2019/04/25 05:06:00	BASE	21.71	329	26.91	332	1.0	100	1.0	0	0	985.7	NA	0.0000		9999	750	0	0	0
2019/04/25 05:07:00	BASE	21.98	329	26.91	332	1.0	100	1.0	0	0	985.7	NA	0.0000		9999	790	0	0	0
2019/04/25 05:08:00	BASE	21.50	331	26.91	332	1.0	100	1.0	0	0	985.7	NA	0.0000		9999	820	0	0	0
2019/04/25 05:09:00	BASE	21.12	332	25.62	336	1.0	100	1.0	0	0	985.7	NA	0.0000		9999	920	0	0	0
2019/04/25 05:10:00	BASE	20.68	329	25.62	336	1.0	100	1.0	0	0	985.8	NA	0.0000		9999	890	0	0	0
2019/04/25 05:11:01	BASE	19.60	328	24.33	325	1.0	100	1.0	0	0	985.9	NA	0.0000		9999	890	0	0	0
2019/04/25 05:12:00	BASE	20.07	328	24.28	328	1.0	100	1.0	0	0	985.9	NA	0.0000		9999	820	0	0	0
2019/04/25 05:13:00	BASE	20.19	328	24.28	328	1.0	100	1.0	0	0	986.0	NA	0.0000		9999	850	0	0	0
2019/04/25 05:14:00	BASE	20.34	329	24.28	328	1.0	100	1.0	0	0	985.9	NA	0.0000		9999	790	0	0	0
2019/04/25 05:15:01	BASE	21.52	329	24.28	328	1.0	100	1.0	0	0	985.9	NA	0.0000		9999	820	0	0	0
2019/04/25 05:16:00	BASE	22.15	328	24.28	328	1.0	100	1.0	0	0	985.9	NA	0.0000		9999	790	0	0	0
2019/04/25 05:17:00	BASE	21.31	329	24.28	328	1.0	100	1.0	0	0	986.0	NA	0.0000		9999	850	14440	0	0
2019/04/25 05:18:00	BASE	20.07	328	24.28	328	1.0	100	1.0	0	0	986.0	NA	0.0000		9999	14370	0	0	0
2019/04/25 05:19:00	BASE	20.23	329	24.08	318	1.0	100	1.0	0	0	986.0	NA	0.0000		9999	890	14370	0	0
2019/04/25 05:20:00	BASE	20.05	329	24.08	318	1.0	100	1.0	0	0	986.1	NA	0.0000		9999	1080	14370	0	0
2019/04/25 05:21:00	BASE	19.73	328	24.08	318	1.0	100	1.0	0	0	986.2	NA	0.0000		9999	1410	14370	0	0
2019/04/25 05:22:00	BASE	18.97	326	24.08	318	1.0	100	1.0	0	0	986.2	NA	0.0000		9999	14400	0	0	0
2019/04/25 05:23:00	BASE	18.73	326	24.08	318	1.0	100	1.0	0	0	986.2	NA	0.0000		9999	14370	0	0	0
2019/04/25 05:24:00	BASE	19.16	326	24.08	318	1.0	100	1.0	0	0	986.2	NA	0.0000		9999	14400	0	0	0
2019/04/25 05:25:00	BASE	18.63	329	23.97	327	1.0	100	1.0	0	0	986.2	NA	0.0000		9999	14370	0	0	0
2019/04/25 05:26:00	BASE	18.57	330	22.89	330	0.9	100	0.9	0	0	986.2	NA	0.0000		9999	14340	0	0	0
2019/04/25 05:27:00	BASE	19.30	328	22.89	330	0.9	100	0.9	0	0	986.2	NA	0.0000		9999	14340	0	0	0
2019/04/25 05:28:00	BASE	18.75	327	22.89	330	0.9	100	0.9	0	0	986.3	NA	0.0000		9999	14340	0	0	0
2019/04/25 05:29:00	BASE	17.81	327	22.33	322	0.9	100	0.9	0	0	986.3	NA	0.0000		9999	0	0	0	1350
2019/04/25 05:30:01	BASE	18.41	327	22.33	322	0.9	100	0.9	0	0	986.4	NA	0.0000		9999	0	0	0	1480
2019/04/25 05:31:00	BASE	18.99	327	22.33	322	0.9	100	0.9	0	0	986.5	NA	0.0000		9999	0	0	0	1640
2019/04/25 05:32:01	BASE	18.98	327	22.33	322	0.9	100	0.9	0	0	986.4	NA	0.0000		9999	1380	0	0	0
2019/04/25 05:33:00	BASE	18.86	329	21.40	329	0.9	100	0.9	0	0	986.5	NA	0.0000		9999	0	0	0	1610
2019/04/25 05:34:00	BASE	18.59	329	21.40	329	0.9	100	0.9	0	0	986.5	NA	0.0000		9999	0	0	0	1670
2019/04/25 05:35:00	BASE	18.35	328	21.40	329	0.9	100	0.9	0	0	986.6	NA	0.0000		9999	1610	0	0	0
2019/04/25 05:36:00	BASE	18.19	329	21.40	329	0.9	100	0.9	0	0	986.6	NA	0.0000		9999	1210	0	0	0
2019/04/25 05:37:00	BASE	17.98	330	21.40	329	0.9	100	0.9	0	0	986.6	NA	0.0000		9999	4130	0	0	0
2019/04/25 05:38:00	BASE	17.54	329	21.40	329	0.9	100	0.9	0	0	986.6	NA	0.0000		9999	14860	0	0	0
2019/04/25 05:39:00	BASE	17.83	329	21.40	329	0.9	100	0.9	0	0	986.6	NA	0.0000		9999	14900	0	0	0
2019/04/25 05:40:00	BASE	18.79	331	21.40	329	0.9	100	0.9	0	0	986.6	NA	0.0000		9999	3080	0	0	0
2019/04/25 05:41:00	BASE	19.29	333	21.40	329	0.9	100	0.9	0	0	986.6	NA	0.0000		9999	1180	3120	0	0
2019/04/25 05:42:00	BASE	19.48	333	22.22	333	0.9	100	0.9	0	0	986.6	NA	0.0000		9999	1080	0	0	0
2019/04/25 05:43:00	BASE	19.42	331	22.22	333	0.9	100	0.9	0	0	986.6	NA	0.0000		9999	1020	15030	0	0
2019/04/25 05:44:00	BASE	18.81	329	22.22	333	0.9	100	0.9	0	0	986.6	NA	0.0000		9999	980	0	0	0
2019/04/25 05:45:00	BASE	18.33	329	22.22	333	0.9	100	0.9	0	0	986.7	NA	0.0000		9999	1150	3150	0	0
2019/04/25 05:46:00	BASE	18.04	330	22.22	333	0.9	100	0.9	0	0	986.7	NA	0.0000		9999	1180	14960	0	0
2019/04/25 05:47:00	BASE	17.75	329	22.22	333	0.9	100	0.9	0	0	986.7	NA	0.0000		9999	3180	0	0	0
2019/04/25 05:48:00	BASE	17.35	329	22.22	333	0.9	100	0.9	0	0	986.7	NA	0.0000		9999	1080	3220	0	0
2019/04/25 05:49:00	BASE	17.77	329	22.22	333	0.9	100	0.9	0	0	986.7	NA	0.0000		9999	1150	3250	0	0
2019/04/25 05:50:00	BASE	18.97	328	22.22	333	0.9	100	0.9	0	0	986.7	NA	0.0000		9999	1120	3280	0	0
2019/04/25 05:51:00	BASE	19.08	328	22.22	333	0.9	100	0.9	0	0	986.8	NA	0.0000		9999	1150	0	0	0
2019/04/25 05:52:01	BASE	18.91	329	21.20	331	0.9	100	0.9	0	0	986.8	NA	0.0000	UP	9999	1120	0	0	0
2019/04/25 05:53:00	BASE	18.81	328	21.20	331	0.9	100	0.9	0	0	986.8	NA	0.0000	UP	9999	1120	0	0	0
2019/04/25 05:54:00	BASE	19.24	326	21.35	319	0.9	100	0.9	0	0	986.8	NA	0.0000		9999	1180	0	0	0
2019/04/25 05:55:00	BASE	19.91	327	21.76	327	0.9	100	0.9	0	0	986.8	NA	0.0000		9999	1210	0	0	0
2019/04/25 05:56:00	BASE	19.41	328	21.76	327	0.9	100	0.9	0	0	986.9	NA	0.0000		9999	4860	0	0	0
2019/04/25 05:57:01	BASE	18.66	327	21.76	327	0.9	100	0.9	0	0	986.9	NA	0.0000		9999	1350	4890	0	0
2019/04/25 05:58:00	BASE	18.75	326	21.76	327	0.9	100	0.9	0	0	986.9	NA	0.0000		9999	4860	0	0	0
2019/04/25 05:59:00	BASE	19.00	327	21.76	327	0.9	100	0.9	0	0	986.9	NA	0.0000		9999	1480	4860	0	0
2019/04/25 06:00:00	BASE	19.06	328	21.76	327	0.9	100	0.9	0	0	987.0	NA	0.0000		9999	3410	4760	0	0
2019/04/25 06:01:00	BASE	18.65	326	21.76	327	0.9	100	0.9	0	0	987.0	NA	0.0000		9999	4530	0	0	0
2019/04/25 06:02:00	BASE	18.78	324	21.81	316	0.9	100	0.9	0	0	987.0	NA	0.0000		9999	4360	0	0	0
2019/04/25 06:03:00	BASE	18.55	326	21.81	316	0.9	100	0.9	0	0	987.1	NA	0.0000		9999	3940	0	0	0
2019/04/25 06:04:01	BASE	18.18	328	21.81	316	0.9	100	0.9	0	0	987.1	NA	0.0000		9999	3900	0	0	0
2019/04/25 06:05:00	BASE	18.46	326	21.81	316	0.9	100	0.9	0	0	987.0	NA	0.0000		9999	4230	0	0	0
2019/04/25 06:06:00	BASE	18.31	326	21.81	316	0.9	100	0.9	0	0	987.1	NA	0.0000		9999	4270	0	0	0
2019/04/25 06:07:00	BASE	18.89	325	21.81	316	0.9	100	0.9	0	0	987.0	NA	0.0000		9999	4200	0	0	0
2019/04/25 06:08:00	BASE	19.52	325	21.81	316	0.9	100	0.9	0	0	987.1	NA	0.0000		9999	4100	5150	0	0
2019/04/25 06:09:00	BASE	18.90	323	21.81	316	0.9	100	0.9	0	0	987.1	NA	0.0000		9999	4990	0	0	0
2019/04/25 06:10:00	BASE	18.74	322	21.81	316	0.9	100	0.9	0	0	987.1	NA	0.0000		9999	3900	4890	0	0
2019/04/25 06:11:00	BASE	18.55	323	21.81	316	1.0	100	1.0	0	0	987.1	NA	0.0000		9999	3740	4790	0	0
2019/04/25 06:12:00	BASE	17.81	323	21.45	325	1.0	100	1.0	0	0	987.1	NA	0.0000		9999	3670	4720	0	0
2019/04/25 06:13:00	BASE	18.73	323	21.56	320	1.0	100	1.0	0	0	987.1	NA	0.0000		9999	3610	4690	0	0
2019/04/25 06:14:00	BASE	19.86	323	21.97	327	1.0	100	1.0	0	0	987.1	NA	0.0000		9999	3580	0	0	0
2019/04/25 06:15:00	BASE	19.63	324	21.97	327	1.0	100	1.0	0	0	987.1	NA	0.0000		9999	3580	4590	0	0
2019/04/25 06:16:00	BASE	18.93	323	21.97	327	1.0	100	1.0	0	0	987.1	NA	0.0000		9999	0	0	0	1250
2019/04/25 06:17:00	BASE	19.31	323	22.64	320	1.0	100	1.0	0	0	987.1	NA	0.0000		9999	0	0	0	1250
2019/04/25 06:18:00	BASE	20.33	323	22.64	320	1.0	100	1.0	0	0	987.2	NA	0.0000		9999	5940	0	0	0
2019/04/25 06:19:00	BASE	20.33	323	22.64	320	1.0	100	1.0	0	0	987.2	NA	0.0000		9999	5120	0	0	0
2019/04/25 06:20:00	BASE	19.68	324	22.64	320	1.0	100	1.0	0	0	987.2	NA	0.0000		9999	2890	5150	0	0
2019/04/25 06:21:00	BASE	18.85	324	22.64	320	1.0	100	1.0	0	0	987.2	NA	0.0000		9999	1180	2850	0	0
2019/04/25 06:22:00	BASE	18.38	324	22.64	320	1.0	100	1.0	0	0	987.2	NA	0.0000		9999	1180	0	0	0
2019/04/25 06:23:00	BASE	18.58	323	22.64	320	1.0	100	1.0	0	0	987.2	NA	0.0000		9999	1570	2620	0	0
2019/04/25 06:24:00	BASE	18.79	322	22.64	320	1.0	100	1.0	0	0	987.2	NA	0.0000		9999	1380	0	0	0
2019/04/25 06:25:00	BASE	18.91	323	22.64	320	1.0	100	1.0	0	0	987.2	NA	0.0000		9999	1180	0	0	0
2019/04/25 06:26:00	BASE	18.65	324	22.64	320	1.0	100	1.0	0	0	987.3	NA	0.0000		9999	1120	0	0	0
2019/04/25 06:27:00	BASE	18.53	324	22.07	329	1.0	100	1.0	0	0	987.3	NA	0.0000		9999	1120	0	0	0
2019/04/25 06:28:00	BASE	18.40	323	21.14	326	1.0	100	1.0	0	0	987.3	NA	0.0000		9999	1050	0	0	0
2019/04/25 06:29:00	BASE	19.10	323	22.07	321	1.0	100	1.0	0	0	987.2	NA	0.0000		9999	980	0	0	0
2019/04/25 06:30:00	BASE	19.11	323	22.07	321	1.0	100	1.0	0	0	987.3	NA	0.0000		9999	950	0	0	0
2019/04/25 06:31:00	BASE	18.03	324	22.07	321	1.0	100	1.0	0	0	987.3	NA	0.0000		9999	950	0	0	0
2019/04/25 06:32:00	BASE	18.07	324	22.07	321	1.0	100	1.0	0	0	987.3	NA	0.0000		9999	950	0	0	0
2019/04/25 06:33:00	BASE	18.71	323	22.07	321	1.0	100	1.0	0	0	987.3	NA	0.0000		9999	950	0	0	0
2019/04/25 06:34:00	BASE	19.45	322	22.07	321	1.0	100	1.0	0	0	987.3	NA	0.0000		9999	980	0	0	0
2019/04/25 06:35:00	BASE	18.57	323	22.07	321	1.0	100	1.0	0	0	987.4	NA	0.0000		9999	980	0	0	0
2019/04/25 06:36:00	BASE	17.47	323	22.07	321	1.0	100	1.0	0	0	987.4	NA	0.0000		9999	890	0	0	0
2019/04/25 06:37:00	BASE	17.67	321	22.07	321	1.1	100	1.1	0	0	987.4	NA	0.0000		9999	890	0	0	0
2019/04/25 06:38:00	BASE	18.42	320	22.07	321	1.1	100	1.1	0	0	987.4	NA	0.0000		9999	850	0	0	0
2019/04/25 06:39:00	BASE	18.33	321	21.35	322	1.1	100	1.1	0	0	987.5	NA	0.0000		9999	850	0	0	0
2019/04/25 06:40:00	BASE	18.37	322	21.71	329	1.1	100	1.1	0	0	987.4	NA	0.0000		9999	890	0	0	0
2019/04/25 06:41:00	BASE	19.42	321	21.71	329	1.1	100	1.1	0	0	987.4	NA	0.0000		9999	890	0	0	0
2019/04/25 06:42:00	BASE	19.61	323	21.71	329	1.1	100	1.1	0	0	987.5	NA	0.0000		9999	890	0	0	0
2019/04/25 06:43:00	BASE	19.88	321	21.97	318	1.1	100	1.1	0	0	987.4	NA	0.0000		9999	890	0	0	0
2019/04/25 06:44:00	BASE	19.92	322	21.97	318	1.1	100	1.1	0	0	987.5	NA	0.0000		9999	1020	0	0	0
2019/04/25 06:45:00	BASE	19.40	324	21.97	318	1.1	100	1.1	0	0	987.5	NA	0.0000		9999	850	0	0	0
2019/04/25 06:46:00	BASE	20.47	323	23.87	326	1.1	100	1.1	0	0	987.4	NA	0.0000		9999	920	0	0	0
2019/04/25 06:47:00	BASE	20.34	323	23.87	326	1.1	100	1.1	0	0	987.6	NA	0.0000		9999	980	0	0	0
2019/04/25 06:48:00	BASE	19.10	323	23.87	326	1.1	100	1.1	0	0	987.5	NA	0.0000		9999	980	0	0	0
2019/04/25 06:49:01	BASE	19.74	321	23.87	326	1.1	100	1.1	0	0	987.5	NA	0.0000		9999	920	0	0	0
2019/04/25 06:50:00	BASE	20.23	323	23.87	326	1.1	100	1.1	0	0	987.5	NA	0.0000		9999	1050	0	0	0
2019/04/25 06:51:00	BASE	20.07	325	23.87	326	1.1	100	1.1	0	0	987.5	NA	0.0000		9999	1080	0	0	0
2019/04/25 06:52:00	BASE	20.77	326	23.87	326	1.1	100	1.1	0	0	987.4	NA	0.0000		9999	1150	0	0	0
2019/04/25 06:53:00	BASE	20.23	326	23.87	326	1.1	100	1.1	0	0	987.5	NA	0.0000		9999	1510	0	0	0
2019/04/25 06:54:00	BASE	19.62	327	23.87	326	1.1	100	1.1	0	0	987.4	NA	0.0000		9999	1050	0	0	0
2019/04/25 06:55:00	BASE	20.32	327	23.87	326	1.1	100	1.1	0	0	987.4	NA	0.0000		9999	1080	0	0	0
2019/04/25 06:56:00	BASE	20.95	326	24.23	324	1.1	100	1.1	0	0	987.4	NA	0.0000		9999	1120	0	0	0
2019/04/25 06:57:00	BASE	20.34	326	24.23	324	1.1	100	1.1	0	0	987.4	NA	0.0000		9999	1050	0	0	0
2019/04/25 06:58:00	BASE	19.46	326	24.23	324	1.1	100	1.1	0	0	987.4	NA	0.0000		9999	1250	0	0	0
2019/04/25 06:59:00	BASE	19.96	325	24.23	324	1.1	100	1.1	0	0	987.4	NA	0.0000		9999	1280	0	0	0
2019/04/25 07:00:00	BASE	19.85	325	24.23	324	1.1	100	1.1	0	0	987.5	NA	0.0000		9999	1380	0	0	0
2019/04/25 07:01:00	BASE	19.63	323	24.23	324	1.1	100	1.1	0	0	987.5	NA	0.0000		9999	5840	0	0	0
2019/04/25 07:02:00	BASE	18.67	324	24.23	324	1.1	100	1.1	0	0	987.5	NA	0.0000		9999	890	5840	0	0
2019/04/25 07:03:00	BASE	18.94	323	24.23	324	1.1	100	1.1	0	0	987.4	NA	0.0000		9999	920	5810	0	0
2019/04/25 07:04:00	BASE	19.80	323	24.23	324	1.1	100	1.1	0	0	987.4	NA	0.0000		9999	1020	0	0	0
2019/04/25 07:05:01	BASE	20.35	324	24.23	324	1.1	100	1.1	0	0	987.3	NA	0.0000		9999	950	0	0	0
2019/04/25 07:06:00	BASE	21.05	323	25.57	326	1.1	100	1.1	0	0	987.3	NA	0.0000		9999	1120	0	0	0
2019/04/25 07:07:00	BASE	21.41	325	25.57	326	1.1	100	1.1	0	0	987.3	NA	0.0000		9999	1080	5450	0	0
2019/04/25 07:08:00	BASE	22.07	324	25.57	326	1.1	100	1.1	0	0	987.3	NA	0.0000		9999	5450	0	0	0
2019/04/25 07:09:00	BASE	22.12	323	25.57	326	1.1	100	1.1	0	0	987.3	NA	0.0000		9999	5410	0	0	0
2019/04/25 07:10:00	BASE	21.96	321	25.57	326	1.1	100	1.1	0	0	987.4	NA	0.0000		9999	5410	0	0	0
2019/04/25 07:11:00	BASE	21.40	321	25.57	326	1.1	100	1.1	0	0	987.4	NA	0.0000		9999	980	5480	0	0
2019/04/25 07:12:00	BASE	21.47	324	25.57	326	1.1	100	1.1	0	0	987.4	NA	0.0000		9999	980	4330	0	0
2019/04/25 07:13:00	BASE	21.43	323	25.57	326	1.1	100	1.1	0	0	987.4	NA	0.0000		9999	4230	0	0	0
2019/04/25 07:14:00	BASE	20.61	321	25.57	326	1.1	100	1.1	0	0	987.5	NA	0.0000		9999	4360	0	0	0
2019/04/25 07:15:00	BASE	20.39	323	25.57	326	1.1	100	1.1	0	0	987.5	NA	0.0000		9999	850	5220	0	0
2019/04/25 07:16:00	BASE	21.20	323	24.74	322	1.1	100	1.1	0	0	987.5	NA	0.0000		9999	1440	5220	0	0
2019/04/25 07:17:00	BASE	21.32	323	24.74	322	1.1	100	1.1	0	0	987.6	NA	0.0000		9999	1280	5280	0	0
2019/04/25 07:18:00	BASE	20.80	323	24.74	322	1.1	100	1.1	0	0	987.6	NA	0.0000		9999	4170	5410	0	0
2019/04/25 07:19:00	BASE	20.42	324	24.74	322	1.1	100	1.1	0	0	987.6	NA	0.0000		9999	5120	0	0	0
2019/04/25 07:20:00	BASE	20.51	325	25.05	319	1.1	100	1.1	0	0	987.6	NA	0.0000		9999	1280	5380	0	0
2019/04/25 07:21:00	BASE	21.24	325	25.05	319	1.1	100	1.1	0	0	987.7	NA	0.0000		9999	1380	5480	0	0
2019/04/25 07:22:00	BASE	20.83	325	25.05	319	1.1	100	1.1	0	0	987.7	NA	0.0000		9999	1180	0	0	0
2019/04/25 07:23:00	BASE	20.59	323	25.05	319	1.1	100	1.1	0	0	987.7	NA	0.0000		9999	5740	0	0	0
2019/04/25 07:24:00	BASE	21.37	323	25.05	319	1.1	100	1.1	0	0	987.7	NA	0.0000		9999	2260	0	0	0
2019/04/25 07:25:00	BASE	21.08	324	25.05	319	1.1	100	1.1	0	0	987.8	NA	0.0000		9999	1150	2130	0	0
2019/04/25 07:26:00	BASE	20.92	323	25.05	319	1.1	100	1.1	0	0	987.8	NA	0.0000		9999	2070	0	0	0
2019/04/25 07:27:00	BASE	21.30	321	25.05	319	1.1	100	1.1	0	0	987.8	NA	0.0000		9999	1350	0	0	0
2019/04/25 07:28:00	BASE	21.21	322	25.05	319	1.1	100	1.1	0	0	987.8	NA	0.0000		9999	1710	0	0	0
2019/04/25 07:29:00	BASE	20.76	324	25.05	319	1.1	100	1.1	0	0	987.9	NA	0.0000		9999	1670	0	0	0
2019/04/25 07:30:00	BASE	19.80	324	24.23	323	1.1	100	1.1	0	0	987.9	NA	0.0000		9999	1710	0	0	0
2019/04/25 07:31:00	BASE	19.62	324	24.08	324	1.1	100	1.1	0	0	987.8	NA	0.0000		9999	1940	0	0	0
2019/04/25 07:32:00	BASE	19.73	324	23.05	320	1.1	100	1.1	0	0	987.9	NA	0.0000		9999	1940	0	0	0
2019/04/25 07:33:00	BASE	19.63	324	23.05	320	1.1	100	1.1	0	0	987.8	NA	0.0000		9999	1900	0	0	0
2019/04/25 07:34:00	BASE	19.54	322	23.05	320	1.1	100	1.1	0	0	987.8	NA	0.0000		9999	1870	2950	0	0
2019/04/25 07:35:00	BASE	19.32	322	23.05	320	1.1	100	1.1	0	0	987.9	NA	0.0000		9999	1940	0	0	0
2019/04/25 07:36:00	BASE	19.78	323	23.05	320	1.1	100	1.1	0	0	987.8	NA	0.0000		9999	1670	0	0	0
2019/04/25 07:37:00	BASE	20.41	322	22.53	323	1.1	100	1.1	0	0	987.8	NA	0.0000		9999	1670	0	0	0
2019/04/25 07:38:00	BASE	20.42	323	22.43	321	1.1	100	1.1	0	0	987.8	NA	0.0000		9999	2000	0	0	0
2019/04/25 07:39:00	BASE	20.60	323	22.74	321	1.1	100	1.1	0	0	987.8	NA	0.0000		9999	1310	2100	0	0
2019/04/25 07:40:00	BASE	20.64	323	22.94	319	1.1	100	1.1	0	0	987.8	NA	0.0000		9999	1540	2070	0	0
2019/04/25 07:41:00	BASE	20.59	323	22.94	319	1.1	100	1.1	0	0	987.8	NA	0.0000		9999	1440	2070	0	0
2019/04/25 07:42:00	BASE	19.92	323	22.94	319	1.1	100	1.1	0	0	987.8	NA	0.0000		9999	1350	1970	0	0
2019/04/25 07:43:00	BASE	19.81	325	22.94	319	1.1	100	1.1	0	0	987.8	NA	0.0000		9999	1180	0	0	0
2019/04/25 07:44:01	BASE	20.74	323	22.94	319	1.1	100	1.1	0	0	987.8	NA	0.0000		9999	390	0	0	0
2019/04/25 07:45:00	BASE	20.88	321	22.94	319	1.1	100	1.1	0	0	987.9	NA	0.0000		7000	0	0	0	1710
2019/04/25 07:46:00	BASE	20.18	320	22.94	319	1.1	100	1.1	0	0	987.9	NA	0.0000	UP	6000	0	0	0	1710
2019/04/25 07:47:00	BASE	19.35	320	22.94	319	1.1	100	1.1	0	0	987.9	NA	0.0000	UP	7000	0	0	0	1870
2019/04/25 07:48:00	BASE	18.95	321	22.94	319	1.0	100	1.0	0	0	987.9	NA	0.0000	UP	9000	0	0	0	1770
2019/04/25 07:49:00	BASE	19.29	321	22.94	319	1.0	100	1.0	0	0	987.9	NA	0.0000	UP BR	9999	330	0	0	0
2019/04/25 07:50:00	BASE	20.13	322	22.94	319	0.9	100	0.9	0	0	987.9	NA	0.0000	UP BR	9999	1120	0	0	0
2019/04/25 07:51:00	BASE	20.07	322	22.94	319	0.9	100	0.9	0	0	987.9	NA	0.0000	UP BR	9999	1180	0	0	0
2019/04/25 07:52:00	BASE	19.09	321	22.94	319	0.9	100	0.9	0	0	987.9	NA	0.0000	UP BR	9999	1050	0	0	0
2019/04/25 07:53:00	BASE	18.71	320	22.94	319	0.9	100	0.9	0	0	988.0	NA	0.0000	UP BR	9999	1150	0	0	0
2019/04/25 07:54:00	BASE	20.08	320	24.44	319	0.9	100	0.9	0	0	987.9	NA	0.0000	UP BR	9999	1080	0	0	0
2019/04/25 07:55:00	BASE	20.48	321	24.44	319	0.9	100	0.9	0	0	988.0	NA	0.0000	UP	9999	1150	0	0	0
2019/04/25 07:56:00	BASE	20.45	320	24.44	319	0.9	100	0.9	0	0	988.0	NA	0.0000	UP	9999	1120	0	0	0
2019/04/25 07:57:00	BASE	20.47	319	24.44	319	0.9	100	0.9	0	0	988.0	NA	0.0000	UP	9999	1150	0	0	0
2019/04/25 07:58:00	BASE	20.58	317	24.44	319	1.0	100	1.0	0	0	988.0	NA	0.0000	UP	9999	1020	0	0	0
2019/04/25 07:59:00	BASE	20.90	316	24.44	319	1.0	100	1.0	0	0	988.0	NA	0.0000	UP	9999	1120	0	0	0
2019/04/25 08:00:00	BASE	20.18	318	24.44	319	1.0	100	1.0	0	0	988.0	NA	0.0000	UP	9999	1080	0	0	0
2019/04/25 08:01:00	BASE	20.79	319	24.44	319	1.0	100	1.0	0	0	988.0	NA	0.0000	UP	9999	1080	0	0	0
2019/04/25 08:02:00	BASE	20.93	318	24.44	319	1.0	100	1.0	0	0	988.0	NA	0.0000	UP	9999	1050	0	0	0
2019/04/25 08:03:00	BASE	20.55	317	24.44	319	1.0	100	1.0	0	0	988.0	NA	0.0000		9999	1020	0	0	0
2019/04/25 08:04:00	BASE	21.09	317	24.33	317	1.0	100	1.0	0	0	988.0	NA	0.0000		9999	430	0	0	0
2019/04/25 08:05:00	BASE	22.00	316	25.98	311	1.0	100	1.0	0	0	988.0	NA	0.0000		9999	390	0	0	0
2019/04/25 08:06:00	BASE	21.83	314	25.98	311	1.0	100	1.0	0	0	988.1	NA	0.0000		9999	950	0	0	0
2019/04/25 08:07:00	BASE	21.12	314	25.98	311	1.0	100	1.0	0	0	988.1	NA	0.0000		9999	920	0	0	0
2019/04/25 08:08:00	BASE	21.71	316	25.98	311	1.0	100	1.0	0	0	988.0	NA	0.0000		9999	850	0	0	0
2019/04/25 08:09:00	BASE	23.19	316	26.39	318	1.0	100	1.0	0	0	988.1	NA	0.0000		9999	920	0	0	0
2019/04/25 08:10:00	BASE	23.94	313	26.39	318	1.0	100	1.0	0	0	988.0	NA	0.0000		9999	950	0	0	0
2019/04/25 08:11:00	BASE	22.49	314	26.39	318	1.0	100	1.0	0	0	988.1	NA	0.0000		9999	950	0	0	0
2019/04/25 08:12:00	BASE	21.33	316	26.39	318	1.0	100	1.0	0	0	988.1	NA	0.0000		9999	850	0	0	0
2019/04/25 08:13:00	BASE	21.28	316	26.39	318	1.0	100	1.0	0	0	988.2	NA	0.0000		9999	890	0	0	0
2019/04/25 08:14:00	BASE	20.92	316	26.39	318	1.0	100	1.0	0	0	988.2	NA	0.0000		9999	890	0	0	0
2019/04/25 08:15:00	BASE	21.60	316	26.39	318	0.9	100	0.9	0	0	988.2	NA	0.0000		9999	920	0	0	0
2019/04/25 08:16:00	BASE	21.11	316	26.39	318	0.9	100	0.9	0	0	988.2	NA	0.0000		9999	790	0	0	0
2019/04/25 08:17:00	BASE	20.49	317	26.39	318	0.9	100	0.9	0	0	988.3	NA	0.0000		9999	820	0	0	0
2019/04/25 08:18:00	BASE	21.39	318	26.39	318	0.9	100	0.9	0	0	988.3	NA	0.0000		9999	660	0	0	0
2019/04/25 08:19:00	BASE	21.48	319	25.21	313	0.9	100	0.9	0	0	988.3	NA	0.0000		9999	950	0	0	0
2019/04/25 08:20:00	BASE	20.30	317	24.64	315	0.9	100	0.9	0	0	988.3	NA	0.0000		9999	590	0	0	0
2019/04/25 08:21:00	BASE	18.62	318	24.64	315	0.9	100	0.9	0	0	988.3	NA	0.0000		9999	590	1310	0	0
2019/04/25 08:22:00	BASE	19.57	318	24.64	315	0.8	100	0.8	0	0	988.3	NA	0.0000		9999	790	0	0	0
2019/04/25 08:23:00	BASE	20.22	319	24.64	315	0.8	100	0.8	0	0	988.3	NA	0.0000		9999	1050	0	0	0
2019/04/25 08:24:00	BASE	19.15	320	24.64	315	0.8	100	0.8	0	0	988.3	NA	0.0000		9999	1310	0	0	0
2019/04/25 08:25:00	BASE	19.93	321	24.59	318	0.8	100	0.8	0	0	988.3	NA	0.0000		9999	1080	0	0	0
2019/04/25 08:26:00	BASE	21.38	320	24.59	318	0.8	100	0.8	0	0	988.3	NA	0.0000		9999	1020	0	0	0
2019/04/25 08:27:00	BASE	20.83	320	24.59	318	0.8	100	0.8	0	0	988.4	NA	0.0000		9999	950	0	0	0
2019/04/25 08:28:00	BASE	20.56	320	24.59	318	0.8	100	0.8	0	0	988.3	NA	0.0000		9999	1080	0	0	0
2019/04/25 08:29:00	BASE	20.18	319	23.72	315	0.8	100	0.8	0	0	988.4	NA	0.0000		9999	1050	0	0	0
2019/04/25 08:30:00	BASE	20.10	320	23.72	315	0.8	100	0.8	0	0	988.4	NA	0.0000		9999	850	0	0	0
2019/04/25 08:31:00	BASE	20.19	320	23.72	315	0.8	100	0.8	0	0	988.5	NA	0.0000		9999	1080	0	0	0
2019/04/25 08:32:00	BASE	19.45	320	23.72	315	0.8	100	0.8	0	0	988.5	NA	0.0000		9999	980	0	0	0
2019/04/25 08:33:00	BASE	19.77	319	23.72	315	0.8	100	0.8	0	0	988.5	NA	0.0000		9999	1380	0	0	0
2019/04/25 08:34:00	BASE	20.26	318	23.72	315	0.8	100	0.8	0	0	988.5	NA	0.0000		9999	2100	0	0	0
2019/04/25 08:35:00	BASE	19.44	319	23.72	315	0.9	100	0.9	0	0	988.6	NA	0.0000		9999	1640	2590	0	0
2019/04/25 08:36:00	BASE	19.31	319	23.41	318	0.8	100	0.8	0	0	988.6	NA	0.0000		9999	1510	2620	0	0
2019/04/25 08:37:00	BASE	19.18	320	23.41	318	0.9	100	0.9	0	0	988.7	NA	0.0000		9999	2720	3380	0	0
2019/04/25 08:38:00	BASE	18.72	322	23.20	316	0.9	100	0.9	0	0	988.7	NA	0.0000		9999	3020	0	0	0
2019/04/25 08:39:00	BASE	19.17	321	23.20	316	0.9	100	0.9	0	0	988.7	NA	0.0000		9999	1350	0	0	0
2019/04/25 08:40:00	BASE	19.30	320	22.02	318	0.9	100	0.9	0	0	988.8	NA	0.0000		9999	1410	0	0	0
2019/04/25 08:41:00	BASE	19.07	319	22.02	318	0.9	100	0.9	0	0	988.8	NA	0.0000		9999	1380	3050	0	0
2019/04/25 08:42:00	BASE	18.89	319	22.02	318	0.9	100	0.9	0	0	988.8	NA	0.0000		9999	1410	0	0	0
2019/04/25 08:43:00	BASE	19.27	320	22.02	318	0.9	100	0.9	0	0	988.9	NA	0.0000		9999	1670	0	0	0
2019/04/25 08:44:00	BASE	18.91	321	21.66	325	0.9	100	0.9	0	0	988.9	NA	0.0000		9999	2790	0	0	0
2019/04/25 08:45:00	BASE	18.52	321	21.66	325	0.9	100	0.9	0	0	988.9	NA	0.0000		9999	1740	0	0	0
2019/04/25 08:46:00	BASE	18.49	320	21.66	325	0.9	100	0.9	0	0	988.9	NA	0.0000		9999	1640	2890	0	0
2019/04/25 08:47:00	BASE	18.76	319	21.66	325	0.9	100	0.9	0	0	989.0	NA	0.0000		9999	1800	0	0	0
2019/04/25 08:48:00	BASE	19.29	319	21.66	325	0.9	100	0.9	0	0	989.0	NA	0.0000		9999	1480	0	0	0
2019/04/25 08:49:00	BASE	18.64	318	21.66	325	0.9	100	0.9	0	0	989.0	NA	0.0000		9999	1640	0	0	0
2019/04/25 08:50:00	BASE	18.14	317	21.66	325	0.9	100	0.9	0	0	989.0	NA	0.0000		9999	1410	0	0	0
2019/04/25 08:51:00	BASE	19.04	319	21.66	325	0.9	100	0.9	0	0	989.0	NA	0.0000		9999	1510	2490	0	0
2019/04/25 08:52:00	BASE	18.74	320	21.66	325	0.9	100	0.9	0	0	989.1	NA	0.0000		9999	1310	0	0	0
2019/04/25 08:53:00	BASE	17.93	319	21.61	320	0.9	100	0.9	0	0	989.1	NA	0.0000		9999	1380	2590	0	0
2019/04/25 08:54:00	BASE	17.95	319	21.61	314	0.9	100	0.9	0	0	989.1	NA	0.0000		9999	2560	0	0	0
2019/04/25 08:55:00	BASE	18.64	319	21.61	314	1.0	100	1.0	0	0	989.1	NA	0.0000		9999	2720	0	0	0
2019/04/25 08:56:00	BASE	18.79	319	22.89	318	1.0	100	1.0	0	0	989.1	NA	0.0000		9999	2690	0	0	0
2019/04/25 08:57:00	BASE	18.59	320	22.89	318	1.0	100	1.0	0	0	989.1	NA	0.0000		9999	2790	0	0	0
2019/04/25 08:58:00	BASE	18.93	319	22.89	318	1.0	100	1.0	0	0	989.1	NA	0.0000		9999	2920	0	0	0
2019/04/25 08:59:00	BASE	19.19	318	22.89	318	1.0	100	1.0	0	0	989.1	NA	0.0000		9999	3280	0	0	0
2019/04/25 09:00:00	BASE	19.36	318	22.89	318	1.0	100	1.0	0	0	989.1	NA	0.0000		9999	3940	0	0	0
2019/04/25 09:01:00	BASE	18.96	320	22.89	318	1.0	100	1.0	0	0	989.1	NA	0.0000		9999	4040	0	0	0
2019/04/25 09:02:00	BASE	18.90	321	22.89	318	1.0	100	1.0	0	0	989.1	NA	0.0000		9999	3870	0	0	0
2019/04/25 09:03:00	BASE	19.27	321	22.89	318	1.0	100	1.0	0	0	989.1	NA	0.0000		9999	3940	0	0	0
2019/04/25 09:04:00	BASE	19.18	320	22.89	318	1.0	100	1.0	0	0	989.2	NA	0.0000		9999	3740	0	0	0
2019/04/25 09:05:00	BASE	18.92	321	22.89	318	1.0	100	1.0	0	0	989.2	NA	0.0000		9999	1770	0	0	0
2019/04/25 09:06:00	BASE	19.20	322	21.86	316	1.0	100	1.0	0	0	989.2	NA	0.0000		9999	2030	4130	0	0
2019/04/25 09:07:00	BASE	19.70	322	22.84	315	1.0	100	1.0	0	0	989.2	NA	0.0000		9999	1900	4300	0	0
2019/04/25 09:08:00	BASE	20.13	324	22.84	315	1.0	100	1.0	0	0	989.2	NA	0.0000		9999	1710	0	0	0
2019/04/25 09:09:00	BASE	19.66	322	22.84	315	1.0	100	1.0	0	0	989.2	NA	0.0000		9999	1670	0	0	0
2019/04/25 09:10:00	BASE	19.75	319	22.94	316	1.1	100	1.1	0	0	989.2	NA	0.0000		9999	1640	0	0	0
2019/04/25 09:11:00	BASE	20.49	319	22.94	316	1.1	100	1.1	0	0	989.2	NA	0.0000		9999	1540	0	0	0
2019/04/25 09:12:00	BASE	20.33	319	22.94	316	1.1	100	1.1	0	0	989.3	NA	0.0000		9999	1510	0	0	0
2019/04/25 09:13:00	BASE	19.55	319	22.94	316	1.1	100	1.1	0	0	989.4	NA	0.0000		9999	1670	0	0	0
2019/04/25 09:14:00	BASE	18.99	319	22.94	316	1.1	100	1.1	0	0	989.3	NA	0.0000		9999	1540	0	0	0
2019/04/25 09:15:00	BASE	19.43	319	22.94	316	1.1	100	1.1	0	0	989.4	NA	0.0000		9999	1480	0	0	0
2019/04/25 09:16:00	BASE	19.72	319	22.94	316	1.1	100	1.1	0	0	989.4	NA	0.0000		9999	1510	0	0	0
2019/04/25 09:17:00	BASE	19.42	319	22.94	316	1.1	100	1.1	0	0	989.4	NA	0.0000		9999	1440	0	0	0
2019/04/25 09:18:00	BASE	18.73	320	22.94	316	1.1	100	1.1	0	0	989.5	NA	0.0000		9999	1410	0	0	0
2019/04/25 09:19:00	BASE	19.75	323	23.10	321	1.1	100	1.1	0	0	989.3	NA	0.0000		9999	1570	0	0	0
2019/04/25 09:20:00	BASE	20.23	322	23.10	321	1.1	100	1.1	0	0	989.4	NA	0.0000		9999	1410	0	0	0
2019/04/25 09:21:00	BASE	19.76	320	23.10	321	1.1	100	1.1	0	0	989.4	NA	0.0000		9999	1350	0	0	0
2019/04/25 09:22:00	BASE	21.13	320	24.28	318	1.1	100	1.1	0	0	989.3	NA	0.0000		9999	1310	0	0	0
2019/04/25 09:23:00	BASE	21.24	321	24.28	318	1.1	100	1.1	0	0	989.4	NA	0.0000		9999	1540	0	0	0
2019/04/25 09:24:00	BASE	21.76	321	25.31	318	1.1	100	1.1	0	0	989.4	NA	0.0000		9999	1410	5090	0	0
2019/04/25 09:25:00	BASE	22.23	321	25.31	318	1.1	100	1.1	0	0	989.4	NA	0.0000		9999	1710	4890	0	0
2019/04/25 09:26:00	BASE	21.29	321	25.31	318	1.1	100	1.1	0	0	989.4	NA	0.0000		9999	1540	4790	0	0
2019/04/25 09:27:00	BASE	22.00	320	25.31	318	1.1	100	1.1	0	0	989.4	NA	0.0000		9999	4820	0	0	0
2019/04/25 09:28:00	BASE	22.53	321	25.31	318	1.2	100	1.2	0	0	989.4	NA	0.0000		9999	4820	0	0	0
2019/04/25 09:29:00	BASE	22.38	318	25.31	318	1.2	100	1.2	0	0	989.4	NA	0.0000		9999	1480	4660	0	0
2019/04/25 09:30:00	BASE	21.14	319	25.31	318	1.2	100	1.2	0	0	989.5	NA	0.0000		9999	4690	0	0	0
2019/04/25 09:31:00	BASE	20.98	319	25.31	318	1.2	100	1.2	0	0	989.5	NA	0.0000		9999	1540	4820	0	0
2019/04/25 09:32:00	BASE	22.24	317	25.62	316	1.2	100	1.2	0	0	989.5	NA	0.0000		9999	4760	0	0	0
2019/04/25 09:33:00	BASE	21.45	318	25.62	316	1.2	100	1.2	0	0	989.5	NA	0.0000		9999	4760	0	0	0
2019/04/25 09:34:00	BASE	20.19	321	25.62	316	1.2	100	1.2	0	0	989.5	NA	0.0000		9999	4820	0	0	0
2019/04/25 09:35:00	BASE	20.73	320	25.62	316	1.2	100	1.2	0	0	989.5	NA	0.0000		9999	4760	0	0	0
2019/04/25 09:36:00	BASE	21.12	319	25.62	316	1.2	100	1.2	0	0	989.5	NA	0.0000		9999	3150	4860	0	0
2019/04/25 09:37:00	BASE	20.65	319	25.62	316	1.2	100	1.2	0	0	989.5	NA	0.0000		9999	4820	0	0	0
2019/04/25 09:38:00	BASE	21.41	319	25.62	316	1.2	100	1.2	0	0	989.5	NA	0.0000		9999	3180	4790	0	0
2019/04/25 09:39:00	BASE	21.38	320	25.62	316	1.2	100	1.2	0	0	989.5	NA	0.0000		9999	4760	0	0	0
2019/04/25 09:40:00	BASE	20.61	319	25.62	316	1.2	100	1.2	0	0	989.6	NA	0.0000		9999	4760	0	0	0
2019/04/25 09:41:00	BASE	20.44	317	25.62	316	1.2	100	1.2	0	0	989.6	NA	0.0000		9999	3220	4920	0	0
2019/04/25 09:42:00	BASE	21.22	317	24.44	328	1.2	100	1.2	0	0	989.6	NA	0.0000		9999	4760	0	0	0
2019/04/25 09:43:00	BASE	21.46	317	25.41	310	1.2	100	1.2	0	0	989.6	NA	0.0000		9999	2890	4790	0	0
2019/04/25 09:44:00	BASE	21.39	316	25.41	310	1.2	100	1.2	0	0	989.6	NA	0.0000		9999	3580	4920	0	0
2019/04/25 09:45:00	BASE	21.00	317	25.41	310	1.2	100	1.2	0	0	989.7	NA	0.0000		9999	2920	0	0	0
2019/04/25 09:46:00	BASE	19.90	318	25.41	310	1.2	100	1.2	0	0	989.7	NA	0.0000		9999	2990	4490	0	0
2019/04/25 09:47:00	BASE	20.66	315	25.41	310	1.2	100	1.2	0	0	989.7	NA	0.0000		9999	3540	0	0	0
2019/04/25 09:48:00	BASE	21.61	313	25.41	310	1.2	100	1.2	0	0	989.7	NA	0.0000		9999	3080	0	0	0
2019/04/25 09:49:00	BASE	21.75	314	25.41	310	1.2	100	1.2	0	0	989.7	NA	0.0000		9999	3180	0	0	0
2019/04/25 09:50:00	BASE	22.09	315	25.41	310	1.2	100	1.2	0	0	989.7	NA	0.0000		9999	3220	0	0	0
2019/04/25 09:51:00	BASE	20.76	316	25.41	310	1.2	100	1.2	0	0	989.7	NA	0.0000		9999	3280	0	0	0
2019/04/25 09:52:00	BASE	19.92	318	25.41	310	1.2	100	1.2	0	0	989.7	NA	0.0000		9999	3350	0	0	0
2019/04/25 09:53:00	BASE	19.81	318	24.69	307	1.2	100	1.2	0	0	989.8	NA	0.0000		9999	4590	0	0	0
2019/04/25 09:54:00	BASE	19.39	318	24.69	307	1.2	100	1.2	0	0	989.8	NA	0.0000		9999	4530	0	0	0
2019/04/25 09:55:00	BASE	20.39	318	24.69	307	1.2	100	1.2	0	0	989.7	NA	0.0000		9999	3450	0	0	0
2019/04/25 09:56:00	BASE	20.07	319	24.69	307	1.2	100	1.2	0	0	989.8	NA	0.0000		9999	3410	0	0	0
2019/04/25 09:57:00	BASE	20.26	318	24.69	307	1.2	100	1.2	0	0	989.8	NA	0.0000		9999	3640	0	0	0
2019/04/25 09:58:00	BASE	20.73	319	24.69	307	1.2	100	1.2	0	0	989.9	NA	0.0000		9999	3580	0	0	0
2019/04/25 09:59:00	BASE	19.71	319	24.69	307	1.2	100	1.2	0	0	989.9	NA	0.0000		9999	2400	0	0	0
2019/04/25 10:00:00	BASE	19.85	319	23.61	316	1.2	100	1.2	0	0	989.9	NA	0.0000		9999	1940	0	0	0
2019/04/25 10:01:00	BASE	19.78	322	23.61	316	1.2	100	1.2	0	0	989.9	NA	0.0000		9999	2000	0	0	0
2019/04/25 10:02:00	BASE	20.00	322	23.87	319	1.2	100	1.2	0	0	989.9	NA	0.0000		9999	1800	0	0	0
2019/04/25 10:03:00	BASE	21.04	321	23.87	308	1.2	100	1.2	0	0	990.0	NA	0.0000		9999	2200	0	0	0
2019/04/25 10:04:00	BASE	20.86	320	23.87	308	1.2	100	1.2	0	0	990.0	NA	0.0000		9999	1940	0	0	0
2019/04/25 10:05:00	BASE	20.31	320	23.87	308	1.2	100	1.2	0	0	990.1	NA	0.0000		9999	4630	0	0	0
2019/04/25 10:06:00	BASE	20.56	320	23.87	308	1.2	100	1.2	0	0	990.1	NA	0.0000		9999	4040	0	0	0
2019/04/25 10:07:00	BASE	20.70	319	23.87	308	1.2	100	1.2	0	0	990.1	NA	0.0000		9999	2100	0	0	0
2019/04/25 10:08:00	BASE	20.36	319	23.87	308	1.2	100	1.2	0	0	990.2	NA	0.0000		9999	1800	0	0	0
2019/04/25 10:09:00	BASE	19.64	317	23.87	308	1.2	100	1.2	0	0	990.2	NA	0.0000		9999	1770	0	0	0
2019/04/25 10:10:00	BASE	19.17	317	23.87	308	1.2	100	1.2	0	0	990.2	NA	0.0000		9999	1740	0	0	0
2019/04/25 10:11:00	BASE	19.68	318	23.87	308	1.2	100	1.2	0	0	990.2	NA	0.0000		9999	1640	0	0	0
2019/04/25 10:12:00	BASE	19.78	317	23.87	308	1.2	100	1.2	0	0	990.2	NA	0.0000		9999	1510	0	0	0
2019/04/25 10:13:00	BASE	19.92	316	23.10	323	1.2	100	1.2	0	0	990.2	NA	0.0000		9999	1380	0	0	0
2019/04/25 10:14:00	BASE	20.32	318	22.38	318	1.2	100	1.2	0	0	990.2	NA	0.0000		9999	1350	0	0	0
2019/04/25 10:15:00	BASE	21.68	319	25.46	322	1.2	100	1.2	0	0	990.2	NA	0.0000		9999	1250	0	0	0
2019/04/25 10:16:00	BASE	21.77	319	25.46	322	1.2	100	1.2	0	0	990.3	NA	0.0000		9999	1350	0	0	0
2019/04/25 10:17:00	BASE	21.69	318	25.46	322	1.2	100	1.2	0	0	990.3	NA	0.0000		9999	1350	0	0	0
2019/04/25 10:18:00	BASE	22.59	316	25.46	322	1.3	100	1.3	0	0	990.3	NA	0.0000		9999	1350	0	0	0
2019/04/25 10:19:00	BASE	21.62	314	25.46	322	1.3	100	1.3	0	0	990.4	NA	0.0000		9999	920	0	0	0
2019/04/25 10:20:00	BASE	20.77	314	25.46	322	1.3	100	1.3	0	0	990.4	NA	0.0000		9999	1380	0	0	0
2019/04/25 10:21:00	BASE	20.96	315	25.46	322	1.3	100	1.3	0	0	990.4	NA	0.0000		9999	1480	3220	0	0
2019/04/25 10:22:00	BASE	21.19	316	25.46	322	1.3	100	1.3	0	0	990.4	NA	0.0000		9999	1510	0	0	0
2019/04/25 10:23:00	BASE	21.07	318	25.46	322	1.3	100	1.3	0	0	990.4	NA	0.0000		9999	1480	0	0	0
2019/04/25 10:24:00	BASE	21.94	318	25.46	322	1.3	100	1.3	0	0	990.4	NA	0.0000		9999	4100	0	0	0
2019/04/25 10:25:00	BASE	21.93	316	25.10	324	1.3	100	1.3	0	0	990.4	NA	0.0000		9999	4690	0	0	0
2019/04/25 10:26:00	BASE	21.49	316	25.10	324	1.3	100	1.3	0	0	990.4	NA	0.0000		9999	1410	0	0	0
2019/04/25 10:27:00	BASE	21.18	318	25.10	324	1.3	100	1.3	0	0	990.5	NA	0.0000		9999	1440	0	0	0
2019/04/25 10:28:00	BASE	19.80	319	25.10	324	1.3	100	1.3	0	0	990.5	NA	0.0000		9999	1480	0	0	0
2019/04/25 10:29:00	BASE	19.79	318	25.10	324	1.3	100	1.3	0	0	990.5	NA	0.0000		9999	1410	4990	0	0
2019/04/25 10:30:00	BASE	20.86	316	25.10	324	1.3	100	1.3	0	0	990.5	NA	0.0000		9999	1510	5020	0	0
2019/04/25 10:31:00	BASE	20.89	317	25.10	324	1.3	100	1.3	0	0	990.6	NA	0.0000		9999	1740	4560	0	0
2019/04/25 10:32:00	BASE	21.97	318	25.10	324	1.3	100	1.3	0	0	990.5	NA	0.0000		9999	1440	4660	0	0
2019/04/25 10:33:00	BASE	23.28	315	25.10	324	1.3	100	1.3	0	0	990.5	NA	0.0000		9999	1640	4530	0	0
2019/04/25 10:34:00	BASE	22.36	314	25.00	311	1.3	100	1.3	0	0	990.5	NA	0.0000		9999	4720	0	0	0
2019/04/25 10:35:00	BASE	22.78	314	26.70	308	1.3	100	1.3	0	0	990.5	NA	0.0000		9999	4950	0	0	0
2019/04/25 10:36:00	BASE	22.88	313	26.70	308	1.3	100	1.3	0	0	990.6	NA	0.0000		9999	5120	0	0	0
2019/04/25 10:37:00	BASE	21.87	313	26.70	308	1.3	100	1.3	0	0	990.6	NA	0.0000		9999	4790	0	0	0
2019/04/25 10:38:00	BASE	21.31	316	26.70	308	1.3	100	1.3	0	0	990.7	NA	0.0000		9999	4720	0	0	0
2019/04/25 10:39:00	BASE	20.49	316	26.70	308	1.3	100	1.3	0	0	990.7	NA	0.0000		9999	5090	0	0	0
2019/04/25 10:40:00	BASE	20.71	314	26.70	308	1.3	100	1.3	0	0	990.7	NA	0.0000		9999	5020	0	0	0
2019/04/25 10:41:00	BASE	21.72	314	26.70	308	1.3	100	1.3	0	0	990.8	NA	0.0000		9999	5180	0	0	0
2019/04/25 10:42:00	BASE	21.06	314	26.70	308	1.3	100	1.3	0	0	990.8	NA	0.0000		9999	5180	0	0	0
2019/04/25 10:43:00	BASE	20.53	314	26.70	308	1.3	100	1.3	0	0	990.8	NA	0.0000		9999	4990	0	0	0
2019/04/25 10:44:00	BASE	21.15	313	26.70	308	1.3	100	1.3	0	0	990.9	NA	0.0000		9999	1670	5050	0	0
2019/04/25 10:45:00	BASE	20.89	316	25.41	312	1.3	100	1.3	0	0	990.9	NA	0.0000		9999	1540	5180	0	0
2019/04/25 10:46:00	BASE	20.33	316	24.38	314	1.3	100	1.3	0	0	991.0	NA	0.0000		9999	1440	5090	0	0
2019/04/25 10:47:00	BASE	20.09	314	23.46	313	1.3	100	1.3	0	0	990.9	NA	0.0000		9999	4860	0	0	0
2019/04/25 10:48:00	BASE	19.36	315	23.46	313	1.2	100	1.2	0	0	991.0	NA	0.0000		9999	1900	5180	0	0
2019/04/25 10:49:00	BASE	18.78	316	23.46	313	1.2	100	1.2	0	0	991.0	NA	0.0000		9999	1570	0	0	0
2019/04/25 10:50:00	BASE	18.82	317	23.46	313	1.2	100	1.2	0	0	991.1	NA	0.0000		9999	1510	0	0	0
2019/04/25 10:51:00	BASE	19.04	315	23.46	313	1.2	100	1.2	0	0	991.1	NA	0.0000		9999	1380	1970	0	0
2019/04/25 10:52:00	BASE	19.74	316	23.46	313	1.2	100	1.2	0	0	991.1	NA	0.0000		9999	1840	0	0	0
2019/04/25 10:53:00	BASE	19.31	318	22.38	313	1.2	100	1.2	0	0	991.2	NA	0.0000		9999	1770	0	0	0
2019/04/25 10:54:00	BASE	18.67	317	22.38	313	1.2	100	1.2	0	0	991.2	NA	0.0000		9999	1610	3810	0	0
2019/04/25 10:55:00	BASE	19.39	317	22.38	313	1.2	100	1.2	0	0	991.2	NA	0.0000		9999	1710	3770	0	0
2019/04/25 10:56:00	BASE	19.42	316	22.38	313	1.2	100	1.2	0	0	991.3	NA	0.0000		9999	1670	0	0	0
2019/04/25 10:57:00	BASE	19.49	315	22.43	316	1.2	100	1.2	0	0	991.2	NA	0.0000		9999	1570	0	0	0
2019/04/25 10:58:00	BASE	19.98	316	22.43	316	1.2	100	1.2	0	0	991.3	NA	0.0000		9999	1440	2200	0	0
2019/04/25 10:59:00	BASE	20.05	316	23.46	321	1.2	100	1.2	0	0	991.3	NA	0.0000		9999	1740	0	0	0
2019/04/25 11:00:00	BASE	19.35	318	23.46	321	1.2	100	1.2	0	0	991.3	NA	0.0000		9999	1770	0	0	0
2019/04/25 11:01:00	BASE	18.44	318	23.46	321	1.2	100	1.2	0	0	991.4	NA	0.0000		9999	1870	0	0	0
2019/04/25 11:02:00	BASE	19.02	318	23.46	321	1.2	100	1.2	0	0	991.4	NA	0.0000		9999	1900	0	0	0
2019/04/25 11:03:00	BASE	19.17	318	23.46	321	1.2	100	1.2	0	0	991.4	NA	0.0000		9999	1740	0	0	0
2019/04/25 11:04:00	BASE	18.89	318	23.46	321	1.1	100	1.1	0	0	991.4	NA	0.0000		9999	1800	0	0	0
2019/04/25 11:05:00	BASE	18.48	318	23.46	321	1.1	100	1.1	0	0	991.4	NA	0.0000		9999	1710	0	0	0
2019/04/25 11:06:00	BASE	18.16	319	23.46	321	1.1	100	1.1	0	0	991.4	NA	0.0000		9999	1770	0	0	0
2019/04/25 11:07:00	BASE	19.55	319	23.46	321	1.1	100	1.1	0	0	991.3	NA	0.0000		9999	1900	0	0	0
2019/04/25 11:08:00	BASE	21.40	317	23.61	304	1.1	100	1.1	0	0	991.2	NA	0.0000		9999	2070	0	0	0
2019/04/25 11:09:00	BASE	20.78	315	23.61	304	1.1	100	1.1	0	0	991.4	NA	0.0000		9999	2030	0	0	0
2019/04/25 11:10:00	BASE	19.15	317	23.61	304	1.1	100	1.1	0	0	991.4	NA	0.0000		9999	2070	0	0	0
2019/04/25 11:11:00	BASE	18.77	316	23.61	304	1.2	100	1.2	0	0	991.4	NA	0.0000		9999	2130	0	0	0
2019/04/25 11:12:00	BASE	19.43	316	23.61	304	1.2	100	1.2	0	0	991.4	NA	0.0000		9999	2170	0	0	0
2019/04/25 11:13:00	BASE	20.70	316	23.61	304	1.2	100	1.2	0	0	991.4	NA	0.0000		9999	1970	0	0	0
2019/04/25 11:14:00	BASE	21.57	316	24.90	320	1.2	100	1.2	0	0	991.4	NA	0.0000		9999	2200	0	0	0
2019/04/25 11:15:00	BASE	20.71	316	24.90	320	1.2	100	1.2	0	0	991.5	NA	0.0000		9999	2200	0	0	0
2019/04/25 11:16:00	BASE	18.24	317	24.90	320	1.2	100	1.2	0	0	991.5	NA	0.0000		9999	2400	4170	0	0
2019/04/25 11:17:00	BASE	17.05	319	24.90	320	1.2	100	1.2	0	0	991.5	NA	0.0000		9999	2460	0	0	0
2019/04/25 11:18:00	BASE	18.52	319	24.90	320	1.2	100	1.2	0	0	991.5	NA	0.0000		9999	2130	0	0	0
2019/04/25 11:19:00	BASE	19.01	319	24.90	320	1.2	100	1.2	0	0	991.6	NA	0.0000		9999	2130	0	0	0
2019/04/25 11:20:00	BASE	18.22	319	24.90	320	1.2	100	1.2	0	0	991.6	NA	0.0000		9999	3080	0	0	0
2019/04/25 11:21:00	BASE	18.97	319	24.90	320	1.1	100	1.1	0	0	991.6	NA	0.0000		9999	2070	0	0	0
2019/04/25 11:22:00	BASE	19.30	320	24.90	320	1.2	100	1.2	0	0	991.6	NA	0.0000		9999	2100	0	0	0
2019/04/25 11:23:00	BASE	18.75	321	24.90	320	1.2	100	1.2	0	0	991.6	NA	0.0000		9999	2070	0	0	0
2019/04/25 11:24:00	BASE	18.56	322	23.20	323	1.2	100	1.2	0	0	991.7	NA	0.0000		9999	2170	0	0	0
2019/04/25 11:25:00	BASE	18.07	319	23.20	323	1.2	100	1.2	0	0	991.7	NA	0.0000		9999	2300	0	0	0
2019/04/25 11:26:00	BASE	17.52	319	23.20	323	1.2	100	1.2	0	0	991.8	NA	0.0000		9999	2000	0	0	0
2019/04/25 11:27:00	BASE	17.35	319	23.20	323	1.2	100	1.2	0	0	991.8	NA	0.0000		9999	1940	0	0	0
2019/04/25 11:28:00	BASE	17.69	319	23.20	323	1.2	100	1.2	0	0	991.9	NA	0.0000		9999	2030	0	0	0
2019/04/25 11:29:00	BASE	17.94	319	23.20	323	1.2	100	1.2	0	0	991.9	NA	0.0000		9999	2170	0	0	0
2019/04/25 11:30:00	BASE	17.88	319	23.20	323	1.2	100	1.2	0	0	991.9	NA	0.0000		9999	1940	0	0	0
2019/04/25 11:31:00	BASE	17.92	319	21.71	313	1.2	100	1.2	0	0	992.0	NA	0.0000		9999	1940	0	0	0
2019/04/25 11:32:00	BASE	18.06	319	21.20	314	1.2	100	1.2	0	0	992.0	NA	0.0000		9999	1940	0	0	0
2019/04/25 11:33:00	BASE	17.37	319	21.20	314	1.2	100	1.2	0	0	992.1	NA	0.0000		9999	1800	0	0	0
2019/04/25 11:34:00	BASE	17.06	320	21.14	321	1.2	100	1.2	0	0	992.1	NA	0.0000		9999	1900	0	0	0
2019/04/25 11:35:00	BASE	17.49	320	20.37	314	1.2	100	1.2	0	0	992.1	NA	0.0000		9999	1740	0	0	0
2019/04/25 11:36:00	BASE	17.55	320	20.37	314	1.2	100	1.2	0	0	992.1	NA	0.0000		9999	1940	0	0	0
2019/04/25 11:37:00	BASE	17.76	321	20.37	314	1.2	100	1.2	0	0	992.2	NA	0.0000		9999	2030	0	0	0
2019/04/25 11:38:00	BASE	17.76	320	20.99	322	1.2	100	1.2	0	0	992.2	NA	0.0000		9999	1970	0	0	0
2019/04/25 11:39:00	BASE	17.59	318	20.99	322	1.2	100	1.2	0	0	992.2	NA	0.0000		9999	1870	0	0	0
2019/04/25 11:40:00	BASE	17.53	316	20.99	322	1.2	100	1.2	0	0	992.2	NA	0.0000		9999	1770	0	0	0
2019/04/25 11:41:00	BASE	16.87	316	20.99	322	1.2	100	1.2	0	0	992.3	NA	0.0000		9999	1740	0	0	0
2019/04/25 11:42:00	BASE	16.26	319	20.99	322	1.2	100	1.2	0	0	992.3	NA	0.0000		9999	1640	0	0	0
2019/04/25 11:43:00	BASE	16.59	321	20.99	322	1.2	100	1.2	0	0	992.3	NA	0.0000		9999	1610	0	0	0
2019/04/25 11:44:00	BASE	16.53	322	20.99	322	1.2	100	1.2	0	0	992.3	NA	0.0000		9999	1540	0	0	0
2019/04/25 11:45:00	BASE	16.64	320	20.99	322	1.2	100	1.2	0	0	992.3	NA	0.0000		9999	1740	0	0	0
2019/04/25 11:46:00	BASE	16.86	318	20.99	322	1.2	100	1.2	0	0	992.3	NA	0.0000		9999	1640	0	0	0
2019/04/25 11:47:00	BASE	17.08	317	21.35	306	1.2	100	1.2	0	0	992.3	NA	0.0000		9999	1640	0	0	0
2019/04/25 11:48:00	BASE	17.10	319	21.35	306	1.2	100	1.2	0	0	992.3	NA	0.0000		9999	1610	2330	0	0
2019/04/25 11:49:00	BASE	17.74	319	21.35	306	1.2	100	1.2	0	0	992.2	NA	0.0000		9999	1570	2170	0	0
2019/04/25 11:50:00	BASE	19.87	315	21.97	311	1.2	100	1.2	1	0	992.3	NA	0.0000		9999	1900	0	0	0
2019/04/25 11:51:00	BASE	19.92	312	21.97	311	1.2	100	1.2	1	0	992.3	NA	0.0000		9999	1640	0	0	0
2019/04/25 11:52:00	BASE	18.97	313	21.97	311	1.2	100	1.2	1	0	992.3	NA	0.0000		9999	1480	2260	0	0
2019/04/25 11:53:00	BASE	19.06	314	21.97	311	1.3	100	1.3	1	0	992.3	NA	0.0000		9999	1480	0	0	0
2019/04/25 11:54:00	BASE	17.97	312	21.97	311	1.3	100	1.3	1	0	992.4	NA	0.0000		9999	1350	0	0	0
2019/04/25 11:55:00	BASE	17.19	313	21.97	311	1.3	100	1.3	1	0	992.4	NA	0.0000		9999	1350	0	0	0
2019/04/25 11:56:00	BASE	17.77	313	21.97	311	1.3	100	1.3	1	0	992.4	NA	0.0000		9999	1310	0	0	0
2019/04/25 11:57:00	BASE	17.24	312	21.97	311	1.3	100	1.3	1	0	992.4	NA	0.0000		9999	1440	0	0	0
2019/04/25 11:58:00	BASE	17.97	313	21.97	311	1.3	100	1.3	1	0	992.4	NA	0.0000		9999	2070	0	0	0
2019/04/25 11:59:00	BASE	18.74	314	21.97	311	1.3	100	1.3	1	0	992.4	NA	0.0000		9999	2100	0	0	0
2019/04/25 12:00:00	BASE	18.10	314	21.30	312	1.3	100	1.3	1	0	992.4	NA	0.0000		9999	1480	2130	0	0
2019/04/25 12:01:00	BASE	19.69	312	22.74	315	1.2	100	1.2	1	0	992.4	NA	0.0000		9999	2130	0	0	0
2019/04/25 12:02:00	BASE	19.82	312	22.74	315	1.2	100	1.2	1	0	992.5	NA	0.0000		9999	2170	0	0	0
2019/04/25 12:03:00	BASE	19.01	313	22.74	315	1.2	100	1.2	2	0	992.6	NA	0.0000		9999	1570	0	0	0
2019/04/25 12:04:00	BASE	19.03	313	22.74	315	1.2	100	1.2	2	0	992.6	NA	0.0000		9999	2100	0	0	0
2019/04/25 12:05:00	BASE	18.16	313	22.74	315	1.2	100	1.2	2	0	992.7	NA	0.0000		9999	2170	0	0	0
2019/04/25 12:06:00	BASE	18.20	313	22.74	315	1.2	100	1.2	2	0	992.6	NA	0.0000		9999	2100	0	0	0
2019/04/25 12:07:00	BASE	18.50	314	22.74	315	1.2	100	1.2	2	0	992.6	NA	0.0000		9999	1570	0	0	0
2019/04/25 12:08:00	BASE	18.50	314	22.74	315	1.2	100	1.2	2	0	992.7	NA	0.0000		9999	1480	2070	0	0
2019/04/25 12:09:00	BASE	18.86	315	22.74	315	1.2	100	1.2	2	0	992.7	NA	0.0000		9999	1480	2030	0	0
2019/04/25 12:10:00	BASE	19.54	315	23.00	308	1.2	100	1.2	2	0	992.7	NA	0.0000		9999	2030	0	0	0
2019/04/25 12:11:00	BASE	20.14	314	23.00	308	1.2	100	1.2	2	0	992.7	NA	0.0000		9999	1610	0	0	0
2019/04/25 12:12:00	BASE	20.00	313	23.00	308	1.2	100	1.2	3	0	992.8	NA	0.0000		9999	2170	5610	0	0
2019/04/25 12:13:00	BASE	19.17	311	23.00	308	1.2	100	1.2	3	0	992.8	NA	0.0000		9999	3410	0	0	0
2019/04/25 12:14:00	BASE	18.33	311	23.00	308	1.2	100	1.2	3	0	992.8	NA	0.0000		9999	3410	0	0	0
2019/04/25 12:15:00	BASE	18.48	313	23.00	308	1.2	100	1.2	3	0	992.9	NA	0.0000		9999	3410	0	0	0
2019/04/25 12:16:00	BASE	19.58	314	23.00	308	1.2	100	1.2	3	0	992.9	NA	0.0000		9999	3410	0	0	0
2019/04/25 12:17:00	BASE	19.18	315	23.00	308	1.2	100	1.2	3	0	992.9	NA	0.0000		9999	3380	0	0	0
2019/04/25 12:18:00	BASE	18.66	314	23.00	308	1.2	100	1.2	3	0	992.9	NA	0.0000		9999	3380	0	0	0
2019/04/25 12:19:00	BASE	18.30	314	23.00	308	1.2	100	1.2	3	0	993.0	NA	0.0000		9999	3380	0	0	0
2019/04/25 12:20:00	BASE	18.03	314	22.28	314	1.2	100	1.2	3	0	993.1	NA	0.0000		9999	3380	0	0	0
2019/04/25 12:21:00	BASE	18.52	313	21.97	315	1.2	100	1.2	3	0	993.1	NA	0.0000		9999	3350	0	0	0
2019/04/25 12:22:00	BASE	18.05	314	21.97	315	1.2	100	1.2	3	0	993.1	NA	0.0000		9999	3380	0	0	0
2019/04/25 12:23:00	BASE	17.99	317	21.97	315	1.2	100	1.2	4	0	993.2	NA	0.0000		9999	3450	5870	0	0
2019/04/25 12:24:00	BASE	17.57	317	21.97	315	1.2	100	1.2	4	0	993.3	NA	0.0000		9999	0	0	0	1840
2019/04/25 12:25:00	BASE	16.82	318	21.97	315	1.1	100	1.1	4	0	993.3	NA	0.0000		9999	5870	0	0	0
2019/04/25 12:26:00	BASE	17.44	318	21.97	315	1.1	100	1.1	4	0	993.3	NA	0.0000		9999	5940	0	0	0
2019/04/25 12:27:00	BASE	17.95	316	21.97	315	1.1	100	1.1	4	0	993.4	NA	0.0000		9999	4920	0	0	0
2019/04/25 12:28:00	BASE	17.52	317	21.97	315	1.1	100	1.1	4	0	993.4	NA	0.0000		9999	4820	0	0	0
2019/04/25 12:29:00	BASE	17.33	316	21.97	315	1.1	100	1.1	4	0	993.4	NA	0.0000		9999	4270	4790	0	0
2019/04/25 12:30:00	BASE	17.64	315	20.63	315	1.1	100	1.1	4	0	993.5	NA	0.0000		9999	4230	0	0	0
2019/04/25 12:31:00	BASE	18.07	315	20.63	315	1.1	100	1.1	4	0	993.4	NA	0.0000		9999	3710	4300	0	0
2019/04/25 12:32:00	BASE	18.25	315	20.63	315	1.1	100	1.1	4	0	993.5	NA	0.0000		9999	3740	0	0	0
2019/04/25 12:33:00	BASE	17.72	316	20.63	315	1.1	100	1.1	4	0	993.5	NA	0.0000		9999	3770	0	0	0
2019/04/25 12:34:00	BASE	17.59	316	20.63	315	1.1	100	1.1	4	0	993.6	NA	0.0000		9999	3770	0	0	0
2019/04/25 12:35:00	BASE	17.21	315	20.63	315	1.1	100	1.1	4	0	993.6	NA	0.0000		9999	3810	0	0	0
2019/04/25 12:36:00	BASE	15.94	316	20.58	310	1.1	100	1.1	4	0	993.7	NA	0.0000		9999	3840	0	0	0
2019/04/25 12:37:00	BASE	15.53	316	20.58	310	1.1	100	1.1	4	0	993.7	NA	0.0000		9999	3870	0	0	0
2019/04/25 12:38:00	BASE	15.86	317	20.58	310	1.1	100	1.1	4	0	993.7	NA	0.0000		9999	3900	0	0	0
2019/04/25 12:39:00	BASE	15.72	317	20.58	310	1.1	100	1.1	4	0	993.7	NA	0.0000		9999	3900	0	0	0
2019/04/25 12:40:00	BASE	14.94	320	20.58	310	1.1	100	1.1	4	0	993.8	NA	0.0000		9999	3970	0	0	0
2019/04/25 12:41:00	BASE	15.17	322	20.32	315	1.0	100	1.0	5	0	993.8	NA	0.0000		9999	4000	0	0	0
2019/04/25 12:42:00	BASE	15.84	318	19.55	330	1.0	100	1.0	5	0	993.9	NA	0.0000		9999	4040	0	0	0
2019/04/25 12:43:00	BASE	15.43	318	18.88	312	1.0	100	1.0	5	0	994.0	NA	0.0000		9999	4040	0	0	0
2019/04/25 12:44:00	BASE	14.56	320	18.11	312	1.0	100	1.0	5	0	994.0	NA	0.0000		9999	4100	0	0	0
2019/04/25 12:45:00	BASE	14.24	322	18.11	312	1.0	100	1.0	5	0	994.0	NA	0.0000		9999	4040	0	0	0
2019/04/25 12:46:00	BASE	14.69	323	18.11	312	1.0	100	1.0	6	0	994.0	NA	0.0000		9999	4070	0	0	0
2019/04/25 12:47:00	BASE	14.42	323	18.11	312	1.0	100	1.0	6	0	994.0	NA	0.0000		9999	4070	0	0	0
2019/04/25 12:48:00	BASE	14.60	325	18.11	312	1.0	100	1.0	7	0	994.0	NA	0.0000		9999	4100	0	0	0
2019/04/25 12:49:00	BASE	15.28	325	18.11	312	1.0	100	1.0	7	0	994.0	NA	0.0000		9999	4070	0	0	0
2019/04/25 12:50:00	BASE	15.07	325	18.11	312	1.0	100	1.0	8	0	994.1	NA	0.0000		9999	4100	0	0	0
2019/04/25 12:51:00	BASE	15.35	326	18.11	312	1.0	100	1.0	8	0	994.1	NA	0.0000		9999	4100	0	0	0
2019/04/25 12:52:00	BASE	15.29	328	17.08	323	1.0	100	1.0	7	0	994.1	NA	0.0000		9999	4130	0	0	0
2019/04/25 12:53:00	BASE	14.96	328	17.08	323	1.0	100	1.0	7	0	994.1	NA	0.0000		9999	4130	0	0	0
2019/04/25 12:54:00	BASE	15.54	325	17.08	323	1.0	100	1.0	7	0	994.1	NA	0.0000		9999	4100	0	0	0
2019/04/25 12:55:00	BASE	15.98	326	18.42	326	1.0	100	1.0	7	0	994.1	NA	0.0000		9999	4100	0	0	0
2019/04/25 12:56:00	BASE	15.72	325	18.42	326	1.0	100	1.0	7	0	994.2	NA	0.0000		9999	4170	0	0	0
2019/04/25 12:57:00	BASE	15.56	323	18.42	326	1.0	100	1.0	7	0	994.2	NA	0.0000		9999	4200	0	0	0
2019/04/25 12:58:00	BASE	15.67	324	18.42	326	1.0	100	1.0	8	0	994.2	NA	0.0000		9999	4230	0	0	0
2019/04/25 12:59:00	BASE	15.11	325	18.42	326	1.0	100	1.0	8	0	994.3	NA	0.0000		9999	4230	0	0	0
2019/04/25 13:00:00	BASE	14.62	326	18.42	326	1.0	100	1.0	8	0	994.4	NA	0.0000		9999	4270	0	0	0
2019/04/25 13:01:00	BASE	14.83	325	18.42	326	1.0	100	1.0	8	0	994.4	NA	0.0000		9999	4300	0	0	0
2019/04/25 13:02:00	BASE	14.75	325	18.42	326	1.0	100	1.0	8	0	994.4	NA	0.0000		9999	4330	0	0	0
2019/04/25 13:03:00	BASE	14.33	326	18.42	326	1.0	100	1.0	9	0	994.4	NA	0.0000		9999	4360	0	0	0
2019/04/25 13:04:00	BASE	14.47	328	18.42	326	1.0	100	1.0	9	0	994.4	NA	0.0000		9999	4330	0	0	0
2019/04/25 13:05:00	BASE	15.13	327	17.18	321	1.0	100	1.0	9	0	994.4	NA	0.0000		9999	4400	0	0	0
2019/04/25 13:06:00	BASE	14.60	326	17.18	321	1.0	100	1.0	9	0	994.4	NA	0.0000		9999	4760	0	0	0
2019/04/25 13:07:00	BASE	13.64	327	17.08	317	1.0	100	1.0	10	0	994.4	NA	0.0000		9999	4660	0	0	0
2019/04/25 13:08:00	BASE	13.51	327	16.87	324	1.0	100	1.0	10	0	994.5	NA	0.0000		9999	4720	0	0	0
2019/04/25 13:09:00	BASE	13.67	327	16.87	324	1.0	100	1.0	11	0	994.5	NA	0.0000		9999	5050	0	0	0
2019/04/25 13:10:00	BASE	14.09	326	16.87	324	1.0	100	1.0	11	0	994.5	NA	0.0000		9999	5020	0	0	0
2019/04/25 13:11:00	BASE	14.30	326	16.87	324	1.0	100	1.0	11	0	994.5	NA	0.0000		9999	4990	0	0	0
2019/04/25 13:12:00	BASE	14.65	327	16.87	324	1.0	100	1.0	11	0	994.5	NA	0.0000		9999	5020	0	0	0
2019/04/25 13:13:00	BASE	14.85	327	16.87	324	1.0	100	1.0	11	0	994.5	NA	0.0000		9999	4950	0	0	0
2019/04/25 13:14:00	BASE	14.73	325	16.87	324	1.0	100	1.0	12	0	994.5	NA	0.0000		9999	4950	0	0	0
2019/04/25 13:15:00	BASE	14.69	325	16.77	325	1.0	100	1.0	12	0	994.6	NA	0.0000		9999	4920	0	0	0
2019/04/25 13:16:00	BASE	14.94	326	16.77	325	1.0	100	1.0	12	0	994.6	NA	0.0000		9999	4990	0	0	0
2019/04/25 13:17:00	BASE	15.08	324	16.77	325	1.0	100	1.0	12	0	994.6	NA	0.0000		9999	5090	0	0	0
2019/04/25 13:18:00	BASE	15.03	325	16.87	326	1.0	100	1.0	13	0	994.6	NA	0.0000		9999	5180	0	0	0
2019/04/25 13:19:01	BASE	15.79	327	17.59	325	1.0	100	1.0	13	0	994.6	NA	0.0000		9999	5180	0	0	0
2019/04/25 13:20:00	BASE	16.46	326	18.67	321	1.0	100	1.0	12	0	994.7	NA	0.0000		9999	5280	0	0	0
2019/04/25 13:21:00	BASE	16.47	326	18.67	321	1.1	100	1.1	12	0	994.7	NA	0.0000		9999	5380	0	0	0
2019/04/25 13:22:00	BASE	16.22	327	18.67	321	1.1	100	1.1	12	0	994.7	NA	0.0000		9999	5410	0	0	0
2019/04/25 13:23:00	BASE	16.04	329	18.67	321	1.1	100	1.1	13	0	994.7	NA	0.0000		9999	5380	0	0	0
2019/04/25 13:24:00	BASE	15.91	328	18.67	321	1.1	100	1.1	13	0	994.7	NA	0.0000		9999	5280	0	0	0
2019/04/25 13:25:00	BASE	15.32	329	18.67	321	1.1	100	1.1	14	0	994.8	NA	0.0000		9999	5350	0	0	0
2019/04/25 13:26:00	BASE	14.99	329	18.67	321	1.1	100	1.1	14	0	994.8	NA	0.0000		9999	1610	5450	0	0
2019/04/25 13:27:00	BASE	15.26	329	18.67	321	1.1	100	1.1	14	0	994.9	NA	0.0000		9999	1480	0	0	0
2019/04/25 13:28:00	BASE	15.53	329	18.67	321	1.1	100	1.1	14	0	994.9	NA	0.0000		9999	1480	0	0	0
2019/04/25 13:29:00	BASE	15.71	328	18.67	321	1.1	100	1.1	14	0	994.9	NA	0.0000		9999	1440	0	0	0
2019/04/25 13:30:00	BASE	15.88	328	18.11	323	1.1	100	1.1	13	0	994.9	NA	0.0000		9999	1410	0	0	0
2019/04/25 13:31:00	BASE	15.61	327	18.11	323	1.1	100	1.1	13	0	994.9	NA	0.0000		9999	1480	0	0	0
2019/04/25 13:32:00	BASE	15.36	326	18.11	323	1.1	100	1.1	12	0	994.9	NA	0.0000		9999	1280	0	0	0
2019/04/25 13:33:00	BASE	15.48	327	18.11	323	1.1	100	1.1	12	0	994.9	NA	0.0000		9999	560	0	0	0
2019/04/25 13:34:00	BASE	15.46	327	18.11	323	1.1	100	1.1	11	0	994.9	NA	0.0000		9999	390	0	0	0
2019/04/25 13:35:00	BASE	16.24	328	18.31	328	1.1	100	1.1	9	0	994.8	NA	0.0000		9999	1210	0	0	0
2019/04/25 13:36:00	BASE	17.18	327	19.70	322	1.1	100	1.1	7	0	994.9	NA	0.0000	UP	6000	0	0	0	3810
2019/04/25 13:37:00	BASE	17.18	326	19.70	322	1.1	100	1.1	6	0	995.0	NA	0.0000	UP	4200	0	0	0	2560
2019/04/25 13:38:00	BASE	15.82	325	19.70	322	1.1	100	1.1	6	0	995.1	NA	0.0000	UP BR	4800	0	0	0	2720
2019/04/25 13:39:00	BASE	14.57	323	19.70	322	1.1	100	1.1	5	0	995.1	NA	0.0000	UP BR	7000	300	0	0	0
2019/04/25 13:40:00	BASE	15.89	319	19.70	322	1.0	100	1.0	5	0	995.1	NA	0.0000	UP BR	9999	360	0	0	0
2019/04/25 13:41:00	BASE	16.62	316	19.70	322	1.0	100	1.0	6	0	995.1	NA	0.0000	UP BR	9999	720	0	0	0
2019/04/25 13:42:00	BASE	15.86	318	19.70	322	1.0	100	1.0	7	0	995.1	NA	0.0000	UP BR	9999	1410	0	0	0
2019/04/25 13:43:00	BASE	16.16	322	19.70	322	0.9	100	0.9	8	0	995.1	NA	0.0000	UP BR	9999	1380	0	0	0
2019/04/25 13:44:00	BASE	15.76	324	19.70	322	0.9	100	0.9	8	0	995.1	NA	0.0000	UP BR	9999	1410	0	0	0
2019/04/25 13:45:00	BASE	15.11	325	19.70	322	0.9	100	0.9	9	0	995.1	NA	0.0000	UP BR	9999	1410	0	0	0
2019/04/25 13:46:00	BASE	15.30	327	19.65	322	0.9	100	0.9	11	0	995.1	NA	0.0000	UP BR	9999	1350	0	0	0
2019/04/25 13:47:00	BASE	14.84	328	19.65	322	0.9	100	0.9	14	0	995.0	NA	0.0000	UP BR	9999	1410	0	0	0
2019/04/25 13:48:00	BASE	15.20	328	19.65	322	0.9	100	0.9	13	0	995.0	NA	0.0000	UP	9999	1480	0	0	0
2019/04/25 13:49:00	BASE	15.84	328	19.65	322	0.9	100	0.9	14	0	994.9	NA	0.0000	UP	9999	1440	0	0	0
2019/04/25 13:50:00	BASE	16.10	328	18.67	323	0.9	100	0.9	16	0	994.9	NA	0.0000	UP	9999	1480	0	0	0
2019/04/25 13:51:00	BASE	16.49	330	18.67	323	0.9	100	0.9	18	0	994.9	NA	0.0000	UP	9999	1380	0	0	0
2019/04/25 13:52:00	BASE	16.77	332	18.67	323	0.9	100	0.9	18	0	994.9	NA	0.0000	UP	9999	1440	0	0	0
2019/04/25 13:53:00	BASE	16.94	328	18.67	323	0.9	100	0.9	19	0	994.9	NA	0.0000		9999	1570	0	0	0
2019/04/25 13:54:00	BASE	16.95	325	19.34	319	1.0	100	1.0	18	0	994.9	NA	0.0000		9999	1670	0	0	0
2019/04/25 13:55:00	BASE	17.19	324	19.34	319	1.0	100	1.0	19	0	994.9	NA	0.0000		9999	1480	0	0	0
2019/04/25 13:56:00	BASE	18.14	324	20.37	322	1.0	100	1.0	19	0	994.9	NA	0.0000		9999	1440	0	0	0
2019/04/25 13:57:00	BASE	19.19	324	20.83	321	1.0	100	1.0	19	0	994.9	NA	0.0000		9999	1510	0	0	0
2019/04/25 13:58:00	BASE	18.91	325	22.07	317	1.0	100	1.0	21	0	995.0	NA	0.0000		9999	1410	0	0	0
2019/04/25 13:59:00	BASE	19.35	325	22.07	317	1.0	100	1.0	24	0	994.9	NA	0.0000		9999	1540	0	0	0
2019/04/25 14:00:00	BASE	20.49	323	22.38	325	1.1	100	1.1	26	0	994.9	NA	0.0000		9999	1640	0	0	0
2019/04/25 14:01:00	BASE	20.06	322	22.38	325	1.1	100	1.1	27	0	995.0	NA	0.0000		9999	5180	0	0	0
2019/04/25 14:02:00	BASE	19.99	323	22.38	325	1.1	100	1.1	26	0	994.9	NA	0.0000		9999	5220	0	0	0
2019/04/25 14:03:00	BASE	20.77	324	22.53	324	1.1	100	1.1	26	0	994.9	NA	0.0000		9999	4990	0	0	0
2019/04/25 14:04:00	BASE	21.14	323	22.53	324	1.1	100	1.1	26	0	994.9	NA	0.0000		9999	4950	0	0	0
2019/04/25 14:05:00	BASE	20.85	324	22.89	323	1.1	100	1.1	26	0	995.0	NA	0.0000		9999	4860	0	0	0
2019/04/25 14:06:00	BASE	20.35	325	22.89	323	1.1	100	1.1	27	0	995.0	NA	0.0000		9999	4860	0	0	0
2019/04/25 14:07:00	BASE	20.22	323	22.89	323	1.1	100	1.1	26	0	995.0	NA	0.0000		9999	5020	0	0	0
2019/04/25 14:08:00	BASE	20.18	323	22.89	323	1.1	100	1.1	24	0	995.1	NA	0.0000		9999	4950	0	0	0
2019/04/25 14:09:00	BASE	19.99	324	22.89	323	1.1	100	1.1	23	0	995.1	NA	0.0000		9999	4690	0	0	0
2019/04/25 14:10:00	BASE	20.08	324	22.89	323	1.1	100	1.1	24	0	995.1	NA	0.0000		9999	4530	0	0	0
2019/04/25 14:11:00	BASE	20.50	323	23.61	322	1.1	100	1.1	24	0	995.1	NA	0.0000		9999	4590	22080	0	0
2019/04/25 14:12:00	BASE	20.03	326	23.61	322	1.1	100	1.1	24	0	995.2	NA	0.0000		9999	4590	0	0	0
2019/04/25 14:13:00	BASE	20.09	326	23.61	322	1.1	100	1.1	24	0	995.2	NA	0.0000		9999	4560	0	0	0
2019/04/25 14:14:00	BASE	20.26	324	23.61	322	1.1	100	1.1	25	0	995.3	NA	0.0000		9999	4630	0	0	0
2019/04/25 14:15:00	BASE	19.57	323	23.61	322	1.1	100	1.1	26	0	995.3	NA	0.0000		9999	4820	0	0	0
2019/04/25 14:16:00	BASE	19.36	325	23.61	322	1.1	100	1.1	27	0	995.3	NA	0.0000		9999	4760	0	0	0
2019/04/25 14:17:00	BASE	20.03	325	23.61	322	1.1	100	1.1	28	0	995.3	NA	0.0000		9999	5020	0	0	0
2019/04/25 14:18:00	BASE	20.13	324	23.61	322	1.1	100	1.1	28	0	995.4	NA	0.0000		9999	4990	0	0	0
2019/04/25 14:19:00	BASE	18.69	325	23.61	322	1.1	100	1.1	29	0	995.4	NA	0.0000		9999	4760	0	0	0
2019/04/25 14:20:00	BASE	18.15	326	23.61	322	1.1	100	1.1	31	0	995.4	NA	0.0000		9999	4790	0	0	0
2019/04/25 14:21:00	BASE	18.22	326	22.89	316	1.1	100	1.1	33	0	995.4	NA	0.0000		9999	4720	0	0	0
2019/04/25 14:22:00	BASE	18.07	327	22.89	316	1.1	100	1.1	33	0	995.4	NA	0.0000		9999	4790	0	0	0
2019/04/25 14:23:00	BASE	18.05	326	21.86	326	1.1	100	1.1	33	0	995.4	NA	0.0000		9999	4820	0	0	0
2019/04/25 14:24:00	BASE	17.91	324	21.86	326	1.1	100	1.1	33	0	995.4	NA	0.0000		9999	2230	4790	0	0
2019/04/25 14:25:00	BASE	18.07	324	21.86	326	1.1	100	1.1	32	0	995.4	NA	0.0000		9999	4720	0	0	0
2019/04/25 14:26:00	BASE	18.14	326	21.86	326	1.1	100	1.1	30	0	995.4	NA	0.0000		9999	4660	0	0	0
2019/04/25 14:27:00	BASE	18.45	325	21.35	322	1.1	100	1.1	30	0	995.4	NA	0.0000		9999	4560	0	0	0
2019/04/25 14:28:00	BASE	19.51	324	21.45	325	1.1	100	1.1	30	0	995.4	NA	0.0000		9999	4560	0	0	0
2019/04/25 14:29:00	BASE	19.92	323	22.22	322	1.1	100	1.1	31	0	995.4	NA	0.0000		9999	4590	0	0	0
2019/04/25 14:30:00	BASE	20.10	323	22.53	322	1.1	100	1.1	32	0	995.5	NA	0.0000		9999	4630	0	0	0
2019/04/25 14:31:00	BASE	19.49	324	22.53	322	1.1	100	1.1	32	0	995.6	NA	0.0000		9999	4660	0	0	0
2019/04/25 14:32:00	BASE	18.68	324	22.53	322	1.1	100	1.1	32	0	995.5	NA	0.0000		9999	4720	0	0	0
2019/04/25 14:33:00	BASE	18.73	324	22.53	322	1.1	100	1.1	31	0	995.6	NA	0.0000		9999	4720	0	0	0
2019/04/25 14:34:00	BASE	18.57	323	22.53	322	1.1	100	1.1	30	0	995.6	NA	0.0000		9999	4630	0	0	0
2019/04/25 14:35:00	BASE	18.88	323	22.53	322	1.1	100	1.1	30	0	995.6	NA	0.0000		9999	4630	0	0	0
2019/04/25 14:36:00	BASE	19.29	323	22.53	322	1.1	100	1.1	28	0	995.6	NA	0.0000		9999	4400	0	0	0
2019/04/25 14:37:00	BASE	19.76	324	22.53	322	1.1	100	1.1	26	0	995.6	NA	0.0000		9999	4430	0	0	0
2019/04/25 14:38:00	BASE	19.26	325	22.53	322	1.1	100	1.1	25	0	995.7	NA	0.0000		9999	4360	0	0	0
2019/04/25 14:39:00	BASE	18.58	324	22.53	322	1.1	100	1.1	26	0	995.7	NA	0.0000		9999	4530	0	0	0
2019/04/25 14:40:00	BASE	18.98	324	21.71	326	1.1	100	1.1	28	0	995.7	NA	0.0000		9999	4360	0	0	0
2019/04/25 14:41:00	BASE	18.51	325	21.71	326	1.1	100	1.1	30	0	995.7	NA	0.0000		9999	4560	0	0	0
2019/04/25 14:42:00	BASE	18.03	327	21.71	326	1.1	100	1.1	33	0	995.7	NA	0.0000		9999	4400	0	0	0
2019/04/25 14:43:00	BASE	18.36	328	21.71	326	1.1	100	1.1	37	0	995.6	NA	0.0000		9999	4400	0	0	0
2019/04/25 14:44:00	BASE	18.20	328	21.71	326	1.1	100	1.1	39	0	995.7	NA	0.0000		9999	4330	0	0	0
2019/04/25 14:45:00	BASE	18.06	329	21.71	326	1.1	100	1.1	41	0	995.6	NA	0.0000		9999	4300	0	0	0
2019/04/25 14:46:00	BASE	18.41	330	21.71	326	1.1	100	1.1	42	0	995.7	NA	0.0000		9999	4330	0	0	0
2019/04/25 14:47:00	BASE	18.68	333	21.04	322	1.1	100	1.1	41	0	995.7	NA	0.0000		9999	4400	0	0	0
2019/04/25 14:48:00	BASE	18.93	335	21.04	322	1.1	100	1.1	42	0	995.6	NA	0.0000		9999	4170	0	0	0
2019/04/25 14:49:00	BASE	19.37	333	21.04	332	1.1	100	1.1	44	0	995.6	NA	0.0000		9999	4360	0	0	0
2019/04/25 14:50:00	BASE	19.61	332	21.04	332	1.1	100	1.1	43	0	995.7	NA	0.0000		9999	4230	0	0	0
2019/04/25 14:51:00	BASE	19.51	332	21.20	327	1.1	100	1.1	42	0	995.7	NA	0.0000		9999	4300	0	0	0
2019/04/25 14:52:00	BASE	19.03	330	21.20	327	1.1	100	1.1	39	0	995.8	NA	0.0000		9999	4270	0	0	0
2019/04/25 14:53:00	BASE	17.80	328	21.20	327	1.1	100	1.1	35	0	995.8	NA	0.0000		9999	4270	0	0	0
2019/04/25 14:54:00	BASE	17.51	327	21.20	327	1.1	100	1.1	34	0	995.8	NA	0.0000		9999	4230	0	0	0
2019/04/25 14:55:00	BASE	17.41	326	21.20	327	1.1	100	1.1	35	0	995.8	NA	0.0000		9999	4170	0	0	0
2019/04/25 14:56:00	BASE	17.11	325	21.20	327	1.2	100	1.2	36	0	995.9	NA	0.0000		9999	4000	0	0	0
2019/04/25 14:57:00	BASE	17.68	324	21.20	327	1.2	100	1.2	35	0	996.0	NA	0.0000		9999	3380	0	0	0
2019/04/25 14:58:00	BASE	18.12	323	22.07	322	1.2	100	1.2	36	0	996.0	NA	0.0000		9999	4040	0	0	0
2019/04/25 14:59:00	BASE	19.68	320	23.41	322	1.2	100	1.2	35	0	995.9	NA	0.0000		9999	0	0	0	4630
2019/04/25 15:00:00	BASE	19.93	315	23.41	322	1.2	100	1.2	32	0	996.0	NA	0.0000		9999	4490	0	0	0
2019/04/25 15:01:00	BASE	18.35	315	23.41	322	1.1	100	1.1	29	0	996.0	NA	0.0000		9999	3640	0	0	0
2019/04/25 15:02:00	BASE	17.94	316	23.41	322	1.1	100	1.1	26	0	996.0	NA	0.0000		9999	0	0	0	4040
2019/04/25 15:03:00	BASE	18.44	316	23.41	322	1.1	100	1.1	24	0	996.1	NA	0.0000		9999	3610	0	0	0
2019/04/25 15:04:00	BASE	18.23	316	23.41	322	1.1	100	1.1	19	0	996.1	NA	0.0000		9999	2430	3580	0	0
2019/04/25 15:05:00	BASE	17.16	319	23.41	322	1.0	100	1.0	16	0	996.1	NA	0.0000		9999	690	0	0	0
2019/04/25 15:06:00	BASE	16.46	322	23.41	322	1.0	100	1.0	17	0	996.1	NA	0.0000		9999	660	2560	0	0
2019/04/25 15:07:00	BASE	15.79	322	23.41	322	1.0	100	1.0	18	0	996.1	NA	0.0000		9999	750	0	0	0
2019/04/25 15:08:00	BASE	15.65	321	23.41	322	1.0	100	1.0	19	0	996.1	NA	0.0000		9999	1310	0	0	0
2019/04/25 15:09:00	BASE	16.00	323	20.83	309	1.0	100	1.0	22	0	996.1	NA	0.0000		9999	1900	0	0	0
2019/04/25 15:10:00	BASE	15.74	324	20.83	309	0.9	100	0.9	24	0	996.0	NA	0.0000		9999	1210	0	0	0
2019/04/25 15:11:00	BASE	15.19	325	20.83	309	0.9	100	0.9	25	0	996.0	NA	0.0000		9999	0	0	0	2820
2019/04/25 15:12:00	BASE	15.73	325	20.83	309	0.9	100	0.9	26	0	996.0	NA	0.0000		9999	2070	0	0	0
2019/04/25 15:13:00	BASE	16.10	326	18.62	314	0.9	100	0.9	29	0	996.0	NA	0.0000		9999	2100	0	0	0
2019/04/25 15:14:00	BASE	15.84	327	17.70	318	0.9	100	0.9	30	0	996.0	NA	0.0000		9999	3710	0	0	0
2019/04/25 15:15:00	BASE	15.96	328	17.70	318	0.9	100	0.9	32	0	996.0	NA	0.0000		9999	3940	0	0	0
2019/04/25 15:16:00	BASE	16.16	329	17.75	327	0.9	100	0.9	35	0	996.0	NA	0.0000		9999	3770	0	0	0
2019/04/25 15:17:00	BASE	16.28	330	17.75	327	0.9	100	0.9	36	0	996.1	NA	0.0000		9999	3940	4860	0	0
2019/04/25 15:18:00	BASE	17.04	328	19.50	329	0.9	100	0.9	36	0	996.1	NA	0.0000		9999	3480	0	0	0
2019/04/25 15:19:00	BASE	17.81	328	19.91	330	0.9	100	0.9	35	0	996.1	NA	0.0000		9999	3480	0	0	0
2019/04/25 15:20:00	BASE	17.57	330	19.91	330	0.9	100	0.9	34	0	996.1	NA	0.0000		9999	3580	0	0	0
2019/04/25 15:21:00	BASE	17.44	332	19.91	330	0.9	100	0.9	34	0	996.1	NA	0.0000		9999	3510	0	0	0
2019/04/25 15:22:00	BASE	17.35	332	19.91	330	1.0	100	1.0	35	0	996.2	NA	0.0000		9999	3610	0	0	0
2019/04/25 15:23:00	BASE	17.18	329	19.91	330	1.0	100	1.0	35	0	996.2	NA	0.0000		9999	3580	0	0	0
2019/04/25 15:24:00	BASE	17.36	329	19.91	330	1.0	100	1.0	35	0	996.2	NA	0.0000		9999	3450	0	0	0
2019/04/25 15:25:00	BASE	17.61	329	19.91	330	1.0	100	1.0	35	0	996.2	NA	0.0000		9999	3310	0	0	0
2019/04/25 15:26:00	BASE	17.94	328	19.91	330	1.0	100	1.0	35	0	996.2	NA	0.0000		9999	3310	0	0	0
2019/04/25 15:27:00	BASE	18.77	329	20.06	330	1.0	100	1.0	35	0	996.1	NA	0.0000		9999	3280	0	0	0
2019/04/25 15:28:00	BASE	19.04	329	21.86	324	1.0	100	1.0	35	0	996.1	NA	0.0000		9999	3480	0	0	0
2019/04/25 15:29:00	BASE	19.48	329	21.97	330	1.0	100	1.0	34	0	996.1	NA	0.0000		9999	3770	0	0	0
2019/04/25 15:30:00	BASE	19.31	329	21.97	330	1.1	100	1.1	34	0	996.2	NA	0.0000		9999	0	0	0	4200
2019/04/25 15:31:00	BASE	18.48	328	21.97	330	1.1	100	1.1	34	0	996.2	NA	0.0000		9999	3710	0	0	0
2019/04/25 15:32:00	BASE	18.20	329	21.97	330	1.1	100	1.1	34	0	996.2	NA	0.0000		9999	3640	0	0	0
2019/04/25 15:33:00	BASE	19.17	330	22.28	329	1.1	100	1.1	34	0	996.1	NA	0.0000		9999	3640	0	0	0
2019/04/25 15:34:00	BASE	19.81	331	22.28	329	1.1	100	1.1	35	0	996.1	NA	0.0000		9999	3640	0	0	0
2019/04/25 15:35:00	BASE	19.38	331	22.28	329	1.1	100	1.1	35	0	996.2	NA	0.0000		9999	3710	0	0	0
2019/04/25 15:36:00	BASE	19.30	332	22.28	329	1.1	100	1.1	34	0	996.2	NA	0.0000		9999	3740	0	0	0
2019/04/25 15:37:00	BASE	18.58	332	22.28	329	1.1	100	1.1	34	0	996.2	NA	0.0000		9999	3710	0	0	0
2019/04/25 15:38:00	BASE	18.16	331	22.28	329	1.1	100	1.1	33	0	996.3	NA	0.0000		9999	3810	0	0	0
2019/04/25 15:39:00	BASE	17.54	330	22.28	329	1.1	100	1.1	32	0	996.3	NA	0.0000		9999	3810	0	0	0
2019/04/25 15:40:00	BASE	16.91	330	22.28	329	1.1	100	1.1	32	0	996.4	NA	0.0000		9999	3740	0	0	0
2019/04/25 15:41:00	BASE	17.42	329	22.28	329	1.1	100	1.1	32	0	996.4	NA	0.0000		9999	3740	0	0	0
2019/04/25 15:42:00	BASE	17.53	327	22.28	329	1.1	100	1.1	32	0	996.4	NA	0.0000		9999	3740	0	0	0
2019/04/25 15:43:00	BASE	17.02	326	21.40	331	1.1	100	1.1	32	0	996.4	NA	0.0000		9999	3840	0	0	0
2019/04/25 15:44:00	BASE	17.08	327	21.40	331	1.1	100	1.1	32	0	996.4	NA	0.0000		9999	3900	0	0	0
2019/04/25 15:45:00	BASE	17.67	329	20.01	331	1.1	100	1.1	32	0	996.4	NA	0.0000		9999	3970	0	0	0
2019/04/25 15:46:00	BASE	17.67	329	19.86	325	1.1	100	1.1	31	0	996.4	NA	0.0000		9999	4000	0	0	0
2019/04/25 15:47:00	BASE	17.18	330	19.86	325	1.1	100	1.1	31	0	996.4	NA	0.0000		9999	4070	0	0	0
2019/04/25 15:48:00	BASE	17.40	329	19.86	325	1.1	100	1.1	31	0	996.4	NA	0.0000		9999	4070	0	0	0
2019/04/25 15:49:00	BASE	17.35	327	19.86	325	1.1	100	1.1	32	0	996.5	NA	0.0000		9999	4040	0	0	0
2019/04/25 15:50:00	BASE	17.54	326	19.86	325	1.1	100	1.1	31	0	996.5	NA	0.0000		9999	4040	0	0	0
2019/04/25 15:51:00	BASE	17.84	326	19.91	320	1.1	100	1.1	31	0	996.5	NA	0.0000		9999	4100	0	0	0
2019/04/25 15:52:00	BASE	17.50	326	19.91	320	1.1	100	1.1	31	0	996.5	NA	0.0000		9999	4100	0	0	0
2019/04/25 15:53:00	BASE	17.65	325	20.27	323	1.1	100	1.1	31	0	996.5	NA	0.0000		9999	4130	0	0	0
2019/04/25 15:54:00	BASE	17.97	324	20.27	323	1.1	100	1.1	31	0	996.5	NA	0.0000		9999	4170	0	0	0
2019/04/25 15:55:00	BASE	18.07	326	20.27	323	1.1	100	1.1	32	0	996.5	NA	0.0000		9999	4230	0	0	0
2019/04/25 15:56:00	BASE	18.24	326	20.27	323	1.1	100	1.1	31	0	996.6	NA	0.0000		9999	4270	0	0	0
2019/04/25 15:57:00	BASE	18.70	324	21.40	324	1.1	100	1.1	31	0	996.6	NA	0.0000		9999	4300	0	0	0
2019/04/25 15:58:00	BASE	18.87	323	21.40	324	1.1	100	1.1	31	0	996.6	NA	0.0000		9999	4400	0	0	0
2019/04/25 15:59:00	BASE	19.74	323	22.79	323	1.2	100	1.2	31	0	996.6	NA	0.0000		9999	4360	0	0	0
2019/04/25 16:00:00	BASE	20.31	323	22.79	323	1.2	100	1.2	30	0	996.7	NA	0.0000		9999	4400	0	0	0
2019/04/25 16:01:00	BASE	19.19	323	22.79	323	1.2	100	1.2	29	0	996.8	NA	0.0000		9999	4200	0	0	0
2019/04/25 16:02:00	BASE	17.58	324	22.79	323	1.2	100	1.2	29	0	996.8	NA	0.0000		9999	4100	0	0	0
2019/04/25 16:03:00	BASE	16.67	326	22.79	323	1.2	100	1.2	29	0	996.8	NA	0.0000		9999	4100	0	0	0
2019/04/25 16:04:00	BASE	16.63	326	22.79	323	1.2	100	1.2	29	0	996.8	NA	0.0000		9999	4130	0	0	0
2019/04/25 16:05:00	BASE	17.65	324	22.79	323	1.2	100	1.2	29	0	996.8	NA	0.0000		9999	4100	0	0	0
2019/04/25 16:06:00	BASE	18.47	323	22.79	323	1.2	100	1.2	29	0	996.8	NA	0.0000		9999	4170	0	0	0
2019/04/25 16:07:00	BASE	18.04	326	22.79	323	1.2	100	1.2	29	0	996.9	NA	0.0000		9999	4100	0	0	0
2019/04/25 16:08:00	BASE	17.19	327	22.79	323	1.2	100	1.2	29	0	997.0	NA	0.0000		9999	4100	0	0	0
2019/04/25 16:09:00	BASE	17.44	325	20.78	322	1.2	100	1.2	29	0	997.0	NA	0.0000		9999	4100	0	0	0
2019/04/25 16:10:00	BASE	17.61	328	20.53	324	1.2	100	1.2	29	0	997.0	NA	0.0000		9999	4100	0	0	0
2019/04/25 16:11:00	BASE	16.72	329	20.53	324	1.2	100	1.2	29	0	997.0	NA	0.0000		9999	4130	0	0	0
2019/04/25 16:12:00	BASE	16.60	328	20.53	324	1.2	100	1.2	29	0	997.1	NA	0.0000		9999	4070	0	0	0
2019/04/25 16:13:00	BASE	16.83	327	20.53	324	1.1	100	1.1	29	0	997.1	NA	0.0000		9999	4070	0	0	0
2019/04/25 16:14:00	BASE	17.00	326	20.68	320	1.1	100	1.1	30	0	997.0	NA	0.0000		9999	4100	0	0	0
2019/04/25 16:15:00	BASE	16.72	326	20.68	320	1.1	100	1.1	31	0	997.0	NA	0.0000		9999	4100	0	0	0
2019/04/25 16:16:00	BASE	16.65	327	20.68	320	1.1	100	1.1	31	0	997.0	NA	0.0000		9999	4100	0	0	0
2019/04/25 16:17:00	BASE	16.56	327	20.68	320	1.1	100	1.1	32	0	997.0	NA	0.0000		9999	4130	0	0	0
2019/04/25 16:18:00	BASE	16.68	328	20.68	320	1.1	100	1.1	33	0	997.0	NA	0.0000		9999	4130	0	0	0
2019/04/25 16:19:00	BASE	16.33	328	20.68	320	1.1	100	1.1	32	0	997.0	NA	0.0000		9999	4170	0	0	0
2019/04/25 16:20:00	BASE	15.46	327	20.68	320	1.1	100	1.1	32	0	997.1	NA	0.0000		9999	4230	0	0	0
2019/04/25 16:21:00	BASE	15.96	327	20.68	320	1.1	100	1.1	32	0	997.1	NA	0.0000		9999	4130	0	0	0
2019/04/25 16:22:00	BASE	16.36	326	20.68	320	1.1	100	1.1	32	0	997.1	NA	0.0000		9999	4130	0	0	0
2019/04/25 16:23:00	BASE	15.87	326	20.68	320	1.1	100	1.1	32	0	997.1	NA	0.0000		9999	4170	0	0	0
2019/04/25 16:24:00	BASE	15.66	325	18.62	323	1.1	100	1.1	33	0	997.1	NA	0.0000		9999	4200	0	0	0
2019/04/25 16:25:00	BASE	15.85	326	18.62	323	1.1	100	1.1	33	0	997.1	NA	0.0000		9999	4170	0	0	0
2019/04/25 16:26:00	BASE	15.80	324	18.62	323	1.1	100	1.1	34	0	997.2	NA	0.0000		9999	4170	0	0	0
2019/04/25 16:27:00	BASE	15.73	324	18.57	322	1.1	100	1.1	35	0	997.2	NA	0.0000		9999	4270	0	0	0
2019/04/25 16:28:00	BASE	15.95	324	18.57	322	1.1	100	1.1	36	0	997.2	NA	0.0000		9999	4270	0	0	0
2019/04/25 16:29:00	BASE	16.22	325	17.44	319	1.1	100	1.1	37	0	997.2	NA	0.0000		9999	4300	0	0	0
2019/04/25 16:30:00	BASE	16.30	326	18.42	323	1.2	100	1.2	37	0	997.2	NA	0.0000		9999	4270	0	0	0
2019/04/25 16:31:00	BASE	16.24	325	19.24	322	1.2	100	1.2	38	0	997.1	NA	0.0000		9999	4270	0	0	0
2019/04/25 16:32:00	BASE	16.53	325	19.24	322	1.2	100	1.2	39	0	997.2	NA	0.0000		9999	4270	0	0	0
2019/04/25 16:33:00	BASE	17.23	326	19.75	321	1.2	100	1.2	39	0	997.2	NA	0.0000		9999	4270	0	0	0
2019/04/25 16:34:00	BASE	17.44	326	19.75	321	1.2	100	1.2	40	0	997.2	NA	0.0000		9999	4460	0	0	0
2019/04/25 16:35:00	BASE	16.71	325	19.75	321	1.2	100	1.2	40	0	997.2	NA	0.0000		9999	4530	0	0	0
2019/04/25 16:36:00	BASE	16.73	326	19.75	321	1.2	100	1.2	39	0	997.2	NA	0.0000		9999	4330	0	0	0
2019/04/25 16:37:00	BASE	16.42	326	20.22	323	1.2	100	1.2	38	0	997.2	NA	0.0000		9999	4530	0	0	0
2019/04/25 16:38:00	BASE	16.03	326	20.22	323	1.2	100	1.2	37	0	997.3	NA	0.0000		9999	4400	0	0	0
2019/04/25 16:39:00	BASE	16.27	326	20.22	323	1.2	100	1.2	36	0	997.3	NA	0.0000		9999	4270	0	0	0
2019/04/25 16:40:00	BASE	16.15	326	20.22	323	1.2	100	1.2	34	0	997.4	NA	0.0000		9999	4130	0	0	0
2019/04/25 16:41:00	BASE	16.27	326	20.22	323	1.2	100	1.2	33	0	997.4	NA	0.0000		9999	4040	0	0	0
2019/04/25 16:42:00	BASE	16.70	325	20.22	323	1.2	100	1.2	33	0	997.4	NA	0.0000		9999	3970	0	0	0
2019/04/25 16:43:00	BASE	16.79	324	20.22	323	1.1	100	1.1	34	0	997.4	NA	0.0000		9999	4000	0	0	0
2019/04/25 16:44:00	BASE	16.29	324	20.22	323	1.1	100	1.1	34	0	997.4	NA	0.0000		9999	4000	0	0	0
2019/04/25 16:45:00	BASE	15.73	325	20.22	323	1.1	100	1.1	36	0	997.5	NA	0.0000		9999	3970	0	0	0
2019/04/25 16:46:00	BASE	16.07	326	20.22	323	1.1	100	1.1	37	0	997.5	NA	0.0000		9999	4170	0	0	0
2019/04/25 16:47:00	BASE	16.34	326	19.60	326	1.1	100	1.1	39	0	997.5	NA	0.0000		9999	4400	0	0	0
2019/04/25 16:48:00	BASE	15.96	325	19.60	326	1.1	100	1.1	39	0	997.5	NA	0.0000		9999	4130	0	0	0
2019/04/25 16:49:00	BASE	15.51	325	19.60	326	1.1	100	1.1	39	0	997.5	NA	0.0000		9999	4200	0	0	0
2019/04/25 16:50:00	BASE	15.05	327	19.60	326	1.1	100	1.1	38	0	997.6	NA	0.0000		9999	4230	0	0	0
2019/04/25 16:51:00	BASE	15.03	329	19.60	326	1.1	100	1.1	37	0	997.6	NA	0.0000		9999	4200	0	0	0
2019/04/25 16:52:00	BASE	15.27	330	19.60	326	1.1	100	1.1	37	0	997.5	NA	0.0000		9999	4130	0	0	0
2019/04/25 16:53:00	BASE	15.34	331	19.60	326	1.1	100	1.1	37	0	997.5	NA	0.0000		9999	4130	0	0	0
2019/04/25 16:54:00	BASE	15.27	330	19.60	326	1.1	100	1.1	36	0	997.5	NA	0.0000		9999	4230	0	0	0
2019/04/25 16:55:00	BASE	15.11	329	19.60	326	1.1	100	1.1	35	0	997.6	NA	0.0000		9999	4170	0	0	0
2019/04/25 16:56:00	BASE	14.50	328	17.08	322	1.1	100	1.1	34	0	997.7	NA	0.0000		9999	4200	0	0	0
2019/04/25 16:57:00	BASE	14.53	329	16.87	323	1.1	100	1.1	32	0	997.7	NA	0.0000		9999	4360	0	0	0
2019/04/25 16:58:00	BASE	15.09	331	16.87	323	1.1	100	1.1	31	0	997.7	NA	0.0000		9999	4130	0	0	0
2019/04/25 16:59:00	BASE	14.31	331	16.87	323	1.1	100	1.1	31	0	997.7	NA	0.0000		9999	4170	0	0	0
2019/04/25 17:00:00	BASE	14.10	330	16.87	323	1.1	100	1.1	30	0	997.8	NA	0.0000		9999	4170	0	0	0
2019/04/25 17:01:00	BASE	14.27	330	16.87	323	1.1	100	1.1	31	0	997.8	NA	0.0000		9999	4170	0	0	0
2019/04/25 17:02:00	BASE	13.56	330	16.87	323	1.1	100	1.1	32	0	997.8	NA	0.0000		9999	4130	0	0	0
2019/04/25 17:03:00	BASE	13.31	330	16.87	323	1.1	100	1.1	32	0	997.8	NA	0.0000		9999	4230	0	0	0
2019/04/25 17:04:00	BASE	13.23	331	16.31	332	1.1	100	1.1	32	0	997.8	NA	0.0000		9999	4230	0	0	0
2019/04/25 17:05:00	BASE	12.83	331	16.31	332	1.1	100	1.1	31	0	997.9	NA	0.0000		9999	4230	0	0	0
2019/04/25 17:06:00	BASE	12.45	330	16.31	332	1.0	100	1.0	30	0	997.9	NA	0.0000		9999	4270	0	0	0
2019/04/25 17:07:00	BASE	12.94	329	16.31	332	1.0	100	1.0	29	0	997.9	NA	0.0000		9999	4330	0	0	0
2019/04/25 17:08:00	BASE	13.74	329	16.05	328	1.0	100	1.0	28	0	997.9	NA	0.0000		9999	4400	0	0	0
2019/04/25 17:09:00	BASE	14.04	330	16.05	328	1.0	100	1.0	27	0	998.0	NA	0.0000		9999	4330	0	0	0
2019/04/25 17:10:00	BASE	13.48	331	15.54	330	1.0	100	1.0	27	0	998.0	NA	0.0000		9999	4300	0	0	0
2019/04/25 17:11:00	BASE	12.75	332	15.54	330	1.0	100	1.0	27	0	998.1	NA	0.0000		9999	4330	0	0	0
2019/04/25 17:12:00	BASE	12.75	332	15.54	330	1.0	100	1.0	27	0	998.0	NA	0.0000		9999	4300	0	0	0
2019/04/25 17:13:00	BASE	13.13	333	15.54	330	1.0	100	1.0	26	0	998.0	NA	0.0000		9999	4330	0	0	0
2019/04/25 17:14:16	BASE	13.38	334	15.54	330	1.0	100	1.0	26	0	998.1	NA	0.0000		9999	4330	0	0	0
2019/04/25 17:15:00	BASE	12.97	334	15.54	330	1.0	100	1.0	26	0	998.1	NA	0.0000		9999	4270	0	0	0
2019/04/25 17:16:00	BASE	12.44	336	15.54	330	1.0	100	1.0	26	0	998.1	NA	0.0000		9999	4270	0	0	0
2019/04/25 17:17:00	BASE	12.17	336	15.54	330	1.0	100	1.0	26	0	998.2	NA	0.0000		9999	4270	0	0	0
2019/04/25 17:18:00	BASE	12.22	335	14.97	330	1.0	100	1.0	26	0	998.3	NA	0.0000		9999	4360	0	0	0
2019/04/25 17:19:00	BASE	12.46	335	14.35	328	1.0	100	1.0	27	0	998.3	NA	0.0000		9999	4360	0	0	0
2019/04/25 17:20:00	BASE	11.74	334	14.35	328	1.0	100	1.0	27	0	998.3	NA	0.0000		9999	4400	0	0	0
2019/04/25 17:21:00	BASE	11.50	334	14.35	328	1.0	100	1.0	27	0	998.3	NA	0.0000		9999	4330	0	0	0
2019/04/25 17:22:00	BASE	12.07	335	14.35	328	1.0	100	1.0	27	0	998.3	NA	0.0000		9999	4270	0	0	0
2019/04/25 17:23:00	BASE	11.78	335	14.35	328	1.0	100	1.0	27	0	998.4	NA	0.0000		9999	4230	0	0	0
2019/04/25 17:24:00	BASE	11.56	334	13.89	336	1.0	100	1.0	27	0	998.4	NA	0.0000		9999	4230	0	0	0
2019/04/25 17:25:00	BASE	11.94	335	13.79	320	1.0	100	1.0	27	0	998.5	NA	0.0000		9999	4200	0	0	0
2019/04/25 17:26:00	BASE	11.64	337	13.79	320	1.1	100	1.1	27	0	998.5	NA	0.0000		9999	4230	0	0	0
2019/04/25 17:27:00	BASE	10.75	337	13.79	320	1.1	100	1.1	27	0	998.5	NA	0.0000		9999	4270	0	0	0
2019/04/25 17:28:00	BASE	10.13	337	13.48	332	1.1	100	1.1	27	0	998.6	NA	0.0000		9999	4270	0	0	0
2019/04/25 17:29:00	BASE	9.75	339	13.32	327	1.0	100	1.0	27	0	998.6	NA	0.0000		9999	4230	0	0	0
2019/04/25 17:30:00	BASE	10.21	340	13.32	327	1.0	100	1.0	27	0	998.6	NA	0.0000		9999	4230	0	0	0
2019/04/25 17:31:00	BASE	10.76	340	13.32	327	1.0	100	1.0	27	0	998.6	NA	0.0000		9999	4230	0	0	0
2019/04/25 17:32:00	BASE	10.30	342	13.32	327	1.0	100	1.0	28	0	998.7	NA	0.0000		9999	4230	0	0	0
2019/04/25 17:33:00	BASE	10.12	343	13.32	327	1.0	100	1.0	28	0	998.7	NA	0.0000		9999	4230	0	0	0
2019/04/25 17:34:00	BASE	10.09	346	13.22	333	1.0	100	1.0	28	0	998.8	NA	0.0000		9999	4170	0	0	0
2019/04/25 17:35:00	BASE	9.00	346	12.91	331	1.0	100	1.0	27	0	998.8	NA	0.0000		9999	4200	0	0	0
2019/04/25 17:36:00	BASE	8.28	347	12.04	339	1.0	100	1.0	27	0	998.8	NA	0.0000		9999	4200	0	0	0
2019/04/25 17:37:00	BASE	9.10	349	12.04	339	1.0	100	1.0	26	0	998.8	NA	0.0000		9999	4230	0	0	0
2019/04/25 17:38:00	BASE	9.44	352	12.04	339	1.0	100	1.0	26	0	998.9	NA	0.0000		9999	1800	0	0	0
2019/04/25 17:39:00	BASE	9.00	352	12.04	339	1.0	100	1.0	27	0	998.9	NA	0.0000		9999	1800	0	0	0
2019/04/25 17:40:00	BASE	9.08	353	12.04	339	1.0	100	1.0	27	0	999.0	NA	0.0000		9999	4170	0	0	0
2019/04/25 17:41:00	BASE	8.83	354	11.16	340	1.0	100	1.0	27	0	999.0	NA	0.0000		9999	1380	4130	0	0
2019/04/25 17:42:00	BASE	8.58	353	11.16	340	1.0	100	1.0	28	0	999.0	NA	0.0000		9999	1740	4100	0	0
2019/04/25 17:43:00	BASE	8.95	356	11.11	346	1.0	100	1.0	29	0	999.0	NA	0.0000		9999	1410	4070	0	0
2019/04/25 17:44:00	BASE	9.04	357	11.11	346	1.0	100	1.0	29	0	999.0	NA	0.0000		9999	1740	4100	0	0
2019/04/25 17:45:00	BASE	8.84	359	11.11	346	1.0	100	1.0	29	0	999.1	NA	0.0000		9999	1640	0	0	0
2019/04/25 17:46:00	BASE	8.83	353	11.11	346	1.1	100	1.1	29	0	999.1	NA	0.0000		9999	1610	4230	0	0
2019/04/25 17:47:00	BASE	9.00	353	10.55	354	1.1	100	1.1	30	0	999.1	NA	0.0000		9999	4230	0	0	0
2019/04/25 17:48:00	BASE	8.87	359	10.55	354	1.1	100	1.1	30	0	999.1	NA	0.0000		9999	4200	0	0	0
2019/04/25 17:49:00	BASE	8.84	360	10.55	354	1.1	100	1.1	31	0	999.1	NA	0.0000		9999	1310	4230	0	0
2019/04/25 17:50:00	BASE	8.65	1	10.55	354	1.1	100	1.1	30	0	999.2	NA	0.0000		9999	4200	0	0	0
2019/04/25 17:51:00	BASE	8.65	1	10.55	354	1.1	100	1.1	29	0	999.2	NA	0.0000		9999	4200	0	0	0
2019/04/25 17:52:00	BASE	8.79	355	10.55	354	1.1	100	1.1	28	0	999.2	NA	0.0000		9999	4200	0	0	0
2019/04/25 17:53:00	BASE	8.45	353	10.55	354	1.1	100	1.1	27	0	999.2	NA	0.0000		9999	4200	0	0	0
2019/04/25 17:54:00	BASE	8.39	360	10.55	354	1.1	100	1.1	26	0	999.2	NA	0.0000		9999	4200	0	0	0
2019/04/25 17:55:00	BASE	8.30	2	10.55	354	1.1	100	1.1	25	0	999.2	NA	0.0000		9999	4200	0	0	0
2019/04/25 17:56:00	BASE	8.68	3	10.55	354	1.1	100	1.1	24	0	999.2	NA	0.0000		9999	4200	0	0	0
2019/04/25 17:57:00	BASE	9.31	5	10.29	350	1.1	100	1.1	23	0	999.2	NA	0.0000		9999	4200	0	0	0
2019/04/25 17:58:00	BASE	9.43	7	10.44	68	1.1	100	1.1	22	0	999.2	NA	0.0000		9999	4230	0	0	0
2019/04/25 17:59:01	BASE	9.68	6	11.01	3	1.1	100	1.1	21	0	999.2	NA	0.0000		9999	4270	0	0	0
2019/04/25 18:00:00	BASE	10.03	2	11.42	2	1.1	100	1.1	20	0	999.2	NA	0.0000		9999	4270	0	0	0
2019/04/25 18:01:00	BASE	10.12	2	11.42	2	1.1	100	1.1	20	0	999.1	NA	0.0000		9999	4270	0	0	0
2019/04/25 18:02:00	BASE	10.23	4	11.42	2	1.1	100	1.1	20	0	999.1	NA	0.0000		9999	4270	0	0	0
2019/04/25 18:03:00	BASE	10.11	1	11.42	2	1.1	100	1.1	20	0	999.1	NA	0.0000		9999	4270	0	0	0
2019/04/25 18:04:00	BASE	9.69	352	11.42	2	1.1	100	1.1	19	0	999.1	NA	0.0000		9999	4270	0	0	0
2019/04/25 18:05:00	BASE	9.45	352	11.42	2	1.1	100	1.1	20	0	999.1	NA	0.0000		9999	4270	0	0	0
2019/04/25 18:06:00	BASE	9.39	0	11.42	2	1.1	100	1.1	20	0	999.1	NA	0.0000		9999	4270	0	0	0
2019/04/25 18:07:00	BASE	9.16	3	11.42	2	1.1	100	1.1	21	0	999.1	NA	0.0000		9999	4300	0	0	0
2019/04/25 18:08:00	BASE	8.81	357	11.42	2	1.1	100	1.1	22	0	999.1	NA	0.0000		9999	4360	0	0	0
2019/04/25 18:09:00	BASE	8.78	356	11.42	2	1.1	100	1.1	22	0	999.1	NA	0.0000		9999	4360	0	0	0
2019/04/25 18:10:00	BASE	9.46	3	11.27	3	1.1	100	1.1	22	0	999.1	NA	0.0000		9999	4360	0	0	0
2019/04/25 18:11:00	BASE	9.76	0	10.96	2	1.1	100	1.1	23	0	999.1	NA	0.0000		9999	4330	0	0	0
2019/04/25 18:12:00	BASE	9.07	359	10.91	351	1.1	100	1.1	22	0	999.1	NA	0.0000		9999	4330	0	0	0
2019/04/25 18:13:00	BASE	9.14	1	10.91	351	1.1	100	1.1	21	0	999.1	NA	0.0000		9999	4300	0	0	0
2019/04/25 18:14:00	BASE	9.39	357	10.91	351	1.1	100	1.1	19	0	999.1	NA	0.0000		9999	4300	0	0	0
2019/04/25 18:15:00	BASE	8.79	354	10.91	351	1.1	100	1.1	18	0	999.1	NA	0.0000		9999	4300	0	0	0
2019/04/25 18:16:00	BASE	8.84	352	10.91	351	1.1	100	1.1	18	0	999.1	NA	0.0000		9999	4400	0	0	0
2019/04/25 18:17:00	BASE	8.89	349	10.91	351	1.2	100	1.2	17	0	999.1	NA	0.0000		9999	4400	0	0	0
2019/04/25 18:18:00	BASE	8.70	352	10.91	351	1.2	100	1.2	17	0	999.0	NA	0.0000		9999	4360	0	0	0
2019/04/25 18:19:00	BASE	9.02	352	10.91	351	1.2	100	1.2	17	0	999.0	NA	0.0000		9999	4360	0	0	0
2019/04/25 18:20:00	BASE	9.20	350	10.91	351	1.2	100	1.2	18	0	999.0	NA	0.0000		9999	4720	0	0	0
2019/04/25 18:21:00	BASE	9.73	352	12.04	351	1.2	100	1.2	18	0	999.0	NA	0.0000		9999	4630	0	0	0
2019/04/25 18:22:00	BASE	10.20	350	12.04	351	1.2	100	1.2	18	0	999.0	NA	0.0000		9999	4430	0	0	0
2019/04/25 18:23:00	BASE	9.88	352	12.04	351	1.2	100	1.2	18	0	999.0	NA	0.0000		9999	4360	0	0	0
2019/04/25 18:24:00	BASE	9.60	355	12.04	351	1.2	100	1.2	17	0	999.0	NA	0.0000		9999	4400	0	0	0
2019/04/25 18:25:00	BASE	9.54	353	12.04	351	1.2	100	1.2	16	0	999.0	NA	0.0000		9999	4560	0	0	0
2019/04/25 18:26:00	BASE	10.22	350	12.19	352	1.2	100	1.2	16	0	999.0	NA	0.0000		9999	5150	5680	0	0
2019/04/25 18:27:00	BASE	10.36	348	12.19	352	1.2	100	1.2	16	0	999.0	NA	0.0000		9999	4990	0	0	0
2019/04/25 18:28:00	BASE	9.61	348	12.19	352	1.2	100	1.2	17	0	999.0	NA	0.0000		9999	4860	0	0	0
2019/04/25 18:29:00	BASE	9.45	346	12.19	352	1.2	100	1.2	17	0	999.0	NA	0.0000		9999	4300	4920	0	0
2019/04/25 18:30:00	BASE	9.69	348	12.19	352	1.2	100	1.2	18	0	999.0	NA	0.0000		9999	4920	0	0	0
2019/04/25 18:31:00	BASE	10.01	350	12.19	352	1.2	100	1.2	17	0	999.0	NA	0.0000		9999	4820	0	0	0
2019/04/25 18:32:00	BASE	9.54	352	12.19	352	1.2	100	1.2	17	0	999.1	NA	0.0000		9999	5120	0	0	0
2019/04/25 18:33:00	BASE	9.05	347	12.19	352	1.2	100	1.2	16	0	999.1	NA	0.0000		9999	4790	0	0	0
2019/04/25 18:34:00	BASE	9.29	348	12.19	352	1.2	100	1.2	16	0	999.1	NA	0.0000		9999	4560	0	0	0
2019/04/25 18:35:00	BASE	9.50	355	12.19	352	1.2	100	1.2	16	0	999.1	NA	0.0000		9999	4890	0	0	0
2019/04/25 18:36:00	BASE	9.57	354	11.06	349	1.2	100	1.2	17	0	999.1	NA	0.0000		9999	4720	0	0	0
2019/04/25 18:37:00	BASE	9.55	356	11.06	349	1.2	100	1.2	17	0	999.1	NA	0.0000		9999	4330	0	0	0
2019/04/25 18:38:00	BASE	9.74	357	11.06	349	1.2	100	1.2	17	0	999.1	NA	0.0000		9999	4490	0	0	0
2019/04/25 18:39:00	BASE	9.92	354	11.06	349	1.2	100	1.2	17	0	999.1	NA	0.0000		9999	4400	0	0	0
2019/04/25 18:40:00	BASE	9.54	353	10.91	354	1.2	100	1.2	17	0	999.1	NA	0.0000		9999	4430	0	0	0
2019/04/25 18:41:00	BASE	9.81	358	11.21	354	1.2	100	1.2	17	0	999.1	NA	0.0000		9999	4690	0	0	0
2019/04/25 18:42:00	BASE	10.48	1	11.27	360	1.2	100	1.2	17	0	999.1	NA	0.0000		9999	5120	0	0	0
2019/04/25 18:43:00	BASE	10.57	360	11.27	360	1.2	100	1.2	17	0	999.1	NA	0.0000		9999	4790	0	0	0
2019/04/25 18:44:00	BASE	10.25	2	11.27	360	1.2	100	1.2	16	0	999.1	NA	0.0000		9999	0	0	0	1570
2019/04/25 18:45:00	BASE	10.18	5	11.27	360	1.2	100	1.2	15	0	999.1	NA	0.0000		9999	0	0	0	1440
2019/04/25 18:46:00	BASE	10.45	6	11.32	5	1.2	100	1.2	14	0	999.1	NA	0.0000		9999	0	0	0	1510
2019/04/25 18:47:00	BASE	10.39	6	11.32	5	1.2	100	1.2	13	0	999.2	NA	0.0000		9999	0	0	0	1410
2019/04/25 18:48:00	BASE	10.36	4	11.32	5	1.2	100	1.2	13	0	999.2	NA	0.0000		9999	5510	0	0	0
2019/04/25 18:49:00	BASE	10.31	3	11.32	5	1.1	100	1.1	12	0	999.2	NA	0.0000		9999	0	0	0	1310
2019/04/25 18:50:17	BASE	9.73	2	11.32	5	1.1	100	1.1	11	0	999.3	NA	0.0000		9999	5250	0	0	0
2019/04/25 18:51:00	BASE	9.52	5	11.32	5	1.1	100	1.1	10	0	999.3	NA	0.0000		9999	0	0	0	1410
2019/04/25 18:52:00	BASE	10.04	9	11.57	11	1.1	100	1.1	10	0	999.3	NA	0.0000		9999	0	0	0	1440
2019/04/25 18:53:00	BASE	10.59	10	11.57	11	1.1	100	1.1	9	0	999.3	NA	0.0000		9999	0	0	0	1250
2019/04/25 18:54:00	BASE	10.44	10	11.57	11	1.1	100	1.1	9	0	999.3	NA	0.0000		9999	5050	0	0	0
2019/04/25 18:55:00	BASE	10.61	9	12.14	10	1.1	100	1.1	8	0	999.4	NA	0.0000		9999	4790	0	0	0
2019/04/25 18:56:00	BASE	10.53	10	12.14	10	1.1	100	1.1	7	0	999.4	NA	0.0000		9999	4560	0	0	0
2019/04/25 18:57:00	BASE	9.97	10	12.14	10	1.1	100	1.1	6	0	999.5	NA	0.0000		9999	4330	0	0	0
2019/04/25 18:58:00	BASE	10.04	10	12.14	10	1.1	100	1.1	6	0	999.5	NA	0.0000		9999	4270	0	0	0
2019/04/25 18:59:00	BASE	10.35	11	12.14	10	1.1	100	1.1	6	0	999.5	NA	0.0000		9999	4170	0	0	0
2019/04/25 19:00:00	BASE	10.68	11	12.14	10	1.1	100	1.1	5	0	999.5	NA	0.0000		9999	0	0	0	3900
2019/04/25 19:01:00	BASE	10.65	11	12.14	10	1.1	100	1.1	5	0	999.5	NA	0.0000		9999	0	0	0	3670
2019/04/25 19:02:00	BASE	10.65	10	12.14	10	1.1	100	1.1	4	0	999.5	NA	0.0000		9999	0	0	0	3380
2019/04/25 19:03:00	BASE	10.70	10	12.14	10	1.1	100	1.1	4	0	999.5	NA	0.0000		9999	0	0	0	2950
2019/04/25 19:04:00	BASE	10.68	9	12.14	10	1.1	100	1.1	4	0	999.5	NA	0.0000		9999	0	0	0	2760
2019/04/25 19:05:00	BASE	10.78	8	11.47	12	1.1	100	1.1	3	0	999.5	NA	0.0000		9999	0	0	0	2430
2019/04/25 19:06:00	BASE	11.43	8	12.55	12	1.1	100	1.1	3	0	999.5	NA	0.0000		9999	0	0	0	2100
2019/04/25 19:07:00	BASE	11.79	12	12.55	12	1.1	100	1.1	3	0	999.5	NA	0.0000		9999	0	0	0	2030
2019/04/25 19:08:00	BASE	11.65	14	12.55	12	1.1	100	1.1	3	0	999.5	NA	0.0000	UP	9999	0	0	0	1900
2019/04/25 19:09:00	BASE	11.64	13	12.55	12	1.1	100	1.1	3	0	999.6	NA	0.0000	UP	9999	0	0	0	1770
2019/04/25 19:10:00	BASE	11.29	11	12.55	12	1.1	100	1.1	3	0	999.6	NA	0.0000	UP	9999	0	0	0	1900
2019/04/25 19:11:00	BASE	11.08	10	12.55	12	1.0	100	1.0	3	0	999.6	NA	0.0000	UP	9999	0	0	0	1940
2019/04/25 19:12:00	BASE	11.23	8	12.55	12	1.0	100	1.0	3	0	999.6	NA	0.0000	UP	9999	0	0	0	1970
2019/04/25 19:13:00	BASE	10.90	6	12.55	12	1.0	100	1.0	3	0	999.6	NA	0.0000	UP	9999	0	0	0	1900
2019/04/25 19:14:00	BASE	10.39	7	12.55	12	1.0	100	1.0	3	0	999.6	NA	0.0000	UP	9999	0	0	0	1970
2019/04/25 19:15:00	BASE	10.13	8	12.55	12	1.0	100	1.0	4	0	999.6	NA	0.0000	UP	9999	0	0	0	1870
2019/04/25 19:16:00	BASE	10.12	6	12.19	8	1.0	100	1.0	4	0	999.6	NA	0.0000	UP	9999	0	0	0	2030
2019/04/25 19:17:00	BASE	10.17	4	12.19	8	1.0	100	1.0	4	0	999.6	NA	0.0000	UP	9999	0	0	0	2000
2019/04/25 19:18:00	BASE	10.52	5	12.19	8	1.0	100	1.0	5	0	999.6	NA	0.0000	UP	9999	0	0	0	1870
2019/04/25 19:19:00	BASE	10.60	7	12.19	8	1.0	100	1.0	5	0	999.6	NA	0.0000	UP	9999	0	0	0	1640
2019/04/25 19:20:00	BASE	10.11	7	12.19	8	1.0	100	1.0	5	0	999.6	NA	0.0000	UP	9999	0	0	0	1670
2019/04/25 19:21:00	BASE	10.23	7	11.99	5	0.9	100	0.9	5	0	999.6	NA	0.0000	UP	9999	0	0	0	1710
2019/04/25 19:22:00	BASE	10.17	7	11.57	5	0.9	100	0.9	5	0	999.6	NA	0.0000	UP	9999	0	0	0	1770
2019/04/25 19:23:00	BASE	9.65	4	11.57	5	0.9	100	0.9	4	0	999.6	NA	0.0000	UP	9999	0	0	0	1670
2019/04/25 19:24:00	BASE	9.95	4	11.57	5	0.8	100	0.8	4	0	999.6	NA	0.0000	UP	9999	0	0	0	1670
2019/04/25 19:25:00	BASE	10.71	6	11.57	5	0.8	100	0.8	4	0	999.6	NA	0.0000	UP	9999	0	0	0	1770
2019/04/25 19:26:00	BASE	11.06	6	11.57	5	0.8	100	0.8	5	0	999.5	NA	0.0000	UP	9999	0	0	0	1740
2019/04/25 19:27:00	BASE	11.07	6	11.57	5	0.8	100	0.8	6	0	999.5	NA	0.0000	UP	9999	0	0	0	1740
2019/04/25 19:28:00	BASE	10.94	6	11.47	7	0.8	100	0.8	6	0	999.5	NA	0.0000	UP	9999	0	0	0	1770
2019/04/25 19:29:01	BASE	10.91	4	11.47	7	0.8	100	0.8	6	0	999.5	NA	0.0000	UP	9999	0	0	0	1740
2019/04/25 19:30:00	BASE	10.81	2	11.47	7	0.8	100	0.8	6	0	999.5	NA	0.0000	UP	9999	0	0	0	1770
2019/04/25 19:31:00	BASE	10.33	360	11.47	7	0.7	100	0.7	5	0	999.5	NA	0.0000	UP	9999	0	0	0	1800
2019/04/25 19:32:00	BASE	9.85	2	11.47	7	0.7	100	0.7	4	0	999.5	NA	0.0000	UP	9999	0	0	0	1710
2019/04/25 19:33:00	BASE	9.78	3	11.47	7	0.7	100	0.7	4	0	999.5	NA	0.2540	UP	9999	0	0	0	1540
2019/04/25 19:34:00	BASE	9.77	359	11.47	7	0.7	100	0.7	4	0	999.5	NA	0.0000	UP	9999	0	0	0	1250
2019/04/25 19:35:00	BASE	9.88	354	11.47	7	0.7	100	0.7	4	0	999.5	NA	0.0000	UP	9999	0	0	0	1870
2019/04/25 19:36:00	BASE	10.63	344	11.94	360	0.7	100	0.7	3	0	999.5	NA	0.0000	UP	9999	0	0	0	1940
2019/04/25 19:37:00	BASE	11.00	349	11.94	360	0.7	100	0.7	3	0	999.5	NA	0.0000	UP	9999	0	0	0	1740
2019/04/25 19:38:00	BASE	10.37	358	11.94	360	0.7	100	0.7	2	0	999.5	NA	0.0000	UP	9999	0	0	0	1440
2019/04/25 19:39:00	BASE	10.06	1	11.94	360	0.7	100	0.7	2	0	999.5	NA	0.0000	UP	9999	0	0	0	1540
2019/04/25 19:40:00	BASE	9.97	4	11.94	360	0.7	100	0.7	2	0	999.5	NA	0.0000	UP	9999	0	0	0	1740
2019/04/25 19:41:00	BASE	9.73	358	11.94	360	0.7	100	0.7	3	0	999.5	NA	0.0000	UP	9999	0	0	0	1970
2019/04/25 19:42:00	BASE	9.42	359	11.94	360	0.7	100	0.7	3	0	999.5	NA	0.0000	UP	9999	0	0	0	2260
2019/04/25 19:43:00	BASE	9.38	3	11.94	360	0.7	100	0.7	3	0	999.5	NA	0.0000		9999	0	0	0	2530
2019/04/25 19:44:00	BASE	9.91	4	11.94	360	0.6	100	0.6	2	0	999.5	NA	0.0000		9999	0	0	0	2330
2019/04/25 19:45:00	BASE	10.05	6	11.94	360	0.6	100	0.6	2	0	999.5	NA	0.0000	UP	9999	0	0	0	2170
2019/04/25 19:46:00	BASE	10.48	6	11.52	6	0.6	100	0.6	2	0	999.5	NA	0.0000	UP	9999	0	0	0	2100
2019/04/25 19:47:00	BASE	10.62	6	11.52	6	0.6	100	0.6	2	0	999.5	NA	0.0000	UP	9999	0	0	0	1870
2019/04/25 19:48:00	BASE	10.09	6	11.52	6	0.6	100	0.6	3	0	999.5	NA	0.0000	UP	9999	0	0	0	1740
2019/04/25 19:49:00	BASE	9.96	6	11.52	6	0.6	100	0.6	3	0	999.5	NA	0.0000	UP	9999	0	0	0	2100
2019/04/25 19:50:00	BASE	10.02	7	11.52	6	0.6	100	0.6	3	0	999.5	NA	0.0000	UP	9999	0	0	0	2130
2019/04/25 19:51:00	BASE	10.00	6	11.52	6	0.7	100	0.7	3	0	999.5	NA	0.0000	UP	9999	0	0	0	2230
2019/04/25 19:52:00	BASE	9.92	5	11.52	6	0.7	100	0.7	3	0	999.5	NA	0.0000	UP	9999	0	0	0	2400
2019/04/25 19:53:00	BASE	9.58	5	11.52	6	0.7	100	0.7	3	0	999.6	NA	0.0000	UP	9999	0	0	0	2230
2019/04/25 19:54:00	BASE	9.15	4	11.52	6	0.7	100	0.7	3	0	999.6	NA	0.0000	UP	9999	0	0	0	2430
2019/04/25 19:55:00	BASE	9.10	6	11.52	6	0.7	100	0.7	3	0	999.6	NA	0.0000	UP	9999	0	0	0	2460
2019/04/25 19:56:00	BASE	9.04	5	11.01	4	0.6	100	0.6	3	0	999.6	NA	0.0000	UP	9999	0	0	0	2620
2019/04/25 19:57:00	BASE	8.76	5	11.01	4	0.6	100	0.6	3	0	999.6	NA	0.0000	UP	9999	0	0	0	2690
2019/04/25 19:58:00	BASE	8.40	7	11.01	4	0.6	100	0.6	3	0	999.6	NA	0.0000	UP	9999	0	0	0	2820
2019/04/25 19:59:00	BASE	8.12	10	11.01	4	0.6	100	0.6	3	0	999.6	NA	0.0000	UP	9999	0	0	0	2820
2019/04/25 20:00:00	BASE	8.04	15	11.01	4	0.6	100	0.6	3	0	999.6	NA	0.0000		9999	0	0	0	2790
2019/04/25 20:01:00	BASE	9.02	18	12.55	15	0.6	100	0.6	3	0	999.6	NA	0.0000		9999	0	0	0	2690
2019/04/25 20:02:00	BASE	10.15	21	12.55	15	0.6	100	0.6	2	0	999.6	NA	0.0000		9999	0	0	0	2790
2019/04/25 20:03:00	BASE	10.94	20	12.55	19	0.6	100	0.6	2	0	999.6	NA	0.0000		9999	0	0	0	2620
2019/04/25 20:04:00	BASE	12.09	20	13.63	21	0.6	100	0.6	2	0	999.5	NA	0.0000		9999	0	0	0	2430
2019/04/25 20:05:00	BASE	12.98	23	14.04	26	0.6	100	0.6	2	0	999.5	NA	0.0000	UP	9999	0	0	0	2100
2019/04/25 20:06:00	BASE	12.60	26	14.04	26	0.6	100	0.6	2	0	999.6	NA	0.0000	UP	9999	0	0	0	1900
2019/04/25 20:07:00	BASE	11.71	28	14.04	26	0.7	100	0.7	2	0	999.6	NA	0.0000	UP	9999	300	0	0	0
2019/04/25 20:08:00	BASE	11.78	27	14.04	26	0.7	100	0.7	2	0	999.5	NA	0.0000	UP	9999	360	0	0	0
2019/04/25 20:09:00	BASE	11.55	26	14.04	26	0.7	100	0.7	2	0	999.5	NA	0.0000	UP	5000	0	0	0	2030
2019/04/25 20:10:00	BASE	11.09	27	14.04	26	0.8	100	0.8	1	0	999.5	NA	0.0000	UP BR	4000	0	0	0	1870
2019/04/25 20:11:00	BASE	11.53	27	14.04	26	0.8	100	0.8	1	0	999.5	NA	0.0000	-SN BR	3300	0	0	0	2070
2019/04/25 20:12:00	BASE	11.57	26	14.04	26	0.8	100	0.8	1	0	999.5	NA	0.0000	-SN BR	2800	0	0	0	2070
2019/04/25 20:13:00	BASE	11.12	25	14.04	26	0.8	100	0.8	1	0	999.5	NA	0.0000	-SN BR	2800	0	0	0	2130
2019/04/25 20:14:00	BASE	11.41	27	14.04	26	0.8	100	0.8	1	0	999.5	NA	0.0000	-SN BR	3900	0	0	0	2330
2019/04/25 20:15:00	BASE	11.97	30	14.04	23	0.8	100	0.8	1	0	999.4	NA	0.0000	-SN BR	3800	0	0	0	2490
2019/04/25 20:16:00	BASE	12.07	30	14.04	23	0.8	100	0.8	1	0	999.5	NA	0.0000	-SN BR	3700	0	0	0	2590
2019/04/25 20:17:00	BASE	12.96	28	15.84	26	0.8	100	0.8	1	0	999.4	NA	0.0000	-SN BR	4800	0	0	0	2560
2019/04/25 20:18:00	BASE	14.16	28	16.62	28	0.8	100	0.7	1	0	999.4	NA	0.0000	-SN BR	5000	0	0	0	2430
2019/04/25 20:19:00	BASE	15.10	28	18.26	34	0.7	100	0.7	1	0	999.3	NA	0.0000	-SN BR	5000	0	0	0	2760
2019/04/25 20:20:00	BASE	16.41	25	18.42	14	0.7	100	0.7	1	0	999.3	NA	0.0000	-SN BR	7000	0	0	0	2690
2019/04/25 20:21:00	BASE	17.57	24	21.14	17	0.7	100	0.7	1	0	999.2	NA	0.0000	-SN BR	9999	0	0	0	2760
2019/04/25 20:22:00	BASE	19.08	23	21.14	17	0.7	100	0.7	1	0	999.2	NA	0.0000	-SN BR	9000	0	0	0	2850
2019/04/25 20:23:00	BASE	19.75	21	21.14	17	0.7	100	0.7	1	0	999.2	NA	0.0000	-SN BR	9999	0	0	0	2890
2019/04/25 20:24:00	BASE	18.51	21	21.14	17	0.7	100	0.7	1	0	999.2	NA	0.0000	-SN BR	9999	0	0	0	3150
2019/04/25 20:25:00	BASE	16.13	18	21.14	17	0.7	100	0.7	1	0	999.3	NA	0.0000	-SN BR	9999	0	0	0	3280
2019/04/25 20:26:00	BASE	14.74	14	21.14	17	0.7	100	0.7	1	0	999.2	NA	0.0000	-SN BR	9999	0	0	0	3380
2019/04/25 20:27:00	BASE	15.36	11	21.14	17	0.7	100	0.7	1	0	999.2	NA	0.0000	-SN BR	9999	0	0	0	3050
2019/04/25 20:28:00	BASE	16.68	8	21.14	17	0.7	100	0.7	1	0	999.1	NA	0.0000	-SN	9999	0	0	0	3150
2019/04/25 20:29:00	BASE	17.06	5	21.14	17	0.7	100	0.7	1	0	999.2	NA	0.0000	-SN	9999	0	0	0	3080
2019/04/25 20:30:00	BASE	16.44	1	21.14	17	0.7	100	0.7	1	0	999.2	NA	0.0000	-SN	9999	0	0	0	3350
2019/04/25 20:31:00	BASE	15.34	0	21.09	27	0.7	100	0.7	0	0	999.2	NA	0.0000	-SN	9999	0	0	0	3510
2019/04/25 20:32:00	BASE	14.06	359	20.68	17	0.7	100	0.7	0	0	999.3	NA	0.0000	-SN	9999	0	0	0	3580
2019/04/25 20:33:00	BASE	13.63	355	18.93	19	0.7	100	0.7	0	0	999.3	NA	0.0000		9999	0	0	0	3480
2019/04/25 20:34:00	BASE	13.56	356	17.95	6	0.7	100	0.7	0	0	999.3	NA	0.0000		9999	0	0	0	3380
2019/04/25 20:35:00	BASE	13.93	351	17.95	6	0.7	100	0.7	0	0	999.3	NA	0.0000		9999	0	0	0	3310
2019/04/25 20:36:00	BASE	14.43	349	17.95	6	0.8	100	0.8	0	0	999.3	NA	0.0000		9999	0	0	0	3180
2019/04/25 20:37:00	BASE	14.10	351	17.95	6	0.8	100	0.8	0	0	999.2	NA	0.0000		9999	0	0	0	3280
2019/04/25 20:38:00	BASE	13.56	346	17.90	6	0.8	100	0.8	0	0	999.3	NA	0.0000		9999	0	0	0	3020
2019/04/25 20:39:00	BASE	12.38	344	17.34	1	0.8	100	0.8	0	0	999.3	NA	0.0000		9999	0	0	0	2790
2019/04/25 20:40:00	BASE	11.93	348	15.79	1	0.8	100	0.8	0	0	999.3	NA	0.0000		9999	0	0	0	2660
2019/04/25 20:41:00	BASE	11.92	351	15.54	350	0.8	100	0.8	0	0	999.3	NA	0.0000		9999	0	0	0	2360
2019/04/25 20:42:00	BASE	11.20	350	15.54	350	0.7	100	0.7	0	0	999.3	NA	0.0000		9999	0	0	0	2300
2019/04/25 20:43:00	BASE	10.90	350	15.54	350	0.7	100	0.7	0	0	999.2	NA	0.0000		9999	0	0	0	2260
2019/04/25 20:44:00	BASE	10.98	356	15.54	350	0.7	100	0.7	0	0	999.2	NA	0.0000		9999	0	0	0	2200
2019/04/25 20:45:00	BASE	12.32	6	15.54	350	0.7	100	0.7	0	0	999.1	NA	0.0000		9999	0	0	0	2720
2019/04/25 20:46:00	BASE	13.26	10	15.18	351	0.7	100	0.7	0	0	999.1	NA	0.0000		9999	0	0	0	3050
2019/04/25 20:47:00	BASE	12.92	13	15.18	351	0.7	100	0.7	0	0	999.1	NA	0.0000		9999	0	0	0	3310
2019/04/25 20:48:00	BASE	12.70	18	14.30	12	0.7	100	0.7	0	0	999.1	NA	0.0000		9999	0	0	0	3480
2019/04/25 20:49:00	BASE	12.97	19	14.30	12	0.7	100	0.7	0	0	999.1	NA	0.0000	-SN	9999	0	0	0	3810
2019/04/25 20:50:00	BASE	13.25	18	14.30	12	0.7	100	0.7	0	0	999.1	NA	0.0000	-SN	9999	0	0	0	3900
2019/04/25 20:51:00	BASE	12.68	19	14.30	12	0.7	100	0.7	0	0	999.0	NA	0.0000	-SN	9999	0	0	0	4430
2019/04/25 20:52:00	BASE	11.99	18	14.30	12	0.7	100	0.7	0	0	999.0	NA	0.0000	-SN	9999	0	0	0	4530
2019/04/25 20:53:00	BASE	11.41	14	14.30	12	0.7	100	0.7	0	0	999.0	NA	0.0000	-SN	9999	0	0	0	4720
2019/04/25 20:54:00	BASE	11.49	12	14.30	12	0.7	100	0.7	0	0	998.9	NA	0.0000	-SN	9999	0	0	0	4690
2019/04/25 20:55:00	BASE	12.16	9	14.15	26	0.7	100	0.7	0	0	998.9	NA	0.0000	-SN	9999	0	0	0	4660
2019/04/25 20:56:00	BASE	12.65	6	14.15	26	0.7	100	0.7	0	0	998.9	NA	0.0000	-SN	9999	0	0	0	5220
2019/04/25 20:57:00	BASE	12.78	6	14.15	26	0.7	100	0.7	0	0	998.9	NA	0.0000	-SN	9999	0	0	0	5680
2019/04/25 20:58:00	BASE	13.49	10	15.74	17	0.8	100	0.8	0	0	998.8	NA	0.0000	-SN	9999	0	0	0	5580
2019/04/25 20:59:00	BASE	14.77	15	15.84	15	0.8	100	0.8	0	0	998.8	NA	0.0000	-SN	9999	0	0	0	5450
2019/04/25 21:00:00	BASE	15.28	17	15.84	15	0.9	100	0.9	0	0	998.8	NA	0.0000	-SN	9999	0	0	0	5280
2019/04/25 21:01:00	BASE	15.20	18	15.84	15	0.9	100	0.9	0	0	998.8	NA	0.0000		9999	0	0	0	5280
2019/04/25 21:02:00	BASE	15.18	18	16.67	17	0.9	100	0.9	0	0	998.8	NA	0.0000		9999	0	0	0	5220
2019/04/25 21:03:00	BASE	15.33	17	16.82	22	0.9	100	0.9	0	0	998.7	NA	0.0000		9999	0	0	0	5150
2019/04/25 21:04:00	BASE	15.96	17	17.80	17	0.9	100	0.9	0	0	998.6	NA	0.0000		9999	0	0	0	5320
2019/04/25 21:05:00	BASE	16.60	18	18.42	23	0.9	100	0.9	0	0	998.6	NA	0.0000		9999	0	0	0	5510
2019/04/25 21:06:00	BASE	16.85	20	18.42	23	0.9	100	0.9	0	0	998.6	NA	0.0000		9999	4330	0	0	0
2019/04/25 21:07:00	BASE	17.23	21	19.03	21	0.9	99	0.9	0	0	998.6	NA	0.0000		9999	4270	0	0	0
2019/04/25 21:08:00	BASE	16.88	21	19.03	21	1.0	99	0.9	0	0	998.6	NA	0.0000		9999	4400	0	0	0
2019/04/25 21:09:00	BASE	17.00	21	19.03	21	1.0	99	0.8	0	0	998.6	NA	0.0000		9999	4560	0	0	0
2019/04/25 21:10:00	BASE	18.05	21	19.19	23	1.0	98	0.8	0	0	998.6	NA	0.0000		9999	4130	0	0	0
2019/04/25 21:11:00	BASE	18.31	20	19.19	23	1.0	98	0.8	0	0	998.6	NA	0.0000		9999	4130	0	0	0
2019/04/25 21:12:00	BASE	18.36	20	19.34	19	1.1	97	0.7	0	0	998.6	NA	0.0000		9999	3970	0	0	0
2019/04/25 21:13:00	BASE	18.06	22	19.34	19	1.1	97	0.6	0	0	998.6	NA	0.0000		9999	3940	0	0	0
2019/04/25 21:14:00	BASE	17.48	24	19.34	19	1.1	96	0.6	0	0	998.6	NA	0.0000		9999	3870	0	0	0
2019/04/25 21:15:00	BASE	17.09	23	19.34	19	1.1	95	0.5	0	0	998.5	NA	0.0000		9999	3540	0	0	0
2019/04/25 21:16:00	BASE	16.55	21	19.34	19	1.2	95	0.4	0	0	998.5	NA	0.0000		9999	3050	0	0	0
2019/04/25 21:17:00	BASE	15.77	19	19.34	19	1.2	94	0.4	0	0	998.5	NA	0.0000		9999	2920	0	0	0
2019/04/25 21:18:00	BASE	15.27	19	19.34	19	1.2	94	0.3	0	0	998.6	NA	0.0000		9999	0	0	0	0
2019/04/25 21:19:00	BASE	15.14	19	19.34	19	1.2	93	0.2	0	0	998.5	NA	0.0000		9999	0	0	0	0
2019/04/25 21:20:00	BASE	15.06	19	19.34	19	1.3	92	0.2	0	0	998.5	NA	0.0000		9999	0	0	0	0
2019/04/25 21:21:00	BASE	14.90	23	19.34	19	1.3	92	0.1	0	0	998.5	NA	0.0000		9999	0	0	0	0
2019/04/25 21:22:00	BASE	14.90	24	18.78	24	1.3	91	0.0	0	0	998.5	NA	0.0000		9999	10140	0	0	0
2019/04/25 21:23:00	BASE	14.96	25	18.78	24	1.3	91	-0.0	0	0	998.5	NA	0.0000		9999	8660	0	0	0
2019/04/25 21:24:00	BASE	15.24	26	17.54	21	1.3	90	-0.1	0	0	998.4	NA	0.0000		9999	10470	0	0	0
2019/04/25 21:25:00	BASE	14.97	25	17.49	20	1.3	90	-0.1	0	0	998.5	NA	0.0000		9999	0	0	0	0
2019/04/25 21:26:00	BASE	14.32	23	17.18	24	1.3	90	-0.2	0	0	998.5	NA	0.0000		9999	0	0	0	0
2019/04/25 21:27:00	BASE	13.85	24	17.18	24	1.3	90	-0.2	0	0	998.5	NA	0.0000		9999	0	0	0	0
2019/04/25 21:28:00	BASE	13.76	25	18.01	33	1.3	90	-0.2	0	0	998.4	NA	0.0000		9999	0	0	0	0
2019/04/25 21:29:00	BASE	16.12	24	20.68	19	1.3	90	-0.2	0	0	998.4	NA	0.0000		9999	0	0	0	0
2019/04/25 21:30:00	BASE	17.76	25	20.68	19	1.3	89	-0.3	0	0	998.3	NA	0.0000		9999	0	0	0	0
2019/04/25 21:31:00	BASE	18.10	26	20.94	28	1.3	89	-0.3	0	0	998.3	NA	0.0000		9999	0	0	0	0
2019/04/25 21:32:00	BASE	19.36	26	21.97	24	1.3	89	-0.3	0	0	998.2	NA	0.0000		9999	0	0	0	0
2019/04/25 21:33:00	BASE	21.00	26	23.51	28	1.2	89	-0.3	0	0	998.2	NA	0.0000		9999	0	0	0	0
2019/04/25 21:34:00	BASE	20.98	27	23.51	28	1.2	90	-0.3	0	0	998.2	NA	0.0000		9999	0	0	0	0
2019/04/25 21:35:00	BASE	19.37	27	23.51	28	1.2	90	-0.3	0	0	998.2	NA	0.0000		9999	4270	0	0	0
2019/04/25 21:36:00	BASE	19.66	27	23.51	28	1.2	90	-0.3	0	0	998.1	NA	0.0000		9999	4300	0	0	0
2019/04/25 21:37:00	BASE	20.64	27	23.51	28	1.1	90	-0.3	0	0	998.1	NA	0.0000		9999	4300	0	0	0
2019/04/25 21:38:00	BASE	19.92	26	23.51	28	1.1	90	-0.3	0	0	998.1	NA	0.0000		9999	4200	0	0	0
2019/04/25 21:39:00	BASE	19.02	26	23.51	28	1.1	90	-0.3	0	0	998.0	NA	0.0000		9999	3580	0	0	0
2019/04/25 21:40:00	BASE	18.48	27	23.51	28	1.1	90	-0.3	0	0	998.0	NA	0.0000		9999	7710	0	0	0
2019/04/25 21:41:00	BASE	18.28	29	23.51	28	1.1	90	-0.3	0	0	998.0	NA	0.0000		9999	7710	0	0	0
2019/04/25 21:42:00	BASE	18.00	30	23.51	28	1.1	90	-0.3	0	0	998.0	NA	0.0000		9999	7580	0	0	0
2019/04/25 21:43:00	BASE	17.42	29	23.10	30	1.1	91	-0.2	0	0	998.0	NA	0.0000		9999	7510	0	0	0
2019/04/25 21:44:01	BASE	17.40	27	22.12	25	1.1	91	-0.2	0	0	998.0	NA	0.0000		9999	7550	0	0	0
2019/04/25 21:45:00	BASE	17.06	29	22.12	25	1.1	91	-0.2	0	0	998.0	NA	0.0000		9999	7020	0	0	0
2019/04/25 21:46:00	BASE	16.69	30	21.81	19	1.1	91	-0.2	0	0	998.0	NA	0.0000		9999	0	0	0	0
2019/04/25 21:47:00	BASE	17.26	33	21.81	19	1.1	91	-0.2	0	0	997.9	NA	0.0000		9999	0	0	0	0
2019/04/25 21:48:00	BASE	17.01	36	21.81	19	1.1	91	-0.2	0	0	997.9	NA	0.0000		9999	0	0	0	0
2019/04/25 21:49:00	BASE	16.34	34	21.20	19	1.1	91	-0.2	0	0	997.9	NA	0.0000		9999	0	0	0	0
2019/04/25 21:50:00	BASE	16.01	35	20.83	28	1.1	91	-0.2	0	0	998.0	NA	0.0000		9999	0	0	0	0
2019/04/25 21:51:00	BASE	15.60	38	20.22	34	1.1	91	-0.2	0	0	998.0	NA	0.0000		9999	0	0	0	0
2019/04/25 21:52:00	BASE	16.58	38	20.22	34	1.1	91	-0.2	0	0	997.9	NA	0.0000		9999	0	0	0	0
2019/04/25 21:53:00	BASE	16.39	35	20.22	34	1.0	91	-0.3	0	0	998.0	NA	0.0000		9999	16630	0	0	0
2019/04/25 21:54:00	BASE	15.42	33	20.22	34	1.0	91	-0.3	0	0	997.9	NA	0.0000		9999	16860	0	0	0
2019/04/25 21:55:00	BASE	15.82	31	20.22	34	1.0	91	-0.3	0	0	997.9	NA	0.0000		9999	16570	0	0	0
2019/04/25 21:56:00	BASE	15.74	29	20.22	34	0.9	91	-0.4	0	0	997.9	NA	0.0000		9999	0	0	0	0
2019/04/25 21:57:00	BASE	16.01	29	20.06	33	0.9	91	-0.4	0	0	997.9	NA	0.0000		9999	14570	0	0	0
2019/04/25 21:58:00	BASE	17.46	32	20.17	36	0.9	91	-0.4	0	0	997.9	NA	0.0000		9999	14670	0	0	0
2019/04/25 21:59:00	BASE	18.00	29	20.17	36	0.8	91	-0.4	0	0	997.9	NA	0.0000		9999	10040	0	0	0
2019/04/25 22:00:00	BASE	18.41	25	21.14	17	0.8	92	-0.4	0	0	997.9	NA	0.0000		9999	9940	0	0	0
2019/04/25 22:01:00	BASE	19.01	26	21.14	17	0.8	92	-0.4	0	0	998.0	NA	0.0000		9999	9610	0	0	0
2019/04/25 22:02:00	BASE	19.07	26	21.76	27	0.9	92	-0.3	0	0	997.9	NA	0.0000		9999	10200	0	0	0
2019/04/25 22:03:00	BASE	19.51	27	21.76	27	0.9	91	-0.3	0	0	997.9	NA	0.0000		9999	9320	0	0	0
2019/04/25 22:04:00	BASE	19.79	28	21.76	27	1.0	91	-0.3	0	0	997.9	NA	0.0000		9999	14270	0	0	0
2019/04/25 22:05:00	BASE	18.99	28	21.76	27	1.0	91	-0.3	0	0	997.9	NA	0.0000		9999	13620	0	0	0
2019/04/25 22:06:00	BASE	19.22	27	22.33	20	1.1	90	-0.3	0	0	997.9	NA	0.0000		9999	13520	0	0	0
2019/04/25 22:07:00	BASE	19.97	28	22.33	20	1.1	90	-0.4	0	0	997.9	NA	0.0000		9999	0	0	0	0
2019/04/25 22:08:00	BASE	19.60	29	22.33	20	1.1	89	-0.5	0	0	997.9	NA	0.0000		9999	0	0	0	0
2019/04/25 22:09:00	BASE	19.32	29	22.33	20	1.1	89	-0.5	0	0	997.9	NA	0.0000		9999	0	0	0	0
2019/04/25 22:10:00	BASE	19.33	27	22.33	20	1.1	89	-0.6	0	0	997.9	NA	0.0000		9999	0	0	0	0
2019/04/25 22:11:00	BASE	19.54	28	22.33	20	1.0	88	-0.7	0	0	997.9	NA	0.0000		9999	0	0	0	0
2019/04/25 22:12:00	BASE	18.69	33	22.33	20	1.0	88	-0.7	0	0	997.9	NA	0.0000		9999	0	0	0	0
2019/04/25 22:13:00	BASE	17.70	37	22.33	20	1.0	88	-0.7	0	0	998.0	NA	0.0000		9999	0	0	0	0
2019/04/25 22:14:00	BASE	17.57	38	22.33	20	1.0	88	-0.7	0	0	998.0	NA	0.0000		9999	0	0	0	0
2019/04/25 22:15:00	BASE	18.21	39	22.33	20	1.0	88	-0.7	0	0	998.0	NA	0.0000		9999	0	0	0	0
2019/04/25 22:16:00	BASE	18.57	40	21.71	40	1.0	88	-0.8	0	0	998.0	NA	0.0000		9999	0	0	0	0
2019/04/25 22:17:00	BASE	17.36	40	21.71	40	1.0	88	-0.8	0	0	998.0	NA	0.0000		9999	0	0	0	0
2019/04/25 22:18:00	BASE	17.14	35	21.71	40	1.0	87	-0.9	0	0	997.9	NA	0.0000		9999	0	0	0	0
2019/04/25 22:19:00	BASE	17.22	32	21.71	40	1.0	87	-0.9	0	0	998.0	NA	0.0000		9999	0	0	0	0
2019/04/25 22:20:00	BASE	17.43	31	21.71	40	1.0	87	-1.0	0	0	998.0	NA	0.0000		9999	0	0	0	0
2019/04/25 22:21:00	BASE	17.22	32	21.71	40	1.0	87	-0.9	0	0	998.0	NA	0.0000		9999	0	0	0	0
2019/04/25 22:22:00	BASE	16.28	33	21.71	40	1.0	87	-0.9	0	0	998.0	NA	0.0000		9999	0	0	0	0
2019/04/25 22:23:00	BASE	16.07	36	21.71	40	1.0	87	-0.9	0	0	998.0	NA	0.0000		9999	0	0	0	0
2019/04/25 22:24:00	BASE	15.42	38	21.71	40	1.0	87	-0.9	0	0	998.0	NA	0.0000		9999	0	0	0	0
2019/04/25 22:25:00	BASE	14.89	37	20.83	26	1.0	87	-0.9	0	0	997.9	NA	0.0000		9999	6170	0	0	0
2019/04/25 22:26:00	BASE	15.74	35	20.83	26	1.0	87	-0.9	0	0	997.9	NA	0.0000		9999	6370	0	0	0
2019/04/25 22:27:00	BASE	17.13	36	20.83	26	1.0	87	-0.9	0	0	997.8	NA	0.0000		9999	6560	0	0	0
2019/04/25 22:28:00	BASE	17.22	38	20.83	26	1.0	87	-0.9	0	0	997.8	NA	0.0000		9999	6530	0	0	0
2019/04/25 22:29:00	BASE	17.73	42	20.94	38	1.1	87	-0.9	0	0	997.8	NA	0.0000		9999	6040	0	0	0
2019/04/25 22:30:00	BASE	18.53	43	21.35	41	1.1	87	-0.9	0	0	997.8	NA	0.0000		9999	8500	0	0	0
2019/04/25 22:31:00	BASE	17.76	42	21.35	41	1.1	86	-0.9	0	0	997.8	NA	0.0000		9999	8040	0	0	0
2019/04/25 22:32:00	BASE	17.97	41	21.35	41	1.1	86	-1.0	0	0	997.7	NA	0.0000		9999	7840	0	0	0
2019/04/25 22:33:00	BASE	19.52	41	21.35	41	1.1	85	-1.0	0	0	997.7	NA	0.0000		9999	7680	0	0	0
2019/04/25 22:34:00	BASE	19.05	43	21.35	41	1.1	85	-1.1	0	0	997.7	NA	0.0000		9999	7480	0	0	0
2019/04/25 22:35:00	BASE	19.24	44	21.35	41	1.1	85	-1.1	0	0	997.6	NA	0.0000		9999	7320	0	0	0
2019/04/25 22:36:00	BASE	19.92	46	21.66	46	1.1	85	-1.2	0	0	997.6	NA	0.0000		9999	7280	0	0	0
2019/04/25 22:37:00	BASE	19.13	46	21.66	46	1.1	85	-1.2	0	0	997.5	NA	0.0000		9999	7320	8040	0	0
2019/04/25 22:38:00	BASE	19.21	44	22.28	45	1.0	84	-1.3	0	0	997.6	NA	0.0000		9999	7190	7970	0	0
2019/04/25 22:39:00	BASE	19.52	42	22.28	45	1.0	84	-1.3	0	0	997.5	NA	0.0000		9999	7090	7910	0	0
2019/04/25 22:40:00	BASE	19.28	41	22.28	45	1.0	84	-1.3	0	0	997.5	NA	0.0000		9999	7940	0	0	0
2019/04/25 22:41:00	BASE	19.27	43	22.28	45	1.0	85	-1.3	0	0	997.4	NA	0.0000		9999	7910	0	0	0
2019/04/25 22:42:00	BASE	19.61	44	22.28	45	1.0	85	-1.3	0	0	997.4	NA	0.0000		9999	9120	0	0	0
2019/04/25 22:43:00	BASE	19.98	43	22.28	45	1.0	85	-1.3	0	0	997.4	NA	0.0000		9999	9290	0	0	0
2019/04/25 22:44:00	BASE	20.28	44	22.94	43	1.0	85	-1.3	0	0	997.4	NA	0.0000		9999	9250	0	0	0
2019/04/25 22:45:00	BASE	19.92	43	22.94	43	1.0	85	-1.3	0	0	997.4	NA	0.0000		9999	10010	0	0	0
2019/04/25 22:46:00	BASE	19.23	41	22.94	43	1.0	84	-1.3	0	0	997.5	NA	0.0000		9999	9910	0	0	0
2019/04/25 22:47:00	BASE	18.88	40	22.94	43	1.0	84	-1.3	0	0	997.5	NA	0.0000		9999	9740	0	0	0
2019/04/25 22:48:00	BASE	19.36	41	22.94	43	1.0	84	-1.4	0	0	997.4	NA	0.0000		9999	6300	0	0	0
2019/04/25 22:49:00	BASE	19.56	41	22.94	43	1.0	84	-1.4	0	0	997.5	NA	0.0000		9999	6330	0	0	0
2019/04/25 22:50:00	BASE	19.18	40	22.94	43	1.1	83	-1.5	0	0	997.5	NA	0.0000		9999	0	0	0	0
2019/04/25 22:51:00	BASE	18.96	41	22.94	43	1.1	83	-1.5	0	0	997.5	NA	0.0000		9999	0	0	0	0
2019/04/25 22:52:00	BASE	19.10	42	22.94	43	1.1	82	-1.6	0	0	997.4	NA	0.0000		9999	0	0	0	0
2019/04/25 22:53:00	BASE	18.14	41	22.94	43	1.1	82	-1.6	0	0	997.5	NA	0.0000		9999	0	0	0	0
2019/04/25 22:54:00	BASE	16.94	42	21.97	37	1.1	82	-1.6	0	0	997.5	NA	0.0000		9999	0	0	0	0
2019/04/25 22:55:00	BASE	17.43	44	21.40	42	1.2	82	-1.6	0	0	997.4	NA	0.0000		9999	0	0	0	0
2019/04/25 22:56:00	BASE	17.16	48	21.40	42	1.2	82	-1.6	0	0	997.4	NA	0.0000		9999	5610	0	0	0
2019/04/25 22:57:00	BASE	16.61	45	21.40	42	1.2	82	-1.6	0	0	997.4	NA	0.0000		9999	5610	0	0	0
2019/04/25 22:58:00	BASE	16.99	38	21.25	44	1.2	82	-1.6	0	0	997.4	NA	0.0000		9999	7550	0	0	0
2019/04/25 22:59:00	BASE	17.31	39	21.25	44	1.3	82	-1.5	0	0	997.4	NA	0.0000		9999	6990	0	0	0
2019/04/25 23:00:00	BASE	17.05	38	20.89	36	1.3	82	-1.5	0	0	997.5	NA	0.0000		9999	5410	0	0	0
2019/04/25 23:01:00	BASE	16.69	38	20.89	36	1.3	82	-1.4	0	0	997.4	NA	0.0000		9999	5350	0	0	0
2019/04/25 23:02:00	BASE	17.22	42	20.83	49	1.4	82	-1.4	0	0	997.4	NA	0.0000		9999	5050	0	0	0
2019/04/25 23:03:00	BASE	18.38	42	20.83	49	1.4	81	-1.4	0	0	997.3	NA	0.0000		9999	4920	0	0	0
2019/04/25 23:04:00	BASE	19.25	40	20.83	49	1.4	81	-1.5	0	0	997.2	NA	0.0000		9999	4920	0	0	0
2019/04/25 23:05:00	BASE	19.56	39	22.12	37	1.4	81	-1.6	0	0	997.1	NA	0.0000		9999	4920	0	0	0
2019/04/25 23:06:00	BASE	20.11	39	22.64	28	1.4	81	-1.5	0	0	997.1	NA	0.0000		9999	4950	5710	0	0
2019/04/25 23:07:00	BASE	20.11	40	22.64	28	1.5	80	-1.5	0	0	997.1	NA	0.0000		9999	4890	5380	0	0
2019/04/25 23:08:00	BASE	19.15	40	22.64	28	1.5	80	-1.6	0	0	997.1	NA	0.0000		9999	5250	0	0	0
2019/04/25 23:09:00	BASE	17.82	38	22.64	28	1.5	80	-1.5	0	0	997.1	NA	0.0000		9999	5020	0	0	0
2019/04/25 23:10:00	BASE	17.47	40	22.64	28	1.5	81	-1.4	0	0	997.1	NA	0.0000		9999	4820	0	0	0
2019/04/25 23:11:00	BASE	18.18	41	22.64	28	1.6	81	-1.4	0	0	997.0	NA	0.0000		9999	4720	0	0	0
2019/04/25 23:12:00	BASE	18.77	39	22.64	28	1.6	81	-1.4	0	0	997.0	NA	0.0000		9999	0	0	0	0
2019/04/25 23:13:00	BASE	19.33	39	22.64	28	1.6	81	-1.3	0	0	997.0	NA	0.0000		9999	0	0	0	0
2019/04/25 23:14:00	BASE	19.78	41	23.20	36	1.7	80	-1.3	0	0	997.0	NA	0.0000		9999	0	0	0	0
2019/04/25 23:15:00	BASE	19.68	42	23.20	36	1.7	80	-1.3	0	0	997.0	NA	0.0000		9999	4560	0	0	0
2019/04/25 23:16:00	BASE	19.38	41	23.20	36	1.7	80	-1.4	0	0	997.0	NA	0.0000		9999	0	0	0	0
2019/04/25 23:17:00	BASE	19.60	42	23.20	36	1.6	81	-1.3	0	0	997.0	NA	0.0000		9999	7740	8630	0	0
2019/04/25 23:18:00	BASE	20.79	43	24.28	46	1.6	81	-1.3	0	0	997.0	NA	0.0000		9999	7710	8630	0	0
2019/04/25 23:19:00	BASE	21.59	42	24.28	46	1.7	81	-1.2	0	0	997.0	NA	0.0000		9999	7680	8600	0	0
2019/04/25 23:20:00	BASE	20.44	44	24.28	46	1.7	81	-1.2	0	0	997.1	NA	0.0000		9999	7550	8560	0	0
2019/04/25 23:21:00	BASE	19.18	42	24.28	46	1.8	81	-1.2	0	0	997.1	NA	0.0000		9999	7550	8530	0	0
2019/04/25 23:22:00	BASE	19.09	42	24.28	46	1.8	81	-1.1	0	0	997.1	NA	0.0000		9999	7550	0	0	0
2019/04/25 23:23:00	BASE	19.47	44	24.28	46	1.8	81	-1.1	0	0	997.2	NA	0.0000		9999	5090	0	0	0
2019/04/25 23:24:00	BASE	20.17	45	24.28	46	1.8	81	-1.2	0	0	997.1	NA	0.0000		9999	4860	0	0	0
2019/04/25 23:25:00	BASE	19.67	45	24.28	46	1.8	81	-1.2	0	0	997.2	NA	0.0000		9999	4790	0	0	0
2019/04/25 23:26:00	BASE	18.54	46	24.28	46	1.8	81	-1.2	0	0	997.2	NA	0.0000		9999	4920	0	0	0
2019/04/25 23:27:00	BASE	19.21	47	24.28	46	1.8	81	-1.1	0	0	997.2	NA	0.0000		9999	4890	0	0	0
2019/04/25 23:28:00	BASE	19.39	47	22.43	43	1.8	81	-1.1	0	0	997.3	NA	0.0000		9999	4820	0	0	0
2019/04/25 23:29:00	BASE	18.34	48	22.07	44	1.8	81	-1.1	0	0	997.3	NA	0.0000		9999	4690	5280	0	0
2019/04/25 23:30:00	BASE	17.40	50	22.07	44	1.8	81	-1.1	0	0	997.3	NA	0.0000		9999	4690	5280	0	0
2019/04/25 23:31:00	BASE	16.86	51	22.07	44	1.8	81	-1.1	0	0	997.4	NA	0.0000		9999	4590	0	0	0
2019/04/25 23:32:00	BASE	16.70	51	22.07	44	1.8	81	-1.1	0	0	997.3	NA	0.0000		9999	4560	0	0	0
2019/04/25 23:33:00	BASE	17.17	50	22.07	44	1.8	81	-1.1	0	0	997.3	NA	0.0000		9999	4530	0	0	0
2019/04/25 23:34:00	BASE	17.23	51	22.07	44	1.9	81	-1.0	0	0	997.3	NA	0.0000		9999	4560	5380	0	0
2019/04/25 23:35:00	BASE	17.54	53	22.07	44	1.9	81	-0.9	0	0	997.4	NA	0.0000		9999	4560	0	0	0
2019/04/25 23:36:00	BASE	17.44	53	22.02	48	2.0	81	-0.9	0	0	997.4	NA	0.0000		9999	4530	5180	0	0
2019/04/25 23:37:00	BASE	16.89	51	20.99	46	2.0	81	-0.8	0	0	997.4	NA	0.0000		9999	4530	0	0	0
2019/04/25 23:38:00	BASE	16.46	50	20.73	56	2.1	81	-0.8	0	0	997.5	NA	0.0000		9999	4430	0	0	0
2019/04/25 23:39:00	BASE	15.45	51	20.73	56	2.1	81	-0.8	0	0	997.5	NA	0.0000		9999	4400	0	0	0
2019/04/25 23:40:00	BASE	15.62	53	20.73	56	2.1	81	-0.8	0	0	997.4	NA	0.0000		9999	4400	0	0	0
2019/04/25 23:41:00	BASE	15.35	51	20.73	56	2.1	81	-0.8	0	0	997.4	NA	0.0000		9999	4330	0	0	0
2019/04/25 23:42:00	BASE	14.58	51	20.73	56	2.1	81	-0.8	0	0	997.4	NA	0.0000		9999	4300	0	0	0
2019/04/25 23:43:00	BASE	14.64	50	20.73	56	2.1	81	-0.8	0	0	997.5	NA	0.0000		9999	4230	0	0	0
2019/04/25 23:44:00	BASE	13.97	50	20.73	56	2.1	81	-0.8	0	0	997.5	NA	0.0000		9999	4200	0	0	0
2019/04/25 23:45:00	BASE	13.47	53	20.68	52	2.1	81	-0.8	0	0	997.4	NA	0.0000		9999	4170	0	0	0
2019/04/25 23:46:00	BASE	15.09	55	20.68	52	2.2	81	-0.8	0	0	997.4	NA	0.0000		9999	4100	0	0	0
2019/04/25 23:47:00	BASE	15.42	53	18.57	60	2.2	80	-0.8	0	0	997.4	NA	0.0000		9999	4170	0	0	0
2019/04/25 23:48:00	BASE	14.14	50	18.57	60	2.2	80	-0.9	0	0	997.4	NA	0.0000		9999	4170	0	0	0
2019/04/25 23:49:00	BASE	13.93	52	18.57	60	2.2	80	-0.9	0	0	997.3	NA	0.0000		9999	4170	0	0	0
2019/04/25 23:50:00	BASE	13.80	53	20.01	47	2.2	80	-0.9	0	0	997.3	NA	0.0000		9999	4230	0	0	0
2019/04/25 23:51:00	BASE	16.02	51	20.78	50	2.2	80	-0.9	0	0	997.2	NA	0.0000		9999	4200	0	0	0
2019/04/25 23:52:00	BASE	17.90	51	20.78	50	2.2	80	-0.9	0	0	997.2	NA	0.0000		9999	4330	0	0	0
2019/04/25 23:53:00	BASE	17.55	48	20.78	50	2.2	80	-0.8	0	0	997.1	NA	0.0000		9999	4530	0	0	0
2019/04/25 23:54:00	BASE	17.57	45	20.78	50	2.3	80	-0.9	0	0	997.1	NA	0.0000		9999	4560	0	0	0
2019/04/25 23:55:00	BASE	17.23	46	20.78	50	2.3	80	-0.9	0	0	997.1	NA	0.0000		9999	4590	0	0	0
2019/04/25 23:56:00	BASE	16.77	50	20.78	50	2.3	79	-0.9	0	0	997.0	NA	0.0000		9999	4690	0	0	0
2019/04/25 23:57:00	BASE	17.14	49	20.78	50	2.4	79	-0.9	0	0	997.0	NA	0.0000		9999	5150	5710	0	0
2019/04/25 23:58:00	BASE	17.17	45	20.78	50	2.3	79	-0.9	0	0	996.9	NA	0.0000		9999	5220	5740	6590	0
2019/04/25 23:59:00	BASE	15.66	43	20.78	50	2.3	79	-0.9	0	0	996.9	NA	0.0000		9999	5280	6590	7640	0